[[{"header":{"parameterUnit":"m.s-1","parameterCategory":1,"la1":31.0,"la2":29.5877,"lo1":-88.7671,"lo2":-86.6584,"dy":0.0162,"dx":0.0185,"nx":115,"ny":88,"refTime":"2024-04-23T00:00:00:Z","depth":0,"parameterNumber":2,"parameterNumberName":"U-component_of_WINDS"},"data":[0.0,0.0,0.0,0.0,0.0,0.0,0.0,0.0,0.0,0.0,0.0,0.0,0.0,0.0,0.0,0.0,0.0,0.0,0.0,0.0,0.0,0.0,0.0,0.0,0.0,0.0,0.0,0.0,0.0,0.0,0.0,0.0,0.0,0.0,0.0,0.0,0.0,0.0,0.0,0.0,0.0,0.0,0.0,0.0,0.0,0.0,0.0,0.0,0.0,0.0,0.0,0.0,0.0,0.0,0.0,0.0,0.0,0.0,0.0,0.0,0.0,0.0,0.0,0.0,0.0,0.0,0.0,0.0,0.0,0.0,0.0,0.0,0.0,0.0,0.0,0.0,0.0,0.0,0.0,0.0,0.0,0.0,0.0,0.0,0.0,0.0,0.0,0.0,0.0,0.0,0.0,0.0,0.0,0.0,0.0,0.0,0.0,0.0,0.0,0.0,0.0,0.0,0.0,0.0,0.0,0.0,0.0,0.0,0.0,0.0,0.0,0.0,0.0,0.0,0.0,0.0,0.0,0.0,0.0,0.0,0.0,0.0,0.0,0.0,0.0,0.0,0.0,0.0,0.0,0.0,0.0,0.0,0.0,0.0,0.0,0.0,0.0,0.0,0.0,0.0,0.0,0.0,0.0,0.0,0.0,0.0,0.0,0.0,0.0,0.0,0.0,0.0,0.0,0.0,0.0,0.0,0.0,0.0,0.0,0.0,0.0,0.0,0.0,0.0,0.0,0.0,0.0,0.0,0.0,0.0,0.0,0.0,0.0,0.0,0.0,0.0,0.0,0.0,0.0,0.0,0.0,0.0,0.0,0.0,0.0,0.0,0.0,0.0,0.0,0.0,0.0,0.0,0.0,0.0,0.0,0.0,0.0,0.0,0.0,0.0,0.0,0.0,0.0,0.0,0.0,0.0,0.0,0.0,0.0,0.0,0.0,0.0,0.0,0.0,0.0,0.0,0.0,0.0,0.0,0.0,0.0,0.0,0.0,0.0,0.0,0.0,0.0,0.0,0.0,0.0,0.0,0.0,0.0,0.0,0.0,0.0,0.0,0.0,0.0,0.0,0.0,0.0,0.0,0.0,0.0,0.0,0.0,0.0,0.0,0.0,0.0,0.0,0.0,0.0,0.0,0.0,0.0,0.0,0.0,0.0,0.0,0.0,0.0,0.0,0.0,0.0,0.0,0.0,0.0,0.0,0.0,0.0,0.0,0.0,0.0,0.0,0.0,0.0,0.0,0.0,0.0,0.0,0.0,0.0,0.0,0.0,0.0,0.0,0.0,0.0,0.0,0.0,0.0,0.0,0.0,0.0,0.0,0.0,0.0,0.0,0.0,0.0,0.0,0.0,0.0,0.0,0.0,0.0,0.0,0.0,0.0,0.0,0.0,0.0,0.0,0.0,0.0,0.0,0.0,0.0,0.0,0.0,0.0,0.0,0.0,0.0,0.0,0.0,0.0,0.0,0.0,0.0,0.0,0.0,0.0,0.0,0.0,0.0,0.0,0.0,0.0,0.0,0.0,0.0,0.0,0.0,0.0,0.0,0.0,0.0,0.0,0.0,0.0,0.0,0.0,0.0,0.0,0.0,0.0,0.0,0.0,0.0,0.0,0.0,0.0,0.0,0.0,0.0,0.0,0.0,0.0,0.0,0.0,0.0,0.0,0.0,0.0,0.0,0.0,0.0,0.0,0.0,0.0,0.0,0.0,0.0,0.0,0.0,0.0,0.0,0.0,0.0,0.0,0.0,0.0,0.0,0.0,0.0,0.0,0.0,0.0,0.0,0.0,0.0,0.0,0.0,0.0,0.0,0.0,0.0,0.0,0.0,0.0,0.0,0.0,0.0,0.0,0.0,0.0,0.0,0.0,0.0,0.0,0.0,0.0,0.0,0.0,0.0,0.0,0.0,0.0,0.0,0.0,0.0,0.0,0.0,0.0,0.0,0.0,0.0,0.0,0.0,0.0,0.0,0.0,0.0,0.0,0.0,0.0,0.0,0.0,0.0,0.0,0.0,0.0,0.0,0.0,0.0,0.0,0.0,0.0,0.0,0.0,0.0,0.0,0.0,0.0,0.0,0.0,0.0,0.0,0.0,0.0,0.0,0.0,0.0,0.0,0.0,0.0,0.0,0.0,0.0,0.0,0.0,0.0,0.0,0.0,0.0,0.0,0.0,0.0,0.0,0.0,0.0,0.0,0.0,0.0,0.0,0.0,0.0,0.0,0.0,0.0,0.0,0.0,0.0,0.0,0.0,0.0,0.0,0.0,0.0,0.0,0.0,0.0,0.0,0.0,0.0,0.0,0.0,0.0,0.0,0.0,0.0,0.0,0.0,0.0,0.0,0.0,0.0,0.0,0.0,0.0,0.0,0.0,0.0,0.0,0.0,0.0,0.0,0.0,0.0,0.0,0.0,0.0,0.0,0.0,0.0,0.0,0.0,0.0,0.0,0.0,0.0,0.0,0.0,0.0,0.0,0.0,0.0,0.0,0.0,0.0,0.0,0.0,0.0,0.0,0.0,0.0,0.0,0.0,0.0,0.0,0.0,0.0,0.0,0.0,0.0,0.0,0.0,0.0,0.0,0.0,0.0,0.0,0.0,0.0,0.0,0.0,0.0,0.0,0.0,0.0,0.0,0.0,0.0,0.0,0.0,0.0,0.0,0.0,0.0,0.0,0.0,0.0,0.0,0.0,0.0,0.0,0.0,0.0,0.0,0.0,0.0,0.0,0.0,0.0,0.0,0.0,0.0,0.0,0.0,0.0,0.0,0.0,0.0,0.0,0.0,0.0,0.0,0.0,0.0,0.0,0.0,0.0,0.0,0.0,0.0,0.0,0.0,0.0,0.0,0.0,0.0,0.0,0.0,0.0,0.0,0.0,0.0,0.0,0.0,0.0,0.0,0.0,0.0,0.0,0.0,0.0,0.0,0.0,0.0,0.0,0.0,0.0,0.0,0.0,0.0,0.0,0.0,0.0,0.0,0.0,0.0,0.0,0.0,0.0,0.0,0.0,0.0,0.0,0.0,0.0,0.0,0.0,0.0,0.0,0.0,0.0,0.0,0.0,0.0,0.0,0.0,0.0,0.0,0.0,0.0,0.0,0.0,0.0,0.0,0.0,0.0,0.0,0.0,0.0,0.0,0.0,0.0,0.0,0.0,0.0,0.0,0.0,0.0,0.0,0.0,0.0,0.0,0.0,0.0,0.0,0.0,0.0,0.0,0.0,0.0,0.0,0.0,0.0,0.0,0.0,0.0,0.0,0.0,0.0,0.0,0.0,0.0,0.0,0.0,0.0,0.0,0.0,0.0,0.0,0.0,0.0,0.0,0.0,0.0,0.0,0.0,0.0,0.0,0.0,0.0,0.0,0.0,0.0,0.0,0.0,0.0,0.0,0.0,0.0,0.0,0.0,0.0,0.0,0.0,0.0,0.0,0.0,0.0,0.0,0.0,0.0,0.0,0.0,0.0,0.0,0.0,0.0,0.0,0.0,0.0,0.0,0.0,0.0,0.0,0.0,0.0,0.0,0.0,0.0,0.0,0.0,0.0,0.0,0.0,0.0,0.0,0.0,0.0,0.0,0.0,0.0,0.0,0.0,0.0,0.0,0.0,0.0,0.0,0.0,0.0,0.0,0.0,0.0,0.0,0.0,0.0,0.0,0.0,0.0,0.0,0.0,0.0,0.0,0.0,0.0,0.0,0.0,0.0,0.0,0.0,0.0,0.0,0.0,0.0,0.0,0.0,0.0,0.0,0.0,0.0,0.0,0.0,0.0,0.0,0.0,0.0,0.0,0.0,0.0,0.0,0.0,0.0,0.0,0.0,0.0,0.0,0.0,0.0,0.0,0.0,0.0,0.0,0.0,0.0,0.0,0.0,0.0,0.0,0.0,0.0,0.0,0.0,0.0,0.0,0.0,0.0,0.0,0.0,0.0,0.0,0.0,0.0,0.0,0.0,0.0,0.0,0.0,0.0,0.0,0.0,0.0,0.0,0.0,0.0,0.0,0.0,0.0,0.0,0.0,0.0,0.0,0.0,0.0,0.0,0.0,0.0,0.0,0.0,0.0,0.0,0.0,0.0,0.0,0.0,0.0,0.0,0.0,0.0,0.0,0.0,0.0,0.0,0.0,0.0,0.0,0.0,0.0,0.0,0.0,0.0,0.0,0.0,0.0,0.0,0.0,0.0,0.0,0.0,0.0,0.0,0.0,0.0,0.0,0.0,0.0,0.0,0.0,0.0,0.0,0.0,0.0,0.0,0.0,0.0,0.0,0.0,0.0,0.0,-4.0351,0.0,0.0,0.0,0.0,0.0,0.0,0.0,0.0,0.0,0.0,0.0,0.0,0.0,0.0,0.0,0.0,0.0,0.0,0.0,0.0,0.0,0.0,0.0,0.0,0.0,0.0,0.0,0.0,0.0,0.0,0.0,0.0,0.0,0.0,0.0,0.0,0.0,0.0,0.0,0.0,0.0,0.0,0.0,0.0,0.0,0.0,0.0,0.0,0.0,0.0,0.0,0.0,0.0,0.0,0.0,0.0,0.0,0.0,0.0,0.0,0.0,0.0,0.0,0.0,0.0,0.0,0.0,0.0,0.0,0.0,0.0,0.0,0.0,0.0,0.0,0.0,0.0,0.0,0.0,0.0,0.0,0.0,0.0,0.0,0.0,0.0,0.0,0.0,0.0,0.0,0.0,0.0,0.0,0.0,0.0,0.0,0.0,0.0,0.0,0.0,0.0,0.0,0.0,0.0,0.0,0.0,0.0,0.0,0.0,0.0,-4.1529,-4.1882,-4.1529,-4.1207,-4.0821,0.0,0.0,0.0,0.0,0.0,0.0,0.0,0.0,0.0,0.0,0.0,0.0,0.0,0.0,0.0,0.0,0.0,0.0,0.0,0.0,0.0,0.0,0.0,0.0,0.0,0.0,0.0,0.0,0.0,0.0,0.0,0.0,0.0,0.0,0.0,0.0,0.0,0.0,0.0,0.0,0.0,0.0,0.0,0.0,0.0,0.0,0.0,0.0,0.0,0.0,0.0,0.0,0.0,0.0,0.0,0.0,0.0,0.0,0.0,0.0,0.0,0.0,0.0,0.0,0.0,0.0,0.0,0.0,0.0,0.0,0.0,0.0,0.0,0.0,0.0,0.0,0.0,0.0,0.0,0.0,0.0,0.0,0.0,0.0,0.0,0.0,0.0,0.0,0.0,0.0,0.0,0.0,0.0,0.0,0.0,0.0,0.0,0.0,0.0,0.0,0.0,0.0,0.0,0.0,0.0,0.0,0.0,0.0,0.0,0.0,0.0,0.0,-4.2333,-4.1885,-4.0894,0.0,0.0,0.0,0.0,0.0,0.0,0.0,0.0,0.0,0.0,0.0,0.0,0.0,0.0,0.0,0.0,0.0,0.0,0.0,0.0,0.0,0.0,0.0,0.0,0.0,0.0,0.0,0.0,0.0,0.0,0.0,0.0,0.0,0.0,0.0,0.0,0.0,0.0,0.0,0.0,0.0,0.0,0.0,0.0,0.0,0.0,0.0,0.0,0.0,0.0,0.0,0.0,0.0,0.0,0.0,0.0,0.0,0.0,0.0,0.0,0.0,0.0,0.0,0.0,0.0,0.0,0.0,0.0,0.0,0.0,0.0,0.0,0.0,0.0,0.0,0.0,0.0,0.0,0.0,0.0,0.0,0.0,0.0,0.0,0.0,0.0,0.0,0.0,0.0,0.0,0.0,0.0,0.0,0.0,0.0,0.0,0.0,0.0,0.0,0.0,0.0,0.0,0.0,0.0,0.0,0.0,0.0,0.0,0.0,0.0,-4.31,-4.31,-4.31,0.0,-4.0254,0.0,0.0,0.0,0.0,0.0,0.0,0.0,0.0,0.0,0.0,0.0,0.0,0.0,0.0,0.0,0.0,0.0,0.0,0.0,0.0,0.0,0.0,0.0,0.0,0.0,0.0,0.0,0.0,0.0,0.0,0.0,0.0,0.0,0.0,0.0,0.0,0.0,0.0,0.0,0.0,0.0,0.0,0.0,0.0,0.0,0.0,0.0,0.0,0.0,0.0,0.0,0.0,0.0,0.0,0.0,0.0,0.0,0.0,0.0,0.0,0.0,0.0,0.0,0.0,0.0,0.0,0.0,0.0,0.0,0.0,0.0,0.0,0.0,0.0,0.0,0.0,0.0,0.0,0.0,0.0,0.0,0.0,0.0,0.0,0.0,0.0,0.0,0.0,0.0,0.0,0.0,0.0,0.0,0.0,0.0,0.0,0.0,0.0,0.0,0.0,0.0,0.0,0.0,0.0,0.0,0.0,0.0,0.0,0.0,0.0,-4.3154,-4.3637,-4.3255,-4.1979,0.0,0.0,0.0,0.0,0.0,0.0,0.0,0.0,0.0,0.0,0.0,0.0,0.0,0.0,0.0,0.0,0.0,0.0,0.0,0.0,0.0,0.0,0.0,0.0,0.0,0.0,0.0,0.0,0.0,0.0,0.0,0.0,0.0,0.0,0.0,0.0,0.0,0.0,0.0,0.0,0.0,0.0,0.0,0.0,0.0,0.0,0.0,0.0,0.0,0.0,0.0,0.0,0.0,0.0,0.0,0.0,0.0,0.0,0.0,0.0,0.0,0.0,0.0,0.0,0.0,0.0,0.0,0.0,0.0,0.0,0.0,0.0,0.0,0.0,0.0,0.0,0.0,0.0,0.0,0.0,0.0,0.0,0.0,0.0,0.0,0.0,0.0,0.0,0.0,0.0,0.0,0.0,0.0,0.0,0.0,0.0,0.0,0.0,0.0,0.0,0.0,0.0,0.0,0.0,0.0,0.0,0.0,0.0,0.0,0.0,-4.3076,-4.3553,-4.4103,-4.35,-4.2069,-3.9882,0.0,0.0,0.0,0.0,0.0,0.0,0.0,0.0,0.0,0.0,0.0,0.0,0.0,0.0,0.0,0.0,0.0,0.0,0.0,0.0,0.0,0.0,0.0,0.0,0.0,0.0,0.0,0.0,0.0,0.0,0.0,0.0,0.0,0.0,0.0,0.0,0.0,0.0,0.0,0.0,0.0,0.0,0.0,0.0,0.0,0.0,0.0,0.0,0.0,0.0,0.0,0.0,0.0,0.0,0.0,0.0,0.0,0.0,0.0,0.0,0.0,0.0,0.0,0.0,0.0,0.0,0.0,0.0,0.0,0.0,0.0,0.0,0.0,0.0,0.0,0.0,0.0,0.0,0.0,0.0,0.0,0.0,0.0,0.0,0.0,0.0,0.0,0.0,0.0,0.0,0.0,0.0,0.0,0.0,0.0,0.0,0.0,0.0,0.0,0.0,0.0,0.0,0.0,0.0,0.0,0.0,0.0,0.0,-4.293,-4.3997,-4.4622,-4.4622,-4.4022,-4.2695,0.0,0.0,0.0,0.0,0.0,0.0,0.0,0.0,0.0,0.0,0.0,0.0,0.0,0.0,0.0,0.0,0.0,0.0,0.0,0.0,0.0,0.0,0.0,0.0,0.0,0.0,0.0,0.0,0.0,0.0,0.0,0.0,0.0,0.0,0.0,0.0,0.0,0.0,0.0,0.0,0.0,0.0,0.0,0.0,0.0,0.0,0.0,0.0,0.0,0.0,0.0,0.0,0.0,0.0,0.0,0.0,0.0,0.0,0.0,0.0,0.0,0.0,0.0,0.0,0.0,0.0,0.0,0.0,0.0,0.0,0.0,0.0,0.0,0.0,0.0,0.0,0.0,0.0,0.0,0.0,0.0,0.0,0.0,0.0,0.0,0.0,0.0,0.0,0.0,0.0,0.0,0.0,0.0,0.0,0.0,0.0,0.0,0.0,0.0,0.0,0.0,0.0,0.0,0.0,0.0,0.0,0.0,0.0,0.0,-4.3429,-4.4827,-4.5298,-4.4717,-4.4158,-4.2861,0.0,0.0,0.0,0.0,0.0,0.0,0.0,0.0,0.0,0.0,0.0,0.0,0.0,0.0,0.0,0.0,0.0,0.0,0.0,0.0,0.0,0.0,0.0,0.0,0.0,0.0,0.0,0.0,0.0,0.0,0.0,0.0,0.0,0.0,0.0,0.0,0.0,0.0,0.0,0.0,0.0,0.0,0.0,0.0,0.0,0.0,0.0,0.0,0.0,0.0,0.0,0.0,0.0,0.0,0.0,0.0,0.0,0.0,0.0,0.0,0.0,0.0,0.0,0.0,0.0,0.0,0.0,0.0,0.0,0.0,0.0,0.0,0.0,0.0,0.0,0.0,0.0,0.0,0.0,0.0,0.0,0.0,0.0,0.0,0.0,0.0,0.0,0.0,0.0,0.0,0.0,0.0,0.0,0.0,0.0,0.0,0.0,0.0,0.0,0.0,0.0,0.0,0.0,0.0,0.0,0.0,0.0,0.0,0.0,-4.4689,0.0,-4.6067,-4.5381,-4.4636,-4.3305,0.0,0.0,0.0,0.0,0.0,0.0,0.0,0.0,0.0,0.0,0.0,0.0,0.0,0.0,0.0,0.0,0.0,0.0,0.0,0.0,0.0,0.0,0.0,0.0,0.0,0.0,0.0,0.0,0.0,0.0,0.0,0.0,0.0,0.0,0.0,0.0,0.0,0.0,0.0,0.0,0.0,0.0,0.0,0.0,0.0,0.0,0.0,0.0,0.0,0.0,0.0,0.0,0.0,0.0,0.0,0.0,0.0,0.0,0.0,0.0,0.0,0.0,0.0,0.0,0.0,0.0,0.0,0.0,0.0,0.0,0.0,0.0,0.0,0.0,0.0,0.0,0.0,0.0,0.0,0.0,0.0,0.0,0.0,0.0,0.0,0.0,0.0,0.0,0.0,0.0,0.0,0.0,0.0,0.0,0.0,0.0,0.0,0.0,0.0,0.0,0.0,0.0,0.0,0.0,0.0,0.0,0.0,0.0,-4.4713,-4.6645,-4.6956,-4.6919,-4.674,-4.5376,-4.4085,0.0,0.0,0.0,0.0,0.0,0.0,0.0,0.0,0.0,0.0,0.0,0.0,0.0,0.0,0.0,0.0,0.0,0.0,0.0,0.0,0.0,0.0,0.0,0.0,0.0,0.0,0.0,0.0,0.0,0.0,0.0,0.0,0.0,0.0,0.0,0.0,0.0,0.0,0.0,0.0,0.0,0.0,0.0,0.0,0.0,0.0,0.0,0.0,0.0,0.0,0.0,0.0,0.0,0.0,0.0,0.0,0.0,0.0,0.0,0.0,0.0,0.0,0.0,0.0,0.0,0.0,0.0,0.0,0.0,0.0,0.0,0.0,0.0,0.0,0.0,0.0,0.0,0.0,0.0,0.0,0.0,0.0,0.0,0.0,0.0,0.0,0.0,0.0,0.0,0.0,0.0,0.0,0.0,0.0,0.0,0.0,0.0,0.0,0.0,0.0,0.0,0.0,0.0,0.0,0.0,0.0,0.0,0.0,0.0,-4.636,-4.6868,-4.6975,-4.6579,-4.5551,-4.4235,0.0,0.0,0.0,0.0,0.0,0.0,0.0,0.0,0.0,0.0,0.0,0.0,0.0,0.0,0.0,0.0,0.0,0.0,0.0,0.0,0.0,0.0,0.0,0.0,0.0,0.0,0.0,0.0,0.0,0.0,0.0,0.0,0.0,0.0,0.0,0.0,0.0,0.0,0.0,0.0,0.0,0.0,0.0,0.0,0.0,0.0,0.0,0.0,0.0,0.0,0.0,0.0,0.0,0.0,0.0,0.0,0.0,0.0,0.0,0.0,0.0,0.0,0.0,0.0,0.0,0.0,0.0,0.0,0.0,0.0,0.0,0.0,0.0,0.0,0.0,0.0,0.0,0.0,0.0,0.0,0.0,0.0,0.0,0.0,0.0,0.0,0.0,0.0,0.0,0.0,0.0,0.0,0.0,0.0,0.0,0.0,0.0,0.0,0.0,0.0,0.0,0.0,0.0,0.0,0.0,0.0,0.0,0.0,0.0,-4.7091,-4.7434,-4.7458,-4.7175,-4.6153,-4.4736,-4.3028,0.0,0.0,0.0,0.0,0.0,0.0,0.0,0.0,0.0,0.0,0.0,0.0,0.0,0.0,0.0,0.0,0.0,0.0,0.0,0.0,0.0,0.0,0.0,0.0,0.0,0.0,0.0,0.0,0.0,0.0,0.0,0.0,0.0,0.0,0.0,0.0,0.0,0.0,0.0,0.0,0.0,0.0,0.0,0.0,0.0,0.0,0.0,0.0,0.0,0.0,0.0,0.0,0.0,0.0,0.0,0.0,0.0,0.0,0.0,0.0,0.0,0.0,0.0,0.0,0.0,0.0,0.0,0.0,0.0,0.0,0.0,0.0,0.0,0.0,0.0,0.0,0.0,0.0,0.0,0.0,0.0,0.0,0.0,0.0,0.0,0.0,0.0,0.0,0.0,0.0,0.0,0.0,0.0,0.0,0.0,0.0,0.0,0.0,0.0,0.0,0.0,0.0,0.0,0.0,0.0,0.0,0.0,0.0,-4.8573,-4.8488,-4.8409,-4.8324,-4.7006,-4.5528,0.0,0.0,0.0,0.0,0.0,0.0,0.0,0.0,0.0,0.0,0.0,0.0,0.0,0.0,0.0,0.0,0.0,0.0,0.0,0.0,0.0,0.0,0.0,0.0,0.0,0.0,0.0,0.0,0.0,0.0,0.0,0.0,0.0,0.0,0.0,0.0,0.0,0.0,0.0,0.0,0.0,0.0,0.0,0.0,0.0,0.0,0.0,0.0,0.0,0.0,0.0,0.0,0.0,0.0,0.0,0.0,0.0,0.0,0.0,0.0,0.0,0.0,0.0,0.0,0.0,0.0,0.0,0.0,0.0,0.0,0.0,0.0,0.0,0.0,0.0,0.0,0.0,0.0,0.0,0.0,0.0,0.0,0.0,0.0,0.0,0.0,0.0,0.0,0.0,0.0,0.0,0.0,0.0,0.0,0.0,0.0,0.0,0.0,0.0,0.0,0.0,0.0,0.0,0.0,0.0,0.0,0.0,0.0,0.0,-4.8604,-4.9561,-4.9656,-4.8757,-4.7608,-4.6203,0.0,0.0,0.0,0.0,0.0,0.0,0.0,0.0,0.0,0.0,0.0,0.0,0.0,0.0,0.0,0.0,0.0,0.0,0.0,0.0,0.0,0.0,0.0,0.0,0.0,0.0,0.0,0.0,0.0,0.0,0.0,0.0,0.0,0.0,0.0,0.0,0.0,0.0,0.0,0.0,0.0,0.0,0.0,0.0,0.0,0.0,0.0,0.0,0.0,0.0,0.0,0.0,0.0,0.0,0.0,0.0,0.0,0.0,0.0,0.0,0.0,0.0,0.0,0.0,0.0,0.0,0.0,0.0,0.0,0.0,0.0,0.0,0.0,0.0,0.0,0.0,0.0,0.0,0.0,0.0,0.0,0.0,0.0,0.0,0.0,0.0,0.0,0.0,0.0,0.0,0.0,0.0,0.0,0.0,0.0,0.0,0.0,0.0,0.0,0.0,0.0,0.0,0.0,0.0,0.0,0.0,0.0,0.0,-4.8235,-4.9466,-5.0543,-5.0728,-4.9939,-4.8488,-4.6773,0.0,0.0,0.0,0.0,0.0,0.0,0.0,0.0,0.0,0.0,0.0,0.0,0.0,0.0,0.0,0.0,0.0,0.0,0.0,0.0,0.0,0.0,0.0,0.0,0.0,0.0,0.0,0.0,0.0,0.0,0.0,0.0,0.0,0.0,0.0,0.0,0.0,0.0,0.0,0.0,0.0,0.0,0.0,0.0,0.0,0.0,0.0,0.0,0.0,0.0,0.0,0.0,0.0,0.0,0.0,0.0,0.0,0.0,0.0,0.0,0.0,0.0,0.0,0.0,0.0,0.0,0.0,0.0,0.0,0.0,0.0,0.0,0.0,0.0,0.0,0.0,0.0,0.0,0.0,0.0,0.0,0.0,0.0,0.0,0.0,0.0,0.0,0.0,0.0,0.0,0.0,0.0,0.0,0.0,0.0,0.0,0.0,0.0,0.0,0.0,0.0,0.0,0.0,0.0,0.0,0.0,0.0,0.0,-4.8758,-5.0636,-5.1405,-5.1642,-5.1222,-4.9359,-4.7228,0.0,0.0,0.0,0.0,0.0,0.0,0.0,0.0,0.0,0.0,0.0,0.0,0.0,0.0,0.0,0.0,0.0,0.0,0.0,0.0,0.0,0.0,0.0,0.0,0.0,0.0,0.0,0.0,0.0,0.0,0.0,0.0,0.0,0.0,0.0,0.0,0.0,0.0,0.0,0.0,0.0,0.0,0.0,0.0,0.0,0.0,0.0,0.0,0.0,0.0,0.0,0.0,0.0,0.0,0.0,0.0,0.0,0.0,0.0,0.0,0.0,0.0,0.0,0.0,0.0,0.0,0.0,0.0,0.0,0.0,0.0,0.0,0.0,0.0,0.0,0.0,0.0,0.0,0.0,0.0,0.0,0.0,0.0,0.0,0.0,0.0,0.0,0.0,0.0,0.0,0.0,0.0,0.0,0.0,0.0,0.0,0.0,0.0,0.0,0.0,0.0,0.0,0.0,0.0,0.0,0.0,0.0,0.0,-4.9712,-5.0667,-5.1659,-5.1803,-5.0984,-4.9425,-4.7714,0.0,0.0,0.0,0.0,0.0,0.0,0.0,0.0,0.0,0.0,0.0,0.0,0.0,0.0,0.0,0.0,0.0,0.0,0.0,0.0,0.0,0.0,0.0,0.0,0.0,0.0,0.0,0.0,0.0,0.0,0.0,0.0,0.0,0.0,0.0,0.0,0.0,0.0,0.0,0.0,0.0,0.0,0.0,0.0,0.0,0.0,0.0,0.0,-3.4501,0.0,0.0,0.0,0.0,0.0,0.0,0.0,0.0,0.0,0.0,0.0,0.0,0.0,0.0,0.0,0.0,0.0,0.0,0.0,0.0,0.0,0.0,0.0,0.0,0.0,0.0,0.0,0.0,0.0,0.0,0.0,0.0,0.0,0.0,0.0,0.0,0.0,0.0,0.0,0.0,0.0,0.0,0.0,0.0,0.0,0.0,0.0,0.0,0.0,0.0,0.0,0.0,0.0,0.0,0.0,0.0,0.0,0.0,0.0,-4.9977,-5.0524,-5.1589,-5.1744,-5.0816,-4.9313,-4.7585,0.0,0.0,0.0,0.0,0.0,0.0,0.0,0.0,0.0,0.0,0.0,0.0,0.0,0.0,0.0,0.0,0.0,0.0,0.0,0.0,0.0,0.0,0.0,0.0,0.0,0.0,0.0,0.0,0.0,0.0,0.0,0.0,0.0,0.0,0.0,0.0,0.0,0.0,0.0,0.0,0.0,0.0,0.0,0.0,0.0,0.0,0.0,0.0,0.0,0.0,0.0,0.0,0.0,0.0,0.0,0.0,0.0,0.0,0.0,0.0,0.0,0.0,0.0,0.0,0.0,0.0,0.0,0.0,0.0,0.0,0.0,0.0,0.0,0.0,0.0,0.0,0.0,0.0,0.0,0.0,0.0,0.0,0.0,0.0,0.0,0.0,0.0,0.0,0.0,0.0,0.0,0.0,0.0,0.0,0.0,0.0,0.0,0.0,0.0,0.0,0.0,0.0,0.0,0.0,0.0,0.0,0.0,-4.8727,-5.0027,-5.0319,-5.1364,-5.1556,-5.0745,-4.9034,-4.7141,-4.5244,0.0,0.0,0.0,0.0,0.0,0.0,0.0,0.0,0.0,0.0,0.0,0.0,0.0,0.0,0.0,0.0,0.0,0.0,0.0,0.0,0.0,0.0,0.0,0.0,0.0,0.0,0.0,0.0,0.0,0.0,0.0,0.0,0.0,0.0,0.0,0.0,0.0,0.0,-3.2576,-3.4387,0.0,0.0,0.0,0.0,0.0,0.0,0.0,0.0,-3.4838,0.0,0.0,0.0,0.0,0.0,0.0,0.0,0.0,0.0,0.0,0.0,0.0,0.0,0.0,0.0,0.0,0.0,0.0,0.0,0.0,0.0,0.0,0.0,0.0,0.0,0.0,0.0,0.0,0.0,0.0,0.0,0.0,0.0,0.0,0.0,0.0,0.0,0.0,0.0,0.0,0.0,0.0,0.0,0.0,0.0,0.0,0.0,0.0,0.0,0.0,0.0,0.0,0.0,0.0,0.0,0.0,-4.6603,-4.9189,-5.0488,-5.0319,-5.1228,-5.1293,-5.0449,-4.8563,-4.6649,-4.4674,0.0,0.0,0.0,0.0,0.0,0.0,0.0,0.0,0.0,0.0,0.0,0.0,0.0,0.0,0.0,0.0,0.0,0.0,0.0,0.0,0.0,0.0,0.0,0.0,0.0,0.0,0.0,0.0,0.0,0.0,0.0,0.0,0.0,0.0,0.0,0.0,0.0,0.0,0.0,-3.5276,-3.6184,0.0,0.0,0.0,0.0,0.0,0.0,0.0,0.0,-3.4912,0.0,0.0,0.0,0.0,0.0,0.0,0.0,0.0,0.0,0.0,0.0,0.0,0.0,0.0,0.0,0.0,0.0,0.0,0.0,0.0,0.0,0.0,0.0,0.0,0.0,0.0,0.0,0.0,0.0,0.0,0.0,0.0,0.0,0.0,0.0,0.0,0.0,0.0,0.0,0.0,0.0,0.0,0.0,0.0,0.0,0.0,0.0,0.0,0.0,0.0,0.0,0.0,0.0,0.0,0.0,-4.6505,-4.9113,-5.0232,-4.9777,-5.0557,-5.0603,-4.9834,-4.7846,-4.6044,0.0,0.0,0.0,0.0,0.0,0.0,0.0,0.0,0.0,0.0,0.0,0.0,0.0,0.0,0.0,0.0,0.0,0.0,0.0,0.0,0.0,0.0,0.0,0.0,0.0,0.0,0.0,0.0,0.0,0.0,0.0,0.0,0.0,0.0,0.0,0.0,0.0,0.0,0.0,0.0,-3.6142,-3.7104,-3.7793,0.0,0.0,0.0,0.0,0.0,0.0,-3.6167,-3.5595,0.0,0.0,0.0,0.0,0.0,0.0,0.0,0.0,0.0,0.0,0.0,0.0,0.0,0.0,0.0,0.0,0.0,0.0,0.0,0.0,0.0,0.0,0.0,0.0,0.0,0.0,0.0,0.0,0.0,0.0,0.0,0.0,0.0,0.0,0.0,0.0,0.0,0.0,0.0,0.0,0.0,0.0,0.0,0.0,0.0,0.0,0.0,0.0,0.0,0.0,0.0,0.0,0.0,0.0,0.0,-4.6407,-4.8877,-4.9896,-4.9312,-4.9887,-4.9824,-4.8956,-4.7157,-4.5461,0.0,0.0,0.0,0.0,0.0,0.0,0.0,0.0,0.0,0.0,0.0,0.0,0.0,0.0,0.0,0.0,0.0,0.0,0.0,0.0,0.0,0.0,0.0,0.0,0.0,0.0,0.0,0.0,0.0,0.0,0.0,0.0,0.0,0.0,0.0,0.0,0.0,0.0,0.0,0.0,0.0,-3.7809,-3.8191,-3.8299,0.0,0.0,0.0,0.0,-3.7189,-3.6832,0.0,0.0,0.0,0.0,0.0,0.0,0.0,0.0,0.0,0.0,0.0,0.0,0.0,0.0,0.0,0.0,0.0,0.0,0.0,0.0,0.0,0.0,0.0,0.0,0.0,0.0,0.0,0.0,0.0,0.0,0.0,0.0,0.0,0.0,0.0,0.0,0.0,0.0,0.0,0.0,0.0,0.0,0.0,0.0,0.0,0.0,0.0,0.0,0.0,0.0,0.0,0.0,0.0,0.0,0.0,0.0,-4.655,-4.8645,-4.9614,-4.9415,-4.96,-4.9086,-4.7835,-4.6588,-4.4879,0.0,0.0,0.0,0.0,0.0,0.0,0.0,0.0,0.0,0.0,0.0,0.0,0.0,0.0,0.0,0.0,0.0,0.0,0.0,0.0,0.0,0.0,0.0,0.0,0.0,0.0,0.0,0.0,0.0,0.0,0.0,0.0,0.0,0.0,0.0,0.0,0.0,0.0,0.0,0.0,0.0,-3.7813,-3.8601,-3.8397,-3.8169,0.0,0.0,-3.6997,-3.6416,-3.6765,0.0,0.0,0.0,0.0,0.0,0.0,0.0,0.0,0.0,0.0,0.0,0.0,0.0,0.0,0.0,0.0,0.0,0.0,0.0,0.0,0.0,0.0,0.0,0.0,0.0,0.0,0.0,0.0,0.0,0.0,0.0,0.0,0.0,0.0,0.0,0.0,0.0,0.0,0.0,0.0,0.0,0.0,0.0,0.0,0.0,0.0,0.0,0.0,0.0,0.0,0.0,0.0,0.0,0.0,0.0,-4.464,-4.6147,-4.7852,-4.8652,-4.8586,-4.8657,-4.8389,-4.7662,-4.6212,-4.4649,0.0,0.0,0.0,0.0,0.0,0.0,0.0,0.0,0.0,0.0,0.0,0.0,0.0,0.0,0.0,0.0,0.0,0.0,0.0,0.0,0.0,0.0,0.0,0.0,0.0,0.0,0.0,0.0,0.0,0.0,0.0,0.0,0.0,0.0,0.0,0.0,0.0,0.0,0.0,0.0,0.0,0.0,-3.8328,-3.8506,0.0,0.0,0.0,-3.7973,-3.7727,0.0,0.0,0.0,0.0,0.0,0.0,0.0,0.0,0.0,0.0,0.0,0.0,0.0,0.0,0.0,0.0,0.0,0.0,0.0,0.0,0.0,0.0,0.0,0.0,0.0,0.0,0.0,0.0,0.0,0.0,0.0,0.0,0.0,0.0,0.0,0.0,0.0,0.0,0.0,0.0,0.0,0.0,0.0,0.0,0.0,0.0,0.0,0.0,0.0,0.0,0.0,0.0,0.0,0.0,0.0,0.0,0.0,-4.5697,-4.7174,-4.7845,-4.7744,-4.7774,-4.7536,-4.7067,-4.5563,0.0,0.0,0.0,0.0,0.0,0.0,0.0,0.0,0.0,0.0,0.0,0.0,0.0,0.0,0.0,0.0,0.0,0.0,0.0,0.0,0.0,0.0,0.0,0.0,0.0,0.0,0.0,-2.6378,0.0,0.0,0.0,0.0,0.0,0.0,0.0,0.0,0.0,0.0,0.0,0.0,0.0,0.0,-3.7211,-3.8295,-3.8613,-3.8797,0.0,0.0,-3.8699,-3.8477,-3.7671,-3.686,0.0,0.0,0.0,0.0,0.0,0.0,0.0,0.0,0.0,0.0,0.0,0.0,0.0,0.0,0.0,0.0,0.0,0.0,0.0,0.0,0.0,0.0,0.0,0.0,0.0,0.0,0.0,0.0,0.0,0.0,0.0,0.0,0.0,0.0,0.0,0.0,0.0,0.0,0.0,0.0,0.0,0.0,0.0,0.0,0.0,0.0,0.0,0.0,0.0,0.0,0.0,0.0,0.0,0.0,0.0,-4.5405,-4.6713,-4.7352,-4.7331,-4.7053,-4.6365,-4.5304,-4.4349,-4.3125,0.0,0.0,0.0,0.0,0.0,0.0,0.0,0.0,0.0,0.0,0.0,0.0,0.0,0.0,0.0,0.0,0.0,0.0,0.0,0.0,0.0,0.0,0.0,0.0,0.0,0.0,0.0,0.0,0.0,0.0,0.0,0.0,0.0,0.0,0.0,0.0,0.0,0.0,0.0,0.0,0.0,-3.781,-3.8892,-3.8831,-3.8773,0.0,0.0,-3.841,-3.7624,-3.7461,-3.711,-3.61,0.0,0.0,0.0,0.0,0.0,0.0,0.0,0.0,0.0,0.0,0.0,0.0,0.0,0.0,0.0,0.0,0.0,0.0,0.0,0.0,0.0,0.0,0.0,0.0,0.0,0.0,0.0,0.0,0.0,0.0,0.0,0.0,0.0,0.0,0.0,0.0,0.0,0.0,0.0,0.0,0.0,0.0,0.0,0.0,0.0,0.0,0.0,0.0,0.0,0.0,0.0,0.0,0.0,-4.3903,-4.5127,-4.5797,-4.6345,-4.6687,-4.627,-4.5846,-4.5421,-4.4382,-4.3184,0.0,0.0,0.0,0.0,0.0,0.0,0.0,0.0,0.0,0.0,0.0,0.0,0.0,0.0,0.0,0.0,0.0,0.0,0.0,0.0,0.0,0.0,0.0,0.0,0.0,0.0,0.0,0.0,-2.7973,-2.7839,-2.8085,0.0,0.0,0.0,0.0,0.0,0.0,0.0,0.0,0.0,0.0,-3.7453,-3.8765,-3.9042,0.0,0.0,-3.9168,-3.889,-3.8211,-3.7836,-3.7322,-3.6469,-3.6073,0.0,0.0,0.0,0.0,0.0,0.0,0.0,0.0,0.0,0.0,0.0,0.0,0.0,0.0,0.0,0.0,0.0,0.0,0.0,0.0,0.0,0.0,0.0,0.0,0.0,0.0,0.0,0.0,0.0,0.0,0.0,0.0,0.0,0.0,0.0,0.0,0.0,0.0,0.0,0.0,0.0,0.0,0.0,0.0,0.0,0.0,0.0,0.0,0.0,0.0,0.0,0.0,-4.382,-4.5042,-4.5302,-4.5641,-4.6138,-4.5688,-4.5448,-4.5288,-4.4361,-4.3275,0.0,0.0,0.0,0.0,0.0,0.0,0.0,0.0,0.0,0.0,0.0,0.0,0.0,0.0,0.0,0.0,0.0,0.0,0.0,0.0,0.0,0.0,0.0,0.0,0.0,0.0,0.0,0.0,-2.8577,-2.8478,-2.8511,0.0,0.0,0.0,0.0,0.0,0.0,0.0,0.0,0.0,0.0,-3.7617,-3.8854,-3.9321,-3.9555,-3.9555,-3.9396,-3.9183,-3.8694,-3.8005,-3.7325,-3.6887,0.0,0.0,0.0,0.0,0.0,0.0,0.0,0.0,0.0,0.0,0.0,0.0,0.0,0.0,0.0,0.0,0.0,0.0,0.0,0.0,0.0,0.0,0.0,0.0,0.0,0.0,0.0,0.0,0.0,0.0,0.0,0.0,0.0,0.0,0.0,0.0,0.0,0.0,0.0,0.0,0.0,0.0,0.0,0.0,0.0,0.0,0.0,0.0,0.0,0.0,0.0,0.0,0.0,-4.3671,-4.5164,-4.533,-4.5489,-4.5609,-4.5341,-4.5072,-4.4722,-4.4226,-4.3363,-4.2185,0.0,0.0,0.0,0.0,0.0,0.0,0.0,0.0,0.0,0.0,0.0,0.0,0.0,0.0,0.0,0.0,0.0,0.0,0.0,0.0,0.0,0.0,0.0,0.0,0.0,0.0,-2.8446,-2.8943,-2.9328,0.0,0.0,0.0,0.0,0.0,0.0,0.0,0.0,0.0,0.0,-3.7517,-3.8663,-3.9302,-3.9673,-3.9902,-3.9902,-3.948,-3.9017,-3.8757,-3.7815,-3.7075,0.0,0.0,0.0,0.0,0.0,0.0,0.0,0.0,0.0,0.0,0.0,0.0,0.0,0.0,0.0,0.0,0.0,0.0,0.0,0.0,0.0,0.0,0.0,0.0,0.0,0.0,0.0,-4.5155,-4.4317,0.0,0.0,0.0,0.0,0.0,0.0,0.0,0.0,0.0,0.0,0.0,-4.7608,-4.7608,0.0,0.0,0.0,0.0,0.0,0.0,0.0,0.0,0.0,0.0,0.0,0.0,-4.4095,-4.4905,-4.5121,-4.5331,-4.5555,-4.5126,-4.4776,-4.4668,-4.4173,-4.2971,-4.1063,0.0,0.0,0.0,0.0,0.0,0.0,0.0,0.0,0.0,0.0,0.0,0.0,0.0,0.0,0.0,0.0,0.0,0.0,0.0,0.0,0.0,0.0,0.0,0.0,0.0,-2.9022,0.0,0.0,0.0,0.0,0.0,0.0,0.0,0.0,0.0,0.0,0.0,-3.5907,-3.7325,-3.7978,-3.8734,-3.9864,-4.0136,-4.0219,0.0,0.0,0.0,0.0,0.0,0.0,0.0,0.0,0.0,0.0,0.0,0.0,0.0,0.0,-3.4343,-3.464,-3.4737,-3.4871,-3.5317,0.0,0.0,0.0,0.0,0.0,0.0,0.0,0.0,0.0,0.0,0.0,0.0,0.0,0.0,0.0,0.0,-4.6441,0.0,0.0,0.0,0.0,0.0,0.0,0.0,0.0,-4.8147,-4.8895,-4.9314,-4.9463,-4.9387,0.0,-4.8223,-4.6711,0.0,0.0,0.0,0.0,0.0,0.0,0.0,0.0,-4.4462,-4.4976,-4.5285,-4.5527,-4.574,-4.5463,-4.5245,-4.4981,-4.4278,-4.2971,-4.1089,-3.9573,-3.7978,0.0,0.0,0.0,0.0,0.0,0.0,0.0,0.0,0.0,0.0,0.0,0.0,0.0,0.0,0.0,0.0,0.0,0.0,0.0,0.0,0.0,0.0,0.0,-2.964,0.0,0.0,0.0,0.0,0.0,0.0,0.0,0.0,0.0,-3.4895,-3.5584,-3.6628,-3.7938,-3.8602,-3.9344,-4.0278,0.0,0.0,0.0,0.0,0.0,0.0,0.0,-3.894,-3.8714,-3.8412,-3.8145,-3.7918,-3.7257,-3.6855,-3.723,0.0,0.0,-3.5737,-3.5797,-3.5958,-3.6339,-3.6772,-3.7171,-3.7606,-3.8023,-3.831,0.0,0.0,0.0,0.0,0.0,0.0,0.0,0.0,-5.0584,-4.9972,0.0,-4.8686,0.0,0.0,0.0,0.0,0.0,0.0,0.0,0.0,-5.0285,-5.1212,-5.1225,-5.1601,-5.1457,-5.0805,-5.0005,-4.8752,-4.7203,-4.6153,0.0,0.0,0.0,0.0,0.0,0.0,-4.4709,-4.542,-4.5836,-4.6009,-4.6077,-4.6353,-4.6186,-4.5611,-4.4513,-4.3363,-4.2239,-4.1063,-3.9677,-3.8057,-3.6305,0.0,0.0,0.0,0.0,0.0,0.0,0.0,0.0,0.0,0.0,0.0,0.0,0.0,0.0,0.0,0.0,0.0,0.0,0.0,0.0,-2.9876,0.0,0.0,0.0,0.0,0.0,0.0,0.0,0.0,0.0,0.0,-3.4936,-3.677,-3.8148,-3.8024,0.0,0.0,0.0,0.0,-4.135,-4.135,-4.088,-4.0514,-4.0488,-4.0017,-3.9677,-3.9625,0.0,0.0,-3.9449,-3.8485,-3.7785,-3.7785,-3.7316,-3.6823,-3.6641,-3.6402,-3.6365,-3.6761,-3.719,-3.7691,-3.8231,-3.8745,-3.9,-5.6645,0.0,0.0,0.0,0.0,-5.3354,-5.3084,-5.2636,-5.2935,-5.2426,-5.1349,-5.1169,0.0,0.0,0.0,0.0,0.0,0.0,-5.009,-5.0798,-5.1393,-5.1803,-5.2053,-5.2162,-5.2132,-5.1876,-5.1335,-5.0513,-4.9543,-4.8278,-4.6821,-4.5209,0.0,0.0,0.0,0.0,-4.5811,-4.6122,-4.6437,-4.6665,-4.6658,-4.6563,-4.6212,-4.5637,-4.4905,-4.4121,-4.3441,-4.1873,-4.0644,-3.9703,-3.7665,0.0,0.0,0.0,0.0,0.0,0.0,0.0,0.0,0.0,0.0,0.0,0.0,0.0,0.0,0.0,0.0,0.0,0.0,0.0,-3.1627,-3.1862,-3.2045,0.0,0.0,0.0,0.0,0.0,0.0,0.0,0.0,0.0,-3.7475,-3.7782,-3.8437,0.0,0.0,-4.0566,-4.0984,-4.1559,-4.1925,-4.1925,0.0,0.0,0.0,-4.1193,-4.0671,-4.0252,-3.9908,-3.9642,-3.958,-3.9265,-3.9055,-3.9055,-3.8924,-3.8655,-3.816,-3.7401,-3.7066,-3.7414,-3.7743,-3.815,-3.8939,-3.9421,-3.9856,-5.9578,-5.7423,-5.6256,-5.5598,-5.5359,-5.5359,-5.5119,-5.476,-5.5179,-5.461,-5.3384,-5.3384,-5.2665,-5.1409,-5.1379,0.0,0.0,0.0,-5.159,-5.217,-5.224,-5.2367,-5.2599,-5.2632,-5.253,-5.2246,-5.1838,-5.1212,-5.0297,-4.9467,-4.833,-4.6882,0.0,0.0,-4.5665,-4.6086,-4.6315,-4.641,-4.6961,-4.7209,-4.7039,-4.6926,-4.6656,-4.6316,-4.5451,-4.4826,-4.4225,-4.2997,-4.1847,-4.0801,-3.9233,-3.7639,0.0,0.0,0.0,0.0,0.0,0.0,0.0,0.0,0.0,0.0,0.0,-2.8882,-2.9248,0.0,0.0,0.0,-3.1209,-3.2306,-3.2986,-3.3247,0.0,0.0,0.0,0.0,0.0,0.0,0.0,-3.7011,-3.7769,-3.8606,-3.9599,-3.9468,-3.9651,-4.0644,-4.0958,-4.1324,-4.1925,0.0,-4.25,-4.25,-4.2814,-4.2892,-4.2552,-4.203,-4.1455,-4.0853,-4.0514,-4.0305,-4.0278,-4.0095,-3.9939,-3.9913,-3.9756,-3.9494,-3.9128,-3.8602,-3.8194,-3.8141,-3.8464,-3.8976,-3.9619,-4.0183,-4.0654,-6.1792,-6.1044,-5.9189,-5.7992,-5.7274,-5.7244,-5.7214,-5.7094,-5.7154,-5.6466,-5.5359,-5.5329,-5.4581,-5.3354,-5.3294,0.0,0.0,-5.2713,-5.2892,-5.2902,-5.3048,-5.3033,-5.2982,-5.3064,-5.2795,-5.2167,-5.1823,-5.1088,-5.0076,-4.9886,-4.9593,-4.9057,-4.6975,-4.6067,-4.6315,-4.6478,-4.6518,-4.6512,-4.7374,-4.7701,-4.7388,-4.7388,-4.7362,-4.7174,-4.6238,-4.5401,-4.4748,-4.4173,-4.3127,-4.1533,-4.0827,-3.9468,-3.7273,0.0,0.0,0.0,0.0,0.0,0.0,0.0,0.0,0.0,0.0,0.0,0.0,0.0,0.0,0.0,-3.2725,0.0,-3.3849,-3.4319,0.0,0.0,0.0,-3.5704,-3.6253,-3.6802,-3.7586,-3.8762,0.0,0.0,0.0,0.0,-4.1481,-4.1507,-4.1925,-4.2422,-4.2944,-4.3023,-4.3075,-4.3101,-4.3154,-4.3154,-4.3101,-4.2631,-4.2082,-4.1585,-4.1402,-4.135,-4.1324,-4.088,-4.054,-4.0488,-4.0069,-3.973,-3.9703,-3.9838,-3.9812,-3.8903,-3.9276,-3.9898,-4.0368,-4.0872,-4.1295,-6.245,-6.1822,-6.1343,-6.0176,-5.865,-5.862,-5.8052,-5.7154,-5.7663,-5.7393,-5.6645,-5.6645,-5.5927,-5.467,-5.3963,-5.3565,-5.3446,-5.3545,-5.3795,-5.4002,-5.4322,-5.4179,-5.3713,-5.3262,-5.2925,-5.2511,-5.1787,-5.1234,-5.0903,-4.9858,-4.9255,-4.9036,-4.7649,-4.7217,-4.7729,-4.7754,-4.7631,-4.7453,-4.7911,-4.8047,-4.7989,-4.7989,-4.7571,-4.6708,-4.6421,-4.5794,-4.472,-4.4173,-4.3493,-4.2631,-4.1664,-4.0252,-3.8397,-3.722,0.0,0.0,0.0,0.0,0.0,0.0,0.0,0.0,0.0,-3.0985,-3.181,0.0,-3.2489,0.0,-3.4136,-3.5234,-3.6096,-3.6305,0.0,0.0,-3.7194,-3.7508,-3.8031,-3.8214,-3.8919,-4.0514,-4.0697,-4.1167,-4.2474,-4.2631,-4.2788,-4.318,-4.2997,-4.2866,-4.2971,-4.3389,-4.365,-4.3702,-4.4016,-4.4147,-4.3702,-4.318,-4.2762,-4.2631,-4.2265,-4.1977,-4.1951,-4.1481,-4.1065,-4.1089,-4.101,-4.0749,-4.0305,-4.0421,-4.0425,-4.0,-4.0214,-4.0648,-4.1304,-4.1374,-4.1421,-6.3109,-6.254,-6.254,-6.1732,-6.0386,-5.9787,-5.9129,-5.8441,-5.853,-5.8171,-5.7543,-5.7086,-5.6527,-5.5871,-5.5197,-5.4842,-5.4716,-5.4597,-5.4521,-5.446,-5.4337,-5.4063,-5.3613,-5.3164,-5.2827,-5.2658,-5.2155,-5.1791,-5.1481,-5.0726,-5.0002,-4.9532,-4.8672,-4.8323,-4.8391,-4.8163,-4.7982,-4.7959,-4.8131,-4.8172,-4.8172,-4.8172,-4.7885,-4.7257,-4.6734,-4.6186,-4.5532,-4.4696,-4.399,-4.3415,-4.2552,-4.1402,-3.9939,-3.8527,-3.6959,0.0,0.0,0.0,0.0,0.0,0.0,0.0,0.0,0.0,0.0,0.0,-3.4214,0.0,-3.594,0.0,-3.7691,-3.8004,-3.8292,-3.8632,-3.8867,-3.9233,-3.9808,-4.0095,-4.0723,-4.1925,-4.2082,-4.2396,-4.3284,-4.3389,-4.3598,-4.4173,-4.399,-4.3781,-4.3807,-4.4068,-4.4251,-4.4251,-4.4513,-4.4539,-4.3964,-4.3598,-4.331,-4.3049,-4.2762,-4.2552,-4.2526,-4.2082,-4.169,-4.169,-4.1481,-4.1219,-4.088,-4.1025,-4.1138,-4.1191,-4.1298,-4.1538,-4.158,-4.1633,-4.1859,-6.3617,-6.3137,-6.3137,-6.275,-6.2121,-6.0864,-6.0236,-6.0027,-5.9434,-5.8752,-5.8041,-5.7238,-5.6835,-5.6746,-5.6509,-5.6128,-5.5771,-5.5503,-5.5039,-5.4484,-5.3951,-5.3524,-5.321,-5.2895,-5.2752,-5.2694,-5.2553,-5.2236,-5.1769,-5.1652,-5.1089,-5.0052,-4.9732,-4.9265,-4.8737,-4.8237,-4.8069,-4.8172,-4.8172,-4.8172,-4.8172,-4.8172,-4.8146,-4.8041,-4.71,-4.6525,-4.6369,-4.5401,-4.4539,-4.3912,-4.3415,-4.2605,-4.1455,-3.9913,-3.8527,0.0,-3.6332,0.0,0.0,0.0,0.0,0.0,0.0,0.0,0.0,-3.4992,-3.6061,-3.7097,-3.7723,-3.8324,-3.8998,-3.952,-3.9886,-4.0043,-4.0461,-4.0958,-4.1481,-4.1977,-4.25,-4.3075,-4.3127,-4.3337,-4.3885,-4.399,-4.4173,-4.4591,-4.467,-4.4563,-4.4642,-4.4642,-4.4696,-4.4694,-4.4694,-4.4565,-4.4147,-4.4016,-4.3833,-4.3363,-4.3206,-4.3127,-4.3127,-4.2657,-4.2291,-4.2239,-4.1847,-4.1455,-4.1428,-4.155,-4.1746,-4.1887,-4.2133,-4.2178,-4.1887,-4.1948,-4.2276,-6.3647,-6.3137,-6.3137,-6.2989,-6.281,-6.1747,-6.085,-6.0086,-5.9747,-5.9025,-5.8183,-5.801,-5.7631,-5.7075,-5.6803,-5.6238,-5.5445,-5.5219,-5.4885,-5.4514,-5.4469,-5.4221,-5.3869,-5.3343,-5.2947,-5.2684,-5.1927,-5.1507,-5.139,-5.0857,-5.0532,-5.028,-4.9981,-4.9573,-4.9049,0.0,0.0,0.0,-4.8172,-4.8172,-4.8172,-4.8172,-4.7963,-4.7519,-4.7283,0.0,-4.5846,-4.5529,-4.4957,-4.3938,-4.3755,0.0,0.0,0.0,0.0,0.0,0.0,0.0,0.0,0.0,0.0,0.0,-3.7292,-3.6988,-3.6133,-3.6882,-3.7603,-3.8023,-3.8588,-3.9462,-4.0673,-4.0932,-4.1376,-4.2265,-4.2448,-4.2579,-4.2709,-4.2814,-4.3075,-4.3624,-4.3702,-4.3938,-4.4434,-4.4565,-4.4591,-4.4696,-4.4694,-4.4694,-4.4694,-4.4694,-4.4694,-4.4694,-4.4694,-4.4696,-4.4591,-4.4539,-4.4487,-4.4302,-4.399,-4.3755,-4.3676,-4.3258,-4.2866,-4.284,-4.2396,-4.2054,-4.2028,-4.1688,-4.1474,-4.1696,-4.1993,-4.2306,-4.2815,-4.2567,-4.2444,-6.4126,0.0,-6.3199,-6.3021,0.0,-6.2316,-6.1545,-6.0595,-6.0099,-5.9398,-5.8667,-5.8206,-5.7742,-5.7199,-5.695,-5.6441,-5.5649,-5.5395,-5.5018,-5.458,-5.4414,-5.4134,-5.3833,-5.3533,-5.3218,-5.289,-5.2413,-5.2011,-5.1709,-5.1372,-5.1057,-5.0611,-5.0463,-5.0054,-4.9505,-4.9479,-4.9061,-4.8198,-4.8172,-4.8172,-4.8172,-4.8172,-4.8041,-4.7754,0.0,0.0,0.0,0.0,0.0,0.0,0.0,0.0,0.0,0.0,0.0,-4.0906,-4.0331,-3.9886,-3.9625,-3.9455,-3.931,-3.9214,-3.9436,-3.9158,-3.8152,-3.8492,-3.903,-3.9743,-4.0052,-4.0617,-4.1569,-4.1699,-4.1931,-4.25,-4.2784,-4.3018,-4.3044,-4.3277,-4.3616,-4.4011,-4.4089,-4.4273,-4.4642,-4.4694,-4.4694,-4.4694,-4.4694,-4.4694,-4.4694,-4.4694,-4.4694,-4.4694,-4.4694,-4.4694,-4.4694,-4.4694,-4.4694,-4.4642,-4.4487,-4.433,-4.4304,-4.3833,-4.3441,-4.3389,-4.2971,-4.2526,-4.2213,-4.1925,-4.1738,-4.1726,-4.1796,-4.2115,-4.2776,-4.2821,-4.2889,-6.4725,-6.3947,-6.341,-6.2967,-6.2615,-6.2498,-6.188,-6.097,0.0,0.0,0.0,-5.8192,-5.7619,-5.7308,-5.6994,-5.648,-5.5932,-5.5554,-5.5113,-5.452,-5.4161,-5.3833,-5.3531,-5.3531,-5.3349,-5.301,-5.2922,-5.2615,-5.2121,-5.2059,-5.1636,-5.0969,-5.0917,-5.0629,-5.008,-4.9949,-4.9427,-4.8538,-4.8486,-4.8486,-4.8486,-4.8486,-4.8486,-4.8486,-4.7937,-4.7597,-4.7435,-4.6944,-4.6369,-4.5794,-4.5323,-4.4853,-4.433,-4.3232,-4.2605,-4.2579,-4.2004,-4.1587,-4.1511,-4.1334,-4.1182,-4.108,-4.1,-4.0665,-3.9931,-3.9905,-4.0287,-4.131,-4.1386,-4.1616,-4.2179,-4.2283,-4.2309,-4.2411,-4.2846,-4.3182,-4.3208,-4.3592,-4.3958,-4.4203,-4.4232,-4.4313,-4.4505,-4.4559,-4.4613,-4.4613,-4.4668,-4.4694,-4.4694,-4.4694,-4.4694,-4.4694,-4.4694,-4.4694,-4.4694,-4.4694,-4.4694,-4.4694,-4.4722,-4.4694,-4.467,-4.433,-4.4068,-4.4016,-4.3546,-4.3049,-4.2605,-4.2473,-4.221,-4.186,-4.1855,-4.1978,-4.2293,-4.2776,-4.3136,-6.5144,-6.3977,-6.3653,-6.3178,-6.2556,-6.1969,-6.1405,-6.0692,-6.0063,-5.9422,-5.8812,-5.809,-5.7628,-5.7339,-5.6709,-5.6135,-5.5554,-5.5203,-5.473,0.0,-5.3833,-5.347,-5.3166,-5.3193,-5.2983,-5.2677,-5.2368,-5.2183,-5.2059,-5.181,-5.1606,-5.1492,-5.1492,-5.1204,-5.0655,-5.0159,-4.9819,-4.9662,-4.9662,-4.9662,-4.9662,-4.9636,-4.9662,-4.9636,-4.9113,-4.859,-4.8068,-4.7519,-4.6944,-4.6395,-4.629,-4.6212,-4.6081,-4.4983,-4.4382,-4.4304,-4.3363,-4.2632,-4.2449,-4.2397,-4.211,-4.161,-4.1392,-4.1207,-4.1056,-4.1056,-4.1213,-4.1631,-4.1656,-4.1966,-4.2769,-4.2846,-4.3025,-4.3486,-4.3694,-4.3771,-4.3691,-4.3768,-4.3899,-4.3955,-4.3955,-4.3955,-4.4064,-4.4203,-4.4367,-4.4367,-4.4531,-4.4694,-4.4694,-4.4694,-4.4694,-4.4694,-4.4694,-4.4694,-4.4694,-4.4694,-4.4694,-4.4694,-4.4694,-4.4694,-4.4694,-4.4617,-4.4539,-4.4591,-4.4095,-4.3729,-4.3572,-4.3206,-4.2761,-4.2289,-4.2284,-4.2327,-4.2004,-4.2342,-4.2755,-6.5532,-6.4725,-6.3922,-6.3239,-6.2498,-6.155,-6.0863,-6.0442,-6.0108,-5.9616,-5.8944,-5.8314,-5.788,-5.7556,-5.7095,-5.6488,-5.5734,-5.5257,-5.4644,-5.4074,-5.3592,-5.3254,-5.3132,-5.2922,-5.2677,-5.228,-5.2183,-5.1996,-5.1846,-5.1659,-5.1596,-5.1596,-5.1596,-5.1465,-5.123,-5.0943,-5.0812,-5.0786,-5.0211,-4.9897,-4.9897,-4.9897,-4.9897,-4.9897,-4.9636,-4.9244,-4.8695,-4.8433,-4.7885,-4.697,-4.6944,-4.6787,-4.6473,-4.5976,-4.5689,-4.5663,-4.5002,-4.4552,-4.4468,-4.4138,-4.3751,-4.3336,-4.3193,-4.3056,-4.3056,-4.2308,-4.1961,-4.2347,-4.2372,-4.2528,-4.2946,-4.2971,-4.3098,-4.3406,-4.3432,-4.3376,-4.3432,-4.3376,-4.3487,-4.3598,-4.3653,-4.3708,-4.3899,-4.401,-4.4039,-4.4119,-4.4313,-4.4476,-4.4476,-4.4639,-4.4694,-4.4694,-4.4694,-4.4694,-4.4694,-4.4694,-4.4694,-4.4694,-4.4694,-4.4694,-4.4694,-4.4694,-4.4694,-4.4668,-4.4487,-4.4225,-4.399,-4.3676,-4.3258,-4.2762,-4.2446,-4.2285,-4.2224,-4.2358,-4.2658,-6.5918,-6.5346,-6.4246,-6.3263,-6.2307,-6.1184,-6.0438,-6.0071,-5.9981,-5.9602,-5.9058,-5.8494,-5.8058,-5.7668,-5.7285,-5.6675,-5.5982,-5.5469,-5.4916,-5.433,-5.3619,-5.3259,-5.311,-5.2695,-5.228,-5.2059,-5.1996,-5.1846,-5.1596,-5.1596,-5.1596,-5.1596,-5.1596,-5.1596,-5.1596,-5.1596,-5.1596,-5.1544,-5.0734,-5.0263,-5.0263,-5.0263,-5.0289,-5.0263,-5.0159,-4.9897,-4.9505,-4.9348,-4.8773,-4.7806,-4.7728,-4.7466,-4.6917,-4.6678,-4.6543,-4.6543,-4.6129,-4.5825,-4.5768,-4.5336,-4.485,-4.4618,-4.4618,-4.4618,-4.4518,-4.3463,-4.2886,-4.3263,-4.3363,-4.3363,-4.3419,-4.3419,-4.3338,-4.3338,-4.3338,-4.347,-4.3363,-4.3338,-4.3394,-4.3675,-4.365,-4.3812,-4.398,-4.4117,-4.4254,-4.4335,-4.4425,-4.4591,-4.4646,-4.4785,-4.4924,-4.4822,-4.4718,-4.4694,-4.4694,-4.4694,-4.4694,-4.4694,-4.4694,-4.4694,-4.4694,-4.4694,-4.4694,-4.4668,-4.4668,-4.4539,-4.4173,-4.4068,-4.3833,-4.3337,-4.297,-4.2629,-4.2543,-4.2392,-4.2462,-6.606,-6.5433,-6.4673,-6.3353,-6.1726,-6.0969,-6.0345,-5.973,-5.9392,-5.9114,-5.8724,-5.8413,-5.7976,-5.7307,-5.6685,-5.6252,-5.595,-5.5826,-5.5585,-5.5138,-5.4367,-5.3753,-5.3388,-5.2571,-5.1996,-5.1685,-5.1659,-5.1659,-5.1596,-5.1596,-5.1596,-5.1596,-5.1596,-5.1596,-5.1596,-5.1596,-5.1596,-5.1596,-5.1492,-5.1439,-5.1439,-5.1439,-5.1439,-5.1439,-5.0943,-5.0681,-5.0551,-5.0106,-4.9531,-4.9008,-4.8904,-4.8643,-4.8068,-4.7314,-4.6881,-4.6881,-4.6077,-4.5425,-4.5221,-4.485,-4.4669,-4.4618,-4.4669,-4.4636,-4.4669,-4.4493,-4.4392,-4.4468,-4.4468,-4.4392,-4.4468,-4.4418,-4.4367,-4.4317,-4.4367,-4.4468,-4.4392,-4.4468,-4.4468,-4.4468,-4.44,-4.4526,-4.4457,-4.4687,-4.4967,-4.5036,-4.5124,-4.5181,-4.5238,-4.5489,-4.5503,-4.5171,-4.4895,-4.4746,-4.472,-4.4694,-4.4694,-4.4694,-4.4694,-4.4694,-4.4694,-4.4694,-4.4694,-4.4694,-4.4694,-4.467,-4.4643,-4.4617,-4.4408,-4.3938,-4.3651,-4.3468,-4.2782,-4.2222,-4.2176,-6.6109,-6.5411,-6.481,-6.3283,-6.1351,-6.0603,-5.9855,-5.9108,-5.8767,-5.8388,-5.8107,-5.7985,-5.7902,-5.7811,-5.7374,-5.691,-5.6393,-5.5988,-5.5546,-5.5069,-5.4233,-5.381,-5.3567,-5.2723,-5.2271,-5.2093,-5.1779,-5.1596,-5.1596,-5.1596,-5.1596,-5.1596,-5.1596,-5.1596,-5.1596,-5.1596,-5.1596,-5.1596,-5.1596,-5.1596,-5.1596,-5.1596,-5.1596,-5.157,-5.1387,-5.11,-5.0812,-5.0551,-5.0159,-4.961,-4.9557,-4.9393,-4.8919,-4.8255,-4.7825,-4.7563,-4.6754,-4.6154,-4.58,-4.5682,-4.5623,-4.5623,-4.5623,-4.5623,-4.5623,-4.5623,-4.5623,-4.5547,-4.502,-4.4618,-4.4644,-4.4618,-4.4618,-4.4618,-4.4618,-4.4618,-4.4618,-4.4618,-4.4618,-4.4618,-4.4618,-4.4618,-4.4618,-4.4734,-4.485,-4.4965,-4.5164,-4.533,-4.5336,-4.554,-4.5551,-4.5402,-4.537,-4.5233,-4.4848,-4.4694,-4.4748,-4.4748,-4.4694,-4.4694,-4.4694,-4.4694,-4.4694,-4.4694,-4.4694,-4.4694,-4.4668,-4.4722,-4.4617,-4.4304,-4.3964,-4.3572,-4.2576,-4.2308,-4.2245,-6.6218,-6.5387,-6.4585,-6.3111,-6.1279,-6.0463,-5.9626,-5.8765,-5.8281,-5.7971,-5.7688,-5.7496,-5.756,-5.7752,-5.756,-5.7186,-5.6704,-5.6165,-5.5666,-5.5173,-5.441,-5.4009,-5.3956,-5.3136,-5.2746,-5.2642,-5.2145,-5.1753,-5.1622,-5.1596,-5.1596,-5.1596,-5.1596,-5.1596,-5.1596,-5.1596,-5.1596,-5.1596,-5.1596,-5.1596,-5.1596,-5.1596,-5.1596,-5.1596,-5.1596,-5.1413,-5.1047,-5.1021,-5.0672,-5.0037,-5.0011,-4.975,-4.929,-4.8781,-4.8368,-4.8013,-4.7313,-4.6768,-4.6527,-4.6401,-4.6326,-4.6326,-4.6326,-4.6326,-4.6326,-4.6326,-4.6326,-4.6225,-4.5547,-4.5121,-4.5095,-4.507,-4.5095,-4.5095,-4.507,-4.507,-4.5095,-4.5095,-4.5121,-4.5095,-4.5196,-4.5095,-4.5095,-4.5146,-4.5171,-4.5229,-4.5322,-4.5446,-4.5446,-4.5704,-4.5827,-4.5623,-4.5885,-4.5706,-4.4999,-4.4955,-4.4903,-4.4748,-4.4694,-4.4694,-4.4694,-4.4694,-4.4694,-4.4694,-4.4694,-4.4694,-4.4694,-4.4722,-4.4722,-4.4617,-4.4251,-4.3676,-4.3023,-4.2732,-4.2361,-6.6378,-6.5353,-6.4109,-6.2965,-6.1855,-6.0602,-5.9751,-5.9027,-5.8154,-5.7715,-5.7614,-5.6979,-5.6747,-5.6812,-5.6747,-5.672,-5.6601,-5.6248,-5.5998,-5.5826,-5.5022,-5.468,-5.4628,-5.3803,-5.3347,-5.3295,-5.2746,-5.2171,-5.1675,-5.1622,-5.1596,-5.1596,-5.1596,-5.1596,-5.1596,-5.1596,-5.1596,-5.1596,-5.1596,-5.1596,-5.1596,-5.1596,-5.1596,-5.1596,-5.1596,-5.157,-5.1518,-5.1544,-5.1184,-5.0328,-5.0302,-4.9884,-4.9025,-4.8589,-4.8255,-4.7931,-4.738,-4.7104,-4.7029,-4.6677,-4.6376,-4.6351,-4.6376,-4.6326,-4.6326,-4.6326,-4.6326,-4.6301,-4.6175,-4.6125,-4.61,-4.6024,-4.61,-4.61,-4.6175,-4.615,-4.6175,-4.605,-4.6225,-4.615,-4.6075,-4.6024,-4.615,-4.625,-4.6125,-4.61,-4.6175,-4.6185,-4.6194,-4.6424,-4.64,-4.6104,-4.6108,-4.6091,-4.5313,-4.5152,-4.5109,-4.4955,-4.477,-4.4694,-4.4694,-4.4694,-4.4694,-4.4694,-4.4694,-4.4694,-4.4694,-4.4694,-4.4694,-4.4617,-4.433,-4.3807,-4.3494,-4.2813,-4.2393,-6.5932,-6.4775,-6.3837,-6.2847,-6.1931,-6.1026,-6.0114,-5.927,-5.8053,-5.7586,-5.7401,-5.6685,-5.6328,-5.6328,-5.6066,-5.6132,-5.6263,-5.5934,-5.5802,-5.571,-5.5195,-5.4984,-5.4905,-5.4249,-5.3922,-5.3818,-5.3347,-5.2772,-5.2223,-5.2171,-5.1988,-5.1648,-5.1596,-5.1596,-5.1596,-5.1596,-5.1596,-5.1596,-5.1596,-5.1596,-5.1596,-5.1596,-5.1471,-5.1283,-5.1471,-5.1596,-5.1596,-5.1408,-5.1142,-5.0809,-5.0621,-5.0292,-4.9684,-4.9039,-4.841,-4.7933,-4.7732,-4.7631,-4.7606,-4.7456,-4.7179,-4.6817,-4.6767,-4.6677,-4.6401,-4.6326,-4.6326,-4.6326,-4.6326,-4.6326,-4.6326,-4.6326,-4.6326,-4.6326,-4.6326,-4.6326,-4.6326,-4.6326,-4.6326,-4.6326,-4.6326,-4.6326,-4.6326,-4.6326,-4.6326,-4.6326,-4.6326,-4.6326,-4.6301,-4.6446,-4.638,-4.6314,-4.6417,-4.6399,-4.5719,-4.5386,-4.5174,-4.4996,-4.4869,-4.4718,-4.4694,-4.4668,-4.4668,-4.4694,-4.4694,-4.4694,-4.4694,-4.4694,-4.4694,-4.4696,-4.4382,-4.4199,-4.3991,-4.3389,-4.2866,-6.5289,-6.4123,-6.3479,-6.2699,-6.1873,-6.1121,-6.0219,-5.9342,-5.828,-5.7637,-5.7263,-5.6558,-5.612,-5.5895,-5.5604,-5.5538,-5.5736,-5.5538,-5.5432,-5.5432,-5.5232,-5.5099,-5.502,-5.468,-5.4497,-5.4393,-5.3922,-5.3347,-5.2851,-5.2798,-5.2563,-5.2223,-5.2171,-5.2067,-5.191,-5.1884,-5.1805,-5.1648,-5.1471,-5.1408,-5.1408,-5.1346,-5.1157,-5.0994,-5.1157,-5.1283,-5.1283,-5.1057,-5.0867,-5.0741,-5.055,-5.0295,-4.9886,-4.9366,-4.8862,-4.851,-4.8284,-4.8184,-4.8159,-4.8008,-4.7757,-4.7431,-4.738,-4.7205,-4.6853,-4.6828,-4.6753,-4.6652,-4.6577,-4.6527,-4.6351,-4.6326,-4.6326,-4.6326,-4.6326,-4.6326,-4.6326,-4.6326,-4.6326,-4.6326,-4.6326,-4.6326,-4.6326,-4.6326,-4.6326,-4.6326,-4.6326,-4.6326,-4.6326,-4.6326,-4.6326,-4.6301,-4.6456,-4.6424,-4.6003,-4.5693,-4.5248,-4.5025,-4.4853,-4.4733,-4.4585,-4.4585,-4.4559,-4.4694,-4.4694,-4.4694,-4.4694,-4.4694,-4.4694,-4.4694,-4.467,-4.4487,-4.4251,-4.4016,-4.352,-6.4639,-6.3498,-6.3018,-6.2459,-6.1718,-6.0874,-5.9995,-5.9345,-5.8631,-5.7892,-5.725,-5.6676,-5.6106,-5.567,-5.5325,-5.5165,-5.5165,-5.5165,-5.5165,-5.5165,-5.5099,-5.5099,-5.5072,-5.502,-5.4994,-5.4994,-5.4471,-5.3949,-5.3426,-5.34,-5.3347,-5.3347,-5.3243,-5.2929,-5.2511,-5.2395,-5.2134,-5.168,-5.1324,-5.1172,-5.1057,-5.0842,-5.0652,-5.0588,-5.0588,-5.0588,-5.0588,-5.0588,-5.0487,-5.0193,-5.0104,-4.9937,-4.9654,-4.954,-4.954,-4.9389,-4.9038,-4.8812,-4.8711,-4.8335,-4.8083,-4.7933,-4.7908,-4.7883,-4.7732,-4.7732,-4.7581,-4.723,-4.7129,-4.6954,-4.6527,-4.6426,-4.6376,-4.6326,-4.6326,-4.6326,-4.6326,-4.6326,-4.6326,-4.6326,-4.6326,-4.6326,-4.6326,-4.6326,-4.6326,-4.6326,-4.6326,-4.6326,-4.6326,-4.6326,-4.6326,-4.6326,-4.6386,-4.6345,-4.6229,-4.6036,-4.5443,-4.4991,-4.4822,-4.4656,-4.4358,-4.4313,-4.4367,-4.4422,-4.4585,-4.4585,-4.4694,-4.4694,-4.4694,-4.4694,-4.4668,-4.4668,-4.4513,-4.4278,-4.4016,-6.4302,-6.361,-6.2883,-6.2113,-6.1411,-6.0879,-6.032,-5.9786,-5.8716,-5.8096,-5.7667,-5.6589,-5.5939,-5.573,-5.5282,-5.5099,-5.5099,-5.5099,-5.5099,-5.5099,-5.5099,-5.5099,-5.5099,-5.5099,-5.5099,-5.5072,-5.4916,-5.4524,-5.4053,-5.3949,-5.3792,-5.3478,-5.3426,-5.3166,-5.2764,-5.2673,-5.2323,-5.155,-5.137,-5.1126,-5.0766,-5.0677,-5.0487,-5.0295,-5.0232,-5.0168,-4.9886,-5.0104,-5.0168,-5.0129,-4.9847,-4.9719,-4.959,-4.959,-4.959,-4.959,-4.9464,-4.9339,-4.9339,-4.9163,-4.8862,-4.8611,-4.8485,-4.8284,-4.7983,-4.7958,-4.7883,-4.7682,-4.7657,-4.7556,-4.7405,-4.7079,-4.6753,-4.6351,-4.6326,-4.6326,-4.6326,-4.6326,-4.6326,-4.6326,-4.6326,-4.6326,-4.6326,-4.6326,-4.6326,-4.6326,-4.6326,-4.6326,-4.6326,-4.6326,-4.6326,-4.6326,-4.6326,-4.6326,-4.6235,-4.6169,-4.5759,-4.5208,-4.4865,-4.4576,-4.4314,-4.4039,-4.4094,-4.4203,-4.4367,-4.4476,-4.4585,-4.4694,-4.4639,-4.4668,-4.4668,-4.4668,-4.4668,-4.4539,-4.4278,-6.437,-6.3583,-6.268,-6.1834,-6.1098,-6.066,-6.0246,-5.9734,-5.8901,-5.8332,-5.7851,-5.704,-5.6301,-5.5909,-5.5543,-5.5282,-5.5099,-5.5099,-5.5099,-5.5099,-5.5099,-5.5099,-5.5099,-5.5099,-5.5099,-5.5099,-5.5099,-5.4916,-5.455,-5.4391,-5.4143,-5.3856,-5.3673,-5.3372,-5.2968,-5.2851,-5.2528,-5.1844,-5.1637,-5.1291,-5.0793,-5.0601,-5.0307,-4.9962,-4.9937,-4.9783,-4.9654,-4.9783,-4.9912,-4.9847,-4.9719,-4.959,-4.959,-4.959,-4.959,-4.959,-4.959,-4.959,-4.959,-4.954,-4.9464,-4.9138,-4.9088,-4.8962,-4.8611,-4.8535,-4.8485,-4.8259,-4.8234,-4.8134,-4.7883,-4.7631,-4.7255,-4.6954,-4.6527,-4.6351,-4.6326,-4.6326,-4.6326,-4.6326,-4.6326,-4.6326,-4.6326,-4.6326,-4.6326,-4.6326,-4.6326,-4.6326,-4.6326,-4.6326,-4.6326,-4.6326,-4.6326,-4.6326,-4.6326,-4.62,-4.605,-4.549,-4.4984,-4.463,-4.4265,-4.3887,-4.3764,-4.3929,-4.4119,-4.4148,-4.4258,-4.4476,-4.4531,-4.4559,-4.4613,-4.4668,-4.4668,-4.4668,-4.4539,-6.4719,-6.3304,-6.2509,-6.1574,-6.0699,-6.0273,-5.9787,-5.9158,-5.8991,-5.8561,-5.7861,-5.7625,-5.7007,-5.6196,-5.5935,-5.5595,-5.5229,-5.5099,-5.5099,-5.5099,-5.5032,-5.5032,-5.5099,-5.5099,-5.5032,-5.5006,-5.5006,-5.5006,-5.4794,-5.4567,-5.4485,-5.4314,-5.4061,-5.3715,-5.3212,-5.3135,-5.2787,-5.2236,-5.1961,-5.1484,-5.0977,-5.0665,-5.0283,-4.978,-4.9755,-4.973,-4.959,-4.9654,-4.959,-4.959,-4.959,-4.959,-4.959,-4.959,-4.959,-4.959,-4.959,-4.959,-4.959,-4.959,-4.9565,-4.9515,-4.9515,-4.959,-4.9439,-4.9364,-4.9213,-4.8862,-4.8812,-4.8611,-4.8234,-4.8008,-4.7908,-4.7757,-4.7004,-4.6476,-4.6326,-4.6326,-4.6326,-4.6326,-4.6326,-4.6326,-4.6326,-4.6326,-4.6326,-4.6326,-4.6326,-4.6326,-4.6326,-4.6326,-4.6326,-4.6326,-4.6326,-4.6326,-4.6326,-4.6301,-4.615,-4.5908,-4.5238,-4.4731,-4.4162,-4.3736,-4.3462,-4.3708,-4.3844,-4.3899,-4.401,-4.4203,-4.4258,-4.4313,-4.4422,-4.4639,-4.4694,-4.4639,-4.4668,-6.4498,-6.3297,-6.2213,-6.1306,-6.0489,-5.9765,-5.9298,-5.9114,-5.8806,-5.856,-5.8209,-5.7843,-5.7573,-5.7111,-5.6275,-5.583,-5.5621,-5.5188,-5.5099,-5.5032,-5.4805,-5.4872,-5.5032,-5.5099,-5.4939,-5.4712,-5.4645,-5.4537,-5.4335,-5.42,-5.4106,-5.4106,-5.3997,-5.381,-5.3453,-5.336,-5.2945,-5.2287,-5.2077,-5.1758,-5.128,-5.1113,-5.077,-5.0268,-5.0193,-4.9992,-4.9665,-4.959,-4.959,-4.959,-4.959,-4.959,-4.959,-4.959,-4.959,-4.959,-4.959,-4.959,-4.959,-4.959,-4.959,-4.959,-4.959,-4.959,-4.959,-4.959,-4.9515,-4.9389,-4.9364,-4.9289,-4.9088,-4.8761,-4.841,-4.7908,-4.7355,-4.6803,-4.6451,-4.6326,-4.6326,-4.6326,-4.6326,-4.6326,-4.6326,-4.6326,-4.6326,-4.6326,-4.6326,-4.6326,-4.6326,-4.6326,-4.6326,-4.6326,-4.6326,-4.6326,-4.6326,-4.6326,-4.625,-4.6125,-4.5607,-4.4827,-4.4212,-4.3507,-4.3366,-4.3406,-4.3487,-4.3543,-4.3764,-4.401,-4.401,-4.3984,-4.4203,-4.4367,-4.4476,-4.4531,-4.4613,-6.4232,-6.3289,-6.203,-6.0997,-6.0164,-5.9422,-5.9017,-5.8806,-5.8594,-5.8523,-5.8444,-5.8183,-5.7895,-5.7582,-5.6582,-5.594,-5.5611,-5.493,-5.463,-5.4604,-5.4376,-5.4402,-5.4604,-5.4604,-5.4537,-5.4309,-5.4309,-5.4174,-5.3997,-5.3861,-5.3793,-5.3725,-5.3589,-5.3452,-5.3247,-5.3273,-5.2984,-5.2503,-5.2427,-5.2176,-5.1674,-5.1624,-5.1322,-5.0896,-5.077,-5.0519,-5.0017,-4.9741,-4.959,-4.959,-4.959,-4.959,-4.959,-4.959,-4.959,-4.959,-4.959,-4.959,-4.959,-4.959,-4.959,-4.959,-4.959,-4.959,-4.959,-4.959,-4.959,-4.959,-4.959,-4.959,-4.954,-4.9289,-4.8887,-4.8385,-4.8008,-4.7481,-4.6753,-4.6677,-4.6527,-4.6401,-4.6326,-4.6326,-4.6326,-4.6326,-4.6326,-4.6326,-4.6326,-4.6326,-4.6326,-4.6326,-4.6326,-4.6326,-4.6326,-4.6326,-4.6326,-4.6326,-4.6326,-4.62,-4.5623,-4.492,-4.4217,-4.3438,-4.3224,-4.3184,-4.324,-4.3295,-4.3487,-4.3653,-4.3683,-4.3738,-4.3984,-4.4148,-4.4258,-4.4367,-4.4531,-6.3939,-6.3181,-6.1942,-6.0827,-5.9913,-5.9289,-5.8814,-5.8523,-5.831,-5.831,-5.8284,-5.8355,-5.7997,-5.7642,-5.6703,-5.5995,-5.5426,-5.4637,-5.4167,-5.4022,-5.3929,-5.3929,-5.3861,-5.4064,-5.4064,-5.3929,-5.3929,-5.3861,-5.3725,-5.3521,-5.3478,-5.341,-5.3136,-5.2929,-5.2929,-5.2929,-5.2929,-5.2879,-5.276,-5.2628,-5.2251,-5.2176,-5.19,-5.1448,-5.1197,-5.0971,-5.0519,-5.0142,-4.9866,-4.9791,-4.9665,-4.9615,-4.959,-4.959,-4.959,-4.959,-4.959,-4.959,-4.959,-4.959,-4.959,-4.959,-4.959,-4.959,-4.959,-4.959,-4.959,-4.959,-4.959,-4.959,-4.959,-4.9565,-4.9339,-4.8937,-4.8812,-4.8335,-4.7581,-4.7143,-4.6928,-4.6476,-4.6376,-4.6326,-4.6326,-4.6326,-4.6326,-4.6326,-4.6326,-4.6326,-4.6326,-4.6326,-4.6326,-4.6326,-4.6326,-4.6326,-4.6326,-4.6326,-4.6326,-4.6225,-4.5547,-4.4869,-4.4267,-4.3614,-4.3187,-4.3042,-4.3098,-4.3073,-4.3129,-4.324,-4.3351,-4.3462,-4.3653,-4.3874,-4.4094,-4.4148,-4.4258,-6.3719,-6.2704,-6.1973,-6.1073,-6.0059,-5.9195,-5.8557,-5.7999,-5.7739,-5.7667,-5.7667,-5.7667,-5.759,-5.7435,-5.6772,-5.6187,-5.5501,-5.4842,-5.4321,-5.3614,-5.3614,-5.3384,-5.3316,-5.3657,-5.3793,-5.3682,-5.3614,-5.3478,-5.3204,-5.3136,-5.2998,-5.2998,-5.2998,-5.2861,-5.2861,-5.2861,-5.2861,-5.2861,-5.2861,-5.281,-5.2754,-5.2678,-5.2452,-5.195,-5.1548,-5.1272,-5.1122,-5.0996,-5.0921,-5.072,-5.0142,-4.9741,-4.9741,-4.9665,-4.9665,-4.964,-4.9615,-4.959,-4.959,-4.959,-4.959,-4.959,-4.959,-4.959,-4.959,-4.959,-4.959,-4.959,-4.959,-4.959,-4.959,-4.959,-4.9515,-4.9389,-4.9339,-4.9113,-4.846,-4.7682,-4.7205,-4.6928,-4.6602,-4.6326,-4.6326,-4.6326,-4.6326,-4.6326,-4.6326,-4.6326,-4.6326,-4.6326,-4.6326,-4.6326,-4.6326,-4.6326,-4.6326,-4.6326,-4.6326,-4.6225,-4.5598,-4.5095,-4.4493,-4.3714,-4.3288,-4.3062,-4.3042,-4.2986,-4.3017,-4.3042,-4.3129,-4.324,-4.3295,-4.3517,-4.3738,-4.3874,-4.4039,-6.3165,-6.2518,-6.1568,-6.0671,-5.9903,-5.8942,-5.8182,-5.7744,-5.7523,-5.7405,-5.7405,-5.7405,-5.7405,-5.7328,-5.6622,-5.5918,-5.5236,-5.4334,-5.3688,-5.3298,-5.3204,-5.3136,-5.2998,-5.3247,-5.341,-5.3204,-5.3204,-5.3067,-5.2929,-5.2861,-5.2929,-5.2861,-5.2861,-5.2861,-5.2861,-5.2861,-5.2861,-5.2861,-5.2861,-5.2861,-5.2861,-5.2861,-5.2829,-5.2452,-5.1975,-5.1674,-5.1649,-5.1373,-5.1297,-5.1147,-5.072,-5.0393,-5.0318,-5.0117,-4.9992,-4.9967,-4.9715,-4.9615,-4.959,-4.959,-4.959,-4.9615,-4.959,-4.959,-4.959,-4.959,-4.959,-4.959,-4.959,-4.959,-4.959,-4.959,-4.959,-4.959,-4.959,-4.9464,-4.9088,-4.841,-4.7757,-4.7506,-4.7054,-4.6803,-4.6677,-4.6527,-4.6326,-4.6326,-4.6326,-4.6326,-4.6326,-4.6326,-4.6326,-4.6326,-4.6326,-4.6326,-4.6326,-4.6326,-4.6326,-4.615,-4.5773,-4.5422,-4.5045,-4.4192,-4.3338,-4.3187,-4.3062,-4.2986,-4.2986,-4.2986,-4.2986,-4.3098,-4.3209,-4.3295,-4.3406,-4.3572,-4.3764,-6.2422,-6.2321,-6.1077,-6.0234,-5.9592,-5.8683,-5.7998,-5.7512,-5.7261,-5.7091,-5.7235,-5.7235,-5.7091,-5.6989,-5.6416,-5.569,-5.4834,-5.3841,-5.3199,-5.3023,-5.2998,-5.2929,-5.2929,-5.2929,-5.2998,-5.2861,-5.2929,-5.2929,-5.2929,-5.2861,-5.2861,-5.2861,-5.2861,-5.2861,-5.2861,-5.2861,-5.2861,-5.2861,-5.2861,-5.2861,-5.2861,-5.2861,-5.2836,-5.2779,-5.2503,-5.2226,-5.2151,-5.19,-5.1624,-5.1523,-5.1523,-5.1523,-5.1373,-5.0896,-5.0544,-5.0544,-5.0193,-5.0067,-5.0017,-4.9866,-4.9766,-4.9715,-4.9615,-4.959,-4.959,-4.959,-4.959,-4.959,-4.959,-4.959,-4.959,-4.959,-4.959,-4.959,-4.959,-4.959,-4.9515,-4.9163,-4.8636,-4.8083,-4.7581,-4.723,-4.6979,-4.6778,-4.6527,-4.6351,-4.6326,-4.6326,-4.6326,-4.6326,-4.6326,-4.6326,-4.6326,-4.6326,-4.6326,-4.6326,-4.6326,-4.62,-4.5899,-4.5698,-4.5447,-4.4644,-4.3815,-4.3313,-4.3137,-4.3062,-4.2986,-4.2986,-4.2986,-4.2986,-4.3042,-4.3129,-4.324,-4.3326,-4.3462,-6.1872,-6.1571,-6.0938,-6.0351,-5.9786,-5.885,-5.8042,-5.7461,-5.676,-5.6438,-5.6438,-5.6438,-5.6438,-5.6387,-5.6289,-5.566,-5.4703,-5.3878,-5.3281,-5.3005,-5.2861,-5.2861,-5.2861,-5.2861,-5.2861,-5.2861,-5.2861,-5.2861,-5.2861,-5.2861,-5.2861,-5.2861,-5.2861,-5.2861,-5.2861,-5.2861,-5.2861,-5.2861,-5.2861,-5.2861,-5.2861,-5.2861,-5.2861,-5.2929,-5.2754,-5.2729,-5.2754,-5.2703,-5.2653,-5.2653,-5.2653,-5.2628,-5.2377,-5.1649,-5.1247,-5.1096,-5.0946,-5.077,-5.077,-5.0494,-5.0318,-5.0167,-4.9916,-4.9665,-4.964,-4.959,-4.959,-4.959,-4.959,-4.959,-4.959,-4.959,-4.959,-4.959,-4.959,-4.959,-4.9565,-4.9439,-4.9188,-4.8661,-4.8134,-4.7682,-4.7456,-4.7129,-4.6778,-4.6527,-4.6376,-4.6351,-4.6326,-4.6326,-4.6326,-4.6326,-4.6326,-4.6326,-4.6326,-4.6326,-4.6326,-4.6326,-4.6125,-4.5949,-4.5573,-4.497,-4.4342,-4.384,-4.3313,-4.3011,-4.2986,-4.2986,-4.2986,-4.2986,-4.3042,-4.3042,-4.3073,-4.3184,-4.3129,-6.142,-6.1041,-6.0584,-6.01,-5.9489,-5.8554,-5.7848,-5.7219,-5.6543,-5.6219,-5.6219,-5.6219,-5.6219,-5.6219,-5.6219,-5.5591,-5.4662,-5.3959,-5.3432,-5.303,-5.2861,-5.2861,-5.2861,-5.2861,-5.2861,-5.2861,-5.2861,-5.2861,-5.2861,-5.2861,-5.2861,-5.2861,-5.2861,-5.2861,-5.2861,-5.2861,-5.2861,-5.2861,-5.2861,-5.2861,-5.2861,-5.2861,-5.2861,-5.2861,-5.2861,-5.2861,-5.2861,-5.2861,-5.2861,-5.2836,-5.2836,-5.2861,-5.2754,-5.2477,-5.1975,-5.1724,-5.1473,-5.1297,-5.1297,-5.0996,-5.087,-5.0795,-5.0343,-5.0067,-4.9941,-4.9816,-4.9615,-4.959,-4.959,-4.959,-4.959,-4.959,-4.959,-4.959,-4.959,-4.959,-4.959,-4.959,-4.9414,-4.9138,-4.8686,-4.8284,-4.8058,-4.7657,-4.7129,-4.6778,-4.6502,-4.6401,-4.6326,-4.6326,-4.6326,-4.6326,-4.6326,-4.6326,-4.6326,-4.6326,-4.6326,-4.6326,-4.6276,-4.6125,-4.5874,-4.5321,-4.4844,-4.4342,-4.3815,-4.3137,-4.2986,-4.2986,-4.2986,-4.2986,-4.2986,-4.3042,-4.2986,-4.2986,-4.2986,-6.0965,-6.0584,-6.0125,-5.9692,-5.9237,-5.8303,-5.765,-5.7148,-5.6495,-5.6219,-5.6219,-5.6219,-5.6219,-5.6219,-5.6093,-5.5666,-5.4712,-5.416,-5.3632,-5.3181,-5.2911,-5.2861,-5.2861,-5.2861,-5.2861,-5.2861,-5.2861,-5.2861,-5.2861,-5.2861,-5.2861,-5.2861,-5.2861,-5.2861,-5.2861,-5.2861,-5.2861,-5.2861,-5.2861,-5.2861,-5.2861,-5.2861,-5.2861,-5.2861,-5.2861,-5.2861,-5.2861,-5.2861,-5.2861,-5.2861,-5.2861,-5.2861,-5.2861,-5.2861,-5.2729,-5.2302,-5.185,-5.1674,-5.1624,-5.1473,-5.1448,-5.1423,-5.0896,-5.0619,-5.0268,-4.9916,-4.959,-4.959,-4.959,-4.959,-4.959,-4.959,-4.959,-4.959,-4.959,-4.959,-4.959,-4.959,-4.959,-4.9364,-4.9113,-4.8837,-4.851,-4.8234,-4.7707,-4.7054,-4.6753,-4.6476,-4.6426,-4.6326,-4.6326,-4.6326,-4.6326,-4.6326,-4.6326,-4.6326,-4.6326,-4.6326,-4.6326,-4.6225,-4.6024,-4.5748,-4.5271,-4.4769,-4.3915,-4.3313,-4.3162,-4.2986,-4.2986,-4.2986,-4.2986,-4.2986,-4.2986,-4.2986,-4.2986,-6.0201,-6.0125,-5.974,-5.9535,-5.9309,-5.8328,-5.7876,-5.765,-5.6646,-5.6219,-5.6219,-5.6219,-5.6219,-5.6219,-5.6219,-5.5842,-5.5239,-5.4637,-5.4059,-5.3532,-5.313,-5.2861,-5.2861,-5.2861,-5.2861,-5.2861,-5.2861,-5.2861,-5.2861,-5.2861,-5.2861,-5.2861,-5.2861,-5.2861,-5.2861,-5.2861,-5.2861,-5.2861,-5.2861,-5.2861,-5.2861,-5.2861,-5.2861,-5.2861,-5.2861,-5.2861,-5.2861,-5.2861,-5.2861,-5.2861,-5.2861,-5.2861,-5.2861,-5.2861,-5.2929,-5.2829,-5.2754,-5.2729,-5.2553,-5.2226,-5.2,-5.1925,-5.1473,-5.0971,-5.0469,-5.0017,-4.969,-4.959,-4.959,-4.959,-4.959,-4.959,-4.959,-4.959,-4.959,-4.959,-4.959,-4.959,-4.959,-4.959,-4.9339,-4.9113,-4.8837,-4.8611,-4.8284,-4.7606,-4.6968,-4.6753,-4.6502,-4.6426,-4.6326,-4.6326,-4.6326,-4.6326,-4.6326,-4.6326,-4.6326,-4.6326,-4.6326,-4.6301,-4.6175,-4.5974,-4.5673,-4.507,-4.4217,-4.3539,-4.3288,-4.3137,-4.3037,-4.2986,-4.2986,-4.2986,-4.2986,-4.2986,-4.2986,-5.9714,-5.9714,-5.956,-5.9508,-5.9357,-5.8353,-5.7901,-5.7675,-5.6721,-5.6219,-5.6219,-5.6219,-5.6219,-5.6219,-5.6219,-5.5892,-5.5365,-5.4813,-5.4235,-5.3708,-5.3231,-5.2861,-5.2861,-5.2861,-5.2861,-5.2861,-5.2861,-5.2861,-5.2861,-5.2861,-5.2861,-5.2861,-5.2861,-5.2861,-5.2861,-5.2861,-5.2861,-5.2861,-5.2861,-5.2861,-5.2861,-5.2861,-5.2861,-5.2861,-5.2861,-5.2861,-5.2861,-5.2861,-5.2861,-5.2861,-5.2861,-5.2861,-5.2861,-5.2861,-5.2861,-5.2861,-5.2836,-5.2836,-5.2785,-5.2678,-5.2578,-5.2427,-5.2,-5.1373,-5.0645,-5.0193,-4.9866,-4.9615,-4.959,-4.959,-4.959,-4.959,-4.959,-4.959,-4.959,-4.959,-4.959,-4.959,-4.959,-4.959,-4.959,-4.9364,-4.9138,-4.8887,-4.8636,-4.8209,-4.7556,-4.7079,-4.6778,-4.6527,-4.6401,-4.6326,-4.6326,-4.6326,-4.6326,-4.6326,-4.6326,-4.6326,-4.6326,-4.6301,-4.6276,-4.61,-4.5849,-4.5447,-4.4719,-4.4116,-4.3564,-4.3187,-4.3011,-4.2986,-4.2986,-4.2986,-4.2986,-4.2986,-4.2986,-5.9508,-5.9508,-5.9508,-5.9508,-5.9382,-5.8353,-5.7901,-5.775,-5.6696,-5.6219,-5.6219,-5.6219,-5.6219,-5.6219,-5.6194,-5.5993,-5.5591,-5.4888,-5.4361,-5.3833,-5.3306,-5.2886,-5.2861,-5.2861,-5.2861,-5.2861,-5.2861,-5.2861,-5.2861,-5.2861,-5.2861,-5.2861,-5.2861,-5.2861,-5.2861,-5.2861,-5.2861,-5.2861,-5.2861,-5.2861,-5.2861,-5.2861,-5.2861,-5.2861,-5.2861,-5.2861,-5.2861,-5.2861,-5.2861,-5.2861,-5.2861,-5.2861,-5.2861,-5.2861,-5.2861,-5.2861,-5.2861,-5.2861,-5.2861,-5.281,-5.2861,-5.2754,-5.2427,-5.1724,-5.1096,-5.067,-5.0318,-4.9891,-4.964,-4.9615,-4.959,-4.959,-4.959,-4.959,-4.959,-4.959,-4.959,-4.959,-4.959,-4.959,-4.959,-4.959,-4.9389,-4.9163,-4.8937,-4.8686,-4.8159,-4.7506,-4.7079,-4.6753,-4.6527,-4.6426,-4.6326,-4.6326,-4.6326,-4.6326,-4.6326,-4.6326,-4.6326,-4.6301,-4.6301,-4.625,-4.61,-4.5648,-4.5146,-4.4669,-4.4116,-4.3539,-4.2986,-4.2986,-4.2986,-4.2986,-4.2986,-4.2986,-4.2986,-5.9508,-5.9508,-5.9508,-5.9508,-5.9408,-5.8353,-5.7901,-5.7801,-5.6696,-5.6219,-5.6219,-5.6219,-5.6219,-5.6219,-5.6219,-5.6168,-5.6068,-5.5039,-5.4612,-5.4135,-5.3507,-5.3055,-5.2955,-5.2861,-5.2861,-5.2861,-5.2861,-5.2861,-5.2861,-5.2861,-5.2861,-5.2861,-5.2861,-5.2861,-5.2861,-5.2861,-5.2861,-5.2861,-5.2861,-5.2861,-5.2861,-5.2861,-5.2861,-5.2861,-5.2861,-5.2861,-5.2861,-5.2861,-5.2861,-5.2861,-5.2861,-5.2861,-5.2861,-5.2861,-5.2861,-5.2861,-5.2861,-5.2861,-5.2861,-5.2861,-5.2861,-5.2779,-5.2477,-5.2101,-5.1699,-5.0896,-5.0494,-5.0293,-4.9941,-4.9665,-4.964,-4.959,-4.959,-4.959,-4.959,-4.959,-4.959,-4.959,-4.959,-4.959,-4.959,-4.959,-4.959,-4.9389,-4.9238,-4.9012,-4.8661,-4.8008,-4.7405,-4.7029,-4.6753,-4.6552,-4.6376,-4.6326,-4.6326,-4.6326,-4.6326,-4.6326,-4.6326,-4.6326,-4.6301,-4.6276,-4.625,-4.6024,-4.5573,-4.5121,-4.4618,-4.3865,-4.3313,-4.3087,-4.2986,-4.2986,-4.2986,-4.2986,-4.2986,-5.9508,-5.9508,-5.9508,-5.9508,-5.9408,-5.8353,-5.7901,-5.77,-5.6721,-5.6219,-5.6219,-5.6219,-5.6219,-5.6219,-5.6219,-5.6219,-5.6118,-5.5465,-5.4938,-5.4411,-5.3808,-5.3281,-5.308,-5.2861,-5.2861,-5.2861,-5.2861,-5.2861,-5.2861,-5.2861,-5.2861,-5.2861,-5.2861,-5.2861,-5.2861,-5.2861,-5.2861,-5.2861,-5.2861,-5.2861,-5.2861,-5.2861,-5.2861,-5.2861,-5.2861,-5.2861,-5.2861,-5.2861,-5.2861,-5.2861,-5.2861,-5.2861,-5.2861,-5.2861,-5.2861,-5.2861,-5.2861,-5.2861,-5.2861,-5.2861,-5.2861,-5.2904,-5.2703,-5.2477,-5.2201,-5.1624,-5.1021,-5.0645,-5.0218,-4.9967,-4.9615,-4.959,-4.959,-4.959,-4.959,-4.959,-4.959,-4.959,-4.959,-4.959,-4.959,-4.959,-4.959,-4.9565,-4.9464,-4.9314,-4.8937,-4.8535,-4.7933,-4.7405,-4.7129,-4.6803,-4.6577,-4.6351,-4.6326,-4.6326,-4.6326,-4.6326,-4.6326,-4.6326,-4.6326,-4.6301,-4.625,-4.6125,-4.5949,-4.5472,-4.4869,-4.4116,-4.3589,-4.3263,-4.3087,-4.2986,-4.2986,-4.2986,-4.2986,-5.9508,-5.9508,-5.9508,-5.9508,-5.9357,-5.8353,-5.7901,-5.77,-5.6696,-5.6219,-5.6219,-5.6219,-5.6219,-5.6219,-5.6219,-5.6219,-5.6068,-5.5616,-5.5064,-5.4511,-5.3959,-5.3432,-5.3105,-5.2861,-5.2861,-5.2861,-5.2861,-5.2861,-5.2861,-5.2861,-5.2861,-5.2861,-5.2861,-5.2861,-5.2861,-5.2861,-5.2861,-5.2861,-5.2861,-5.2861,-5.2861,-5.2861,-5.2861,-5.2861,-5.2861,-5.2861,-5.2861,-5.2861,-5.2861,-5.2861,-5.2861,-5.2861,-5.2861,-5.2861,-5.2861,-5.2861,-5.2861,-5.2861,-5.2861,-5.2861,-5.2861,-5.2836,-5.2836,-5.2678,-5.2452,-5.2201,-5.1548,-5.087,-5.0544,-5.0218,-4.9715,-4.959,-4.959,-4.959,-4.959,-4.959,-4.959,-4.959,-4.959,-4.959,-4.959,-4.959,-4.959,-4.959,-4.9565,-4.949,-4.9339,-4.8937,-4.841,-4.7933,-4.7581,-4.7205,-4.6828,-4.6577,-4.6351,-4.6326,-4.6326,-4.6326,-4.6326,-4.6326,-4.6326,-4.6326,-4.6301,-4.6225,-4.6024,-4.5723,-4.5271,-4.4719,-4.4041,-4.3388,-4.3187,-4.2986,-4.2986,-4.2986,-4.2986,-5.9508,-5.9508,-5.9508,-5.9508,-5.9357,-5.8353,-5.7901,-5.775,-5.6721,-5.6219,-5.6219,-5.6219,-5.6219,-5.6219,-5.6219,-5.6219,-5.6118,-5.5691,-5.5189,-5.4662,-5.4135,-5.3507,-5.313,-5.2911,-5.2861,-5.2861,-5.2861,-5.2861,-5.2861,-5.2861,-5.2861,-5.2861,-5.2861,-5.2861,-5.2861,-5.2861,-5.2861,-5.2861,-5.2861,-5.2861,-5.2861,-5.2861,-5.2861,-5.2861,-5.2861,-5.2861,-5.2861,-5.2861,-5.2861,-5.2861,-5.2861,-5.2861,-5.2861,-5.2861,-5.2861,-5.2861,-5.2861,-5.2861,-5.2861,-5.2861,-5.2861,-5.2861,-5.2861,-5.2785,-5.2754,-5.2452,-5.1975,-5.1322,-5.0845,-5.0293,-4.9891,-4.9615,-4.9615,-4.959,-4.959,-4.959,-4.959,-4.959,-4.959,-4.959,-4.959,-4.959,-4.959,-4.959,-4.959,-4.959,-4.959,-4.9289,-4.8837,-4.8435,-4.8058,-4.7682,-4.7255,-4.6853,-4.6602,-4.6376,-4.6326,-4.6326,-4.6326,-4.6326,-4.6326,-4.6326,-4.6301,-4.6301,-4.62,-4.5974,-4.5723,-4.5397,-4.4518,-4.3664,-4.3187,-4.2986,-4.2986,-4.2986,-4.2986,-5.9508,-5.9508,-5.9508,-5.9508,-5.9332,-5.8353,-5.7901,-5.77,-5.6771,-5.6219,-5.6219,-5.6219,-5.6219,-5.6219,-5.6219,-5.6219,-5.6168,-5.6118,-5.5641,-5.5064,-5.4486,-5.3984,-5.3507,-5.308,-5.2861,-5.2861,-5.2861,-5.2861,-5.2861,-5.2861,-5.2861,-5.2861,-5.2861,-5.2861,-5.2861,-5.2861,-5.2861,-5.2861,-5.2861,-5.2861,-5.2861,-5.2861,-5.2861,-5.2861,-5.2861,-5.2861,-5.2861,-5.2861,-5.2861,-5.2861,-5.2861,-5.2861,-5.2861,-5.2861,-5.2861,-5.2861,-5.2861,-5.2861,-5.2861,-5.2861,-5.2861,-5.2861,-5.2861,-5.2861,-5.281,-5.2804,-5.2352,-5.185,-5.1297,-5.0745,-5.0293,-4.9791,-4.964,-4.9615,-4.959,-4.959,-4.959,-4.959,-4.959,-4.959,-4.959,-4.959,-4.959,-4.959,-4.959,-4.959,-4.959,-4.959,-4.9238,-4.8862,-4.8485,-4.8159,-4.7757,-4.7255,-4.6878,-4.6677,-4.6476,-4.6451,-4.6376,-4.6326,-4.6326,-4.6326,-4.6301,-4.6301,-4.6276,-4.625,-4.5949,-4.5547,-4.4694,-4.394,-4.3489,-4.3087,-4.2986,-4.2986,-4.2986,-5.9508,-5.9508,-5.9508,-5.9508,-5.9332,-5.8353,-5.7725,-5.7248,-5.652,-5.6219,-5.6219,-5.6219,-5.6219,-5.6219,-5.6219,-5.6219,-5.6219,-5.6194,-5.5917,-5.5365,-5.4813,-5.421,-5.3658,-5.3231,-5.2911,-5.2861,-5.2861,-5.2861,-5.2861,-5.2861,-5.2861,-5.2861,-5.2861,-5.2861,-5.2861,-5.2861,-5.2861,-5.2861,-5.2861,-5.2861,-5.2861,-5.2861,-5.2861,-5.2861,-5.2861,-5.2861,-5.2861,-5.2861,-5.2861,-5.2861,-5.2861,-5.2861,-5.2861,-5.2861,-5.2861,-5.2861,-5.2861,-5.2861,-5.2861,-5.2861,-5.2861,-5.2861,-5.2861,-5.2861,-5.2861,-5.281,-5.2578,-5.2151,-5.1749,-5.1147,-5.0544,-4.9992,-4.9791,-4.9766,-4.959,-4.959,-4.959,-4.959,-4.959,-4.959,-4.959,-4.959,-4.959,-4.959,-4.959,-4.959,-4.959,-4.959,-4.959,-4.9264,-4.8912,-4.8586,-4.8284,-4.7857,-4.738,-4.6979,-4.6778,-4.6627,-4.6502,-4.6401,-4.6326,-4.6326,-4.6326,-4.6301,-4.6301,-4.625,-4.61,-4.5623,-4.492,-4.4292,-4.3765,-4.3388,-4.3062,-4.2986,-4.2986,-5.9508,-5.9508,-5.9508,-5.9483,-5.9282,-5.8252,-5.7248,-5.6269,-5.6219,-5.6219,-5.6219,-5.6219,-5.6219,-5.6219,-5.6219,-5.6219,-5.6219,-5.6219,-5.5917,-5.5465,-5.4988,-5.4386,-5.3833,-5.3306,-5.308,-5.2886,-5.2861,-5.2861,-5.2861,-5.2861,-5.2861,-5.2861,-5.2861,-5.2861,-5.2861,-5.2861,-5.2861,-5.2861,-5.2861,-5.2861,-5.2861,-5.2861,-5.2861,-5.2861,-5.2861,-5.2861,-5.2861,-5.2861,-5.2861,-5.2861,-5.2861,-5.2861,-5.2861,-5.2861,-5.2861,-5.2861,-5.2861,-5.2861,-5.2861,-5.2861,-5.2861,-5.2861,-5.2861,-5.2861,-5.2861,-5.2861,-5.2703,-5.2402,-5.2026,-5.1348,-5.0695,-5.0368,-5.0092,-4.9891,-4.964,-4.959,-4.959,-4.959,-4.959,-4.959,-4.959,-4.959,-4.959,-4.959,-4.959,-4.959,-4.959,-4.959,-4.959,-4.959,-4.9264,-4.8962,-4.8686,-4.846,-4.8008,-4.7506,-4.7079,-4.6903,-4.6652,-4.6527,-4.6426,-4.6326,-4.6326,-4.6326,-4.6326,-4.625,-4.6175,-4.5824,-4.5296,-4.4694,-4.4116,-4.3489,-4.3087,-4.3011,-4.2986,-5.9508,-5.9508,-5.9508,-5.9282,-5.8805,-5.7775,-5.6846,-5.6269,-5.6219,-5.6219,-5.6219,-5.6219,-5.6219,-5.6219,-5.6219,-5.6219,-5.6219,-5.6194,-5.6143,-5.5767,-5.5315,-5.4838,-5.4285,-5.3733,-5.3331,-5.3055,-5.2955,-5.2861,-5.2861,-5.2861,-5.2861,-5.2861,-5.2861,-5.2861,-5.2861,-5.2861,-5.2861,-5.2861,-5.2861,-5.2861,-5.2861,-5.2861,-5.2861,-5.2861,-5.2861,-5.2861,-5.2861,-5.2861,-5.2861,-5.2861,-5.2861,-5.2861,-5.2861,-5.2861,-5.2861,-5.2861,-5.2861,-5.2861,-5.2861,-5.2861,-5.2861,-5.2861,-5.2861,-5.2861,-5.2861,-5.2836,-5.2829,-5.2603,-5.2327,-5.1724,-5.1147,-5.077,-5.0343,-4.9941,-4.9715,-4.959,-4.959,-4.959,-4.959,-4.959,-4.959,-4.959,-4.959,-4.959,-4.959,-4.959,-4.959,-4.959,-4.959,-4.959,-4.954,-4.9264,-4.9063,-4.8812,-4.851,-4.8058,-4.7581,-4.7118,-4.6928,-4.6652,-4.6401,-4.6326,-4.6326,-4.6326,-4.6326,-4.6326,-4.6301,-4.5899,-4.5522,-4.507,-4.4493,-4.3765,-4.3187,-4.3087,-4.2986,-5.9508,-5.9508,-5.9508,-5.9081,-5.8303,-5.7424,-5.6721,-5.6269,-5.6219,-5.6219,-5.6219,-5.6219,-5.6219,-5.6219,-5.6219,-5.6219,-5.6219,-5.6219,-5.6168,-5.6043,-5.5666,-5.5265,-5.4737,-5.4135,-5.3582,-5.3256,-5.303,-5.2861,-5.2861,-5.2861,-5.2861,-5.2861,-5.2861,-5.2861,-5.2861,-5.2861,-5.2861,-5.2861,-5.2861,-5.2861,-5.2861,-5.2861,-5.2861,-5.2861,-5.2861,-5.2861,-5.2861,-5.2861,-5.2861,-5.2861,-5.2861,-5.2861,-5.2861,-5.2861,-5.2861,-5.2861,-5.2861,-5.2861,-5.2861,-5.2861,-5.2861,-5.2861,-5.2861,-5.2861,-5.2861,-5.2836,-5.2836,-5.2735,-5.2553,-5.2201,-5.1649,-5.1096,-5.0544,-5.0017,-4.9816,-4.9615,-4.959,-4.959,-4.959,-4.959,-4.959,-4.959,-4.959,-4.959,-4.959,-4.959,-4.959,-4.959,-4.959,-4.959,-4.959,-4.9464,-4.9314,-4.9138,-4.8862,-4.8586,-4.8109,-4.7631,-4.7118,-4.6878,-4.6527,-4.6326,-4.6326,-4.6326,-4.6326,-4.6326,-4.6301,-4.6125,-4.5773,-4.5321,-4.4869,-4.4166,-4.3539,-4.3137,-4.3062,-5.9508,-5.9483,-5.9408,-5.873,-5.7826,-5.7173,-5.6646,-5.6244,-5.6219,-5.6219,-5.6219,-5.6219,-5.6219,-5.6219,-5.6219,-5.6219,-5.6219,-5.6219,-5.6219,-5.6194,-5.5817,-5.5465,-5.5039,-5.4411,-5.3959,-5.3607,-5.3306,-5.308,-5.2886,-5.2861,-5.2861,-5.2861,-5.2861,-5.2861,-5.2861,-5.2861,-5.2861,-5.2861,-5.2861,-5.2861,-5.2861,-5.2861,-5.2861,-5.2861,-5.2861,-5.2861,-5.2861,-5.2861,-5.2861,-5.2861,-5.2861,-5.2861,-5.2861,-5.2861,-5.2861,-5.2861,-5.2861,-5.2861,-5.2861,-5.2861,-5.2861,-5.2861,-5.2861,-5.2861,-5.2861,-5.2861,-5.2861,-5.2861,-5.2703,-5.2427,-5.1925,-5.1548,-5.1071,-5.0444,-5.0042,-4.9791,-4.9615,-4.9615,-4.959,-4.959,-4.959,-4.959,-4.959,-4.959,-4.959,-4.959,-4.959,-4.959,-4.959,-4.959,-4.959,-4.959,-4.949,-4.9364,-4.9314,-4.9012,-4.8611,-4.8134,-4.7606,-4.7104,-4.6753,-4.6502,-4.6326,-4.6326,-4.6326,-4.6326,-4.6276,-4.615,-4.5999,-4.5698,-4.5196,-4.4568,-4.4016,-4.3463,-4.3137,-5.9508,-5.9408,-5.8604,-5.7876,-5.7198,-5.6646,-5.6344,-5.6219,-5.6219,-5.6219,-5.6219,-5.6219,-5.6219,-5.6219,-5.6219,-5.6219,-5.6219,-5.6219,-5.6219,-5.6219,-5.5993,-5.5742,-5.5465,-5.5013,-5.4486,-5.3884,-5.3507,-5.3281,-5.3005,-5.2861,-5.2861,-5.2861,-5.2861,-5.2861,-5.2861,-5.2861,-5.2861,-5.2861,-5.2861,-5.2861,-5.2861,-5.2861,-5.2861,-5.2861,-5.2861,-5.2861,-5.2861,-5.2861,-5.2861,-5.2861,-5.2861,-5.2861,-5.2861,-5.2861,-5.2861,-5.2861,-5.2861,-5.2861,-5.2861,-5.2861,-5.2861,-5.2861,-5.2861,-5.2861,-5.2861,-5.2861,-5.2861,-5.2861,-5.276,-5.2528,-5.2251,-5.195,-5.1574,-5.0946,-5.0318,-5.0017,-4.969,-4.964,-4.9615,-4.959,-4.959,-4.959,-4.959,-4.959,-4.959,-4.959,-4.959,-4.959,-4.959,-4.959,-4.959,-4.959,-4.959,-4.954,-4.954,-4.9389,-4.8962,-4.856,-4.8083,-4.7556,-4.7004,-4.6602,-4.6326,-4.6326,-4.6326,-4.6326,-4.6326,-4.6301,-4.6125,-4.5924,-4.5522,-4.492,-4.4418,-4.389,-4.3463,-5.9508,-5.9357,-5.8353,-5.7575,-5.6997,-5.6445,-5.6219,-5.6219,-5.6219,-5.6219,-5.6219,-5.6219,-5.6219,-5.6219,-5.6219,-5.6219,-5.6219,-5.6219,-5.6219,-5.6219,-5.6194,-5.6043,-5.5792,-5.5516,-5.5114,-5.4486,-5.3858,-5.3457,-5.3055,-5.2861,-5.2861,-5.2861,-5.2861,-5.2861,-5.2861,-5.2861,-5.2861,-5.2861,-5.2861,-5.2861,-5.2861,-5.2861,-5.2861,-5.2861,-5.2861,-5.2861,-5.2861,-5.2861,-5.2861,-5.2861,-5.2861,-5.2861,-5.2861,-5.2861,-5.2861,-5.2861,-5.2861,-5.2861,-5.2861,-5.2861,-5.2861,-5.2861,-5.2861,-5.2861,-5.2861,-5.2861,-5.2861,-5.2861,-5.2861,-5.2678,-5.2528,-5.2251,-5.1975,-5.1473,-5.0971,-5.0594,-5.0142,-4.9791,-4.9715,-4.959,-4.959,-4.959,-4.959,-4.959,-4.959,-4.959,-4.959,-4.959,-4.959,-4.959,-4.959,-4.959,-4.959,-4.959,-4.9565,-4.949,-4.9264,-4.8887,-4.8485,-4.7857,-4.723,-4.6677,-4.6326,-4.6326,-4.6326,-4.6326,-4.6326,-4.6326,-4.6326,-4.6175,-4.5748,-4.5271,-4.4769,-4.4217,-4.3664,-5.9408,-5.9156,-5.8278,-5.7524,-5.6922,-5.642,-5.6219,-5.6219,-5.6219,-5.6219,-5.6219,-5.6219,-5.6219,-5.6219,-5.6219,-5.6219,-5.6219,-5.6219,-5.6219,-5.6219,-5.6219,-5.6143,-5.5993,-5.5742,-5.544,-5.4913,-5.421,-5.3632,-5.313,-5.2961,-5.2861,-5.2861,-5.2861,-5.2861,-5.2861,-5.2861,-5.2861,-5.2861,-5.2861,-5.2861,-5.2861,-5.2861,-5.2861,-5.2861,-5.2861,-5.2861,-5.2861,-5.2861,-5.2861,-5.2861,-5.2861,-5.2861,-5.2861,-5.2861,-5.2861,-5.2861,-5.2861,-5.2861,-5.2861,-5.2861,-5.2861,-5.2861,-5.2861,-5.2861,-5.2861,-5.2861,-5.2861,-5.2861,-5.2861,-5.281,-5.2729,-5.2578,-5.2302,-5.195,-5.1498,-5.1122,-5.0594,-5.0067,-4.9891,-4.9741,-4.969,-4.969,-4.9615,-4.9615,-4.9615,-4.9615,-4.959,-4.959,-4.959,-4.959,-4.959,-4.959,-4.959,-4.959,-4.959,-4.954,-4.9414,-4.9163,-4.8736,-4.8083,-4.7431,-4.6778,-4.6351,-4.6326,-4.6326,-4.6326,-4.6326,-4.6326,-4.6326,-4.6326,-4.6075,-4.5598,-4.4819,-4.4267,-4.3714,-5.8981,-5.8202,-5.7976,-5.7323,-5.6445,-5.6244,-5.6219,-5.6219,-5.6219,-5.6219,-5.6219,-5.6219,-5.6219,-5.6219,-5.6219,-5.6219,-5.6219,-5.6219,-5.6219,-5.6219,-5.6219,-5.6219,-5.6168,-5.5993,-5.5767,-5.5164,-5.4436,-5.3783,-5.3381,-5.3105,-5.2861,-5.2861,-5.2861,-5.2861,-5.2861,-5.2861,-5.2861,-5.2861,-5.2861,-5.2861,-5.2861,-5.2861,-5.2861,-5.2861,-5.2861,-5.2861,-5.2861,-5.2861,-5.2861,-5.2861,-5.2861,-5.2861,-5.2861,-5.2861,-5.2861,-5.2861,-5.2861,-5.2861,-5.2861,-5.2861,-5.2861,-5.2861,-5.2861,-5.2861,-5.2861,-5.2861,-5.2861,-5.2861,-5.2861,-5.2861,-5.2829,-5.2829,-5.2628,-5.2151,-5.1699,-5.1448,-5.1071,-5.0645,-5.0318,-5.0142,-4.9992,-4.9891,-4.9715,-4.969,-4.9665,-4.964,-4.959,-4.959,-4.959,-4.959,-4.959,-4.959,-4.959,-4.959,-4.959,-4.959,-4.949,-4.9289,-4.8962,-4.8284,-4.7556,-4.6753,-4.6426,-4.6351,-4.6326,-4.6326,-4.6326,-4.6326,-4.6326,-4.6301,-4.6301,-4.5924,-4.5095,-4.4418,-4.394]},{"header":{"parameterUnit":"m.s-1","parameterCategory":1,"la1":31.0,"la2":29.5877,"lo1":-88.7671,"lo2":-86.6584,"dy":0.0162,"dx":0.0185,"nx":115,"ny":88,"refTime":"2024-04-23T00:00:00:Z","depth":0,"parameterNumber":3,"parameterNumberName":"V-component_of_WINDS"},"data":[0.0,0.0,0.0,0.0,0.0,0.0,0.0,0.0,0.0,0.0,0.0,0.0,0.0,0.0,0.0,0.0,0.0,0.0,0.0,0.0,0.0,0.0,0.0,0.0,0.0,0.0,0.0,0.0,0.0,0.0,0.0,0.0,0.0,0.0,0.0,0.0,0.0,0.0,0.0,0.0,0.0,0.0,0.0,0.0,0.0,0.0,0.0,0.0,0.0,0.0,0.0,0.0,0.0,0.0,0.0,0.0,0.0,0.0,0.0,0.0,0.0,0.0,0.0,0.0,0.0,0.0,0.0,0.0,0.0,0.0,0.0,0.0,0.0,0.0,0.0,0.0,0.0,0.0,0.0,0.0,0.0,0.0,0.0,0.0,0.0,0.0,0.0,0.0,0.0,0.0,0.0,0.0,0.0,0.0,0.0,0.0,0.0,0.0,0.0,0.0,0.0,0.0,0.0,0.0,0.0,0.0,0.0,0.0,0.0,0.0,0.0,0.0,0.0,0.0,0.0,0.0,0.0,0.0,0.0,0.0,0.0,0.0,0.0,0.0,0.0,0.0,0.0,0.0,0.0,0.0,0.0,0.0,0.0,0.0,0.0,0.0,0.0,0.0,0.0,0.0,0.0,0.0,0.0,0.0,0.0,0.0,0.0,0.0,0.0,0.0,0.0,0.0,0.0,0.0,0.0,0.0,0.0,0.0,0.0,0.0,0.0,0.0,0.0,0.0,0.0,0.0,0.0,0.0,0.0,0.0,0.0,0.0,0.0,0.0,0.0,0.0,0.0,0.0,0.0,0.0,0.0,0.0,0.0,0.0,0.0,0.0,0.0,0.0,0.0,0.0,0.0,0.0,0.0,0.0,0.0,0.0,0.0,0.0,0.0,0.0,0.0,0.0,0.0,0.0,0.0,0.0,0.0,0.0,0.0,0.0,0.0,0.0,0.0,0.0,0.0,0.0,0.0,0.0,0.0,0.0,0.0,0.0,0.0,0.0,0.0,0.0,0.0,0.0,0.0,0.0,0.0,0.0,0.0,0.0,0.0,0.0,0.0,0.0,0.0,0.0,0.0,0.0,0.0,0.0,0.0,0.0,0.0,0.0,0.0,0.0,0.0,0.0,0.0,0.0,0.0,0.0,0.0,0.0,0.0,0.0,0.0,0.0,0.0,0.0,0.0,0.0,0.0,0.0,0.0,0.0,0.0,0.0,0.0,0.0,0.0,0.0,0.0,0.0,0.0,0.0,0.0,0.0,0.0,0.0,0.0,0.0,0.0,0.0,0.0,0.0,0.0,0.0,0.0,0.0,0.0,0.0,0.0,0.0,0.0,0.0,0.0,0.0,0.0,0.0,0.0,0.0,0.0,0.0,0.0,0.0,0.0,0.0,0.0,0.0,0.0,0.0,0.0,0.0,0.0,0.0,0.0,0.0,0.0,0.0,0.0,0.0,0.0,0.0,0.0,0.0,0.0,0.0,0.0,0.0,0.0,0.0,0.0,0.0,0.0,0.0,0.0,0.0,0.0,0.0,0.0,0.0,0.0,0.0,0.0,0.0,0.0,0.0,0.0,0.0,0.0,0.0,0.0,0.0,0.0,0.0,0.0,0.0,0.0,0.0,0.0,0.0,0.0,0.0,0.0,0.0,0.0,0.0,0.0,0.0,0.0,0.0,0.0,0.0,0.0,0.0,0.0,0.0,0.0,0.0,0.0,0.0,0.0,0.0,0.0,0.0,0.0,0.0,0.0,0.0,0.0,0.0,0.0,0.0,0.0,0.0,0.0,0.0,0.0,0.0,0.0,0.0,0.0,0.0,0.0,0.0,0.0,0.0,0.0,0.0,0.0,0.0,0.0,0.0,0.0,0.0,0.0,0.0,0.0,0.0,0.0,0.0,0.0,0.0,0.0,0.0,0.0,0.0,0.0,0.0,0.0,0.0,0.0,0.0,0.0,0.0,0.0,0.0,0.0,0.0,0.0,0.0,0.0,0.0,0.0,0.0,0.0,0.0,0.0,0.0,0.0,0.0,0.0,0.0,0.0,0.0,0.0,0.0,0.0,0.0,0.0,0.0,0.0,0.0,0.0,0.0,0.0,0.0,0.0,0.0,0.0,0.0,0.0,0.0,0.0,0.0,0.0,0.0,0.0,0.0,0.0,0.0,0.0,0.0,0.0,0.0,0.0,0.0,0.0,0.0,0.0,0.0,0.0,0.0,0.0,0.0,0.0,0.0,0.0,0.0,0.0,0.0,0.0,0.0,0.0,0.0,0.0,0.0,0.0,0.0,0.0,0.0,0.0,0.0,0.0,0.0,0.0,0.0,0.0,0.0,0.0,0.0,0.0,0.0,0.0,0.0,0.0,0.0,0.0,0.0,0.0,0.0,0.0,0.0,0.0,0.0,0.0,0.0,0.0,0.0,0.0,0.0,0.0,0.0,0.0,0.0,0.0,0.0,0.0,0.0,0.0,0.0,0.0,0.0,0.0,0.0,0.0,0.0,0.0,0.0,0.0,0.0,0.0,0.0,0.0,0.0,0.0,0.0,0.0,0.0,0.0,0.0,0.0,0.0,0.0,0.0,0.0,0.0,0.0,0.0,0.0,0.0,0.0,0.0,0.0,0.0,0.0,0.0,0.0,0.0,0.0,0.0,0.0,0.0,0.0,0.0,0.0,0.0,0.0,0.0,0.0,0.0,0.0,0.0,0.0,0.0,0.0,0.0,0.0,0.0,0.0,0.0,0.0,0.0,0.0,0.0,0.0,0.0,0.0,0.0,0.0,0.0,0.0,0.0,0.0,0.0,0.0,0.0,0.0,0.0,0.0,0.0,0.0,0.0,0.0,0.0,0.0,0.0,0.0,0.0,0.0,0.0,0.0,0.0,0.0,0.0,0.0,0.0,0.0,0.0,0.0,0.0,0.0,0.0,0.0,0.0,0.0,0.0,0.0,0.0,0.0,0.0,0.0,0.0,0.0,0.0,0.0,0.0,0.0,0.0,0.0,0.0,0.0,0.0,0.0,0.0,0.0,0.0,0.0,0.0,0.0,0.0,0.0,0.0,0.0,0.0,0.0,0.0,0.0,0.0,0.0,0.0,0.0,0.0,0.0,0.0,0.0,0.0,0.0,0.0,0.0,0.0,0.0,0.0,0.0,0.0,0.0,0.0,0.0,0.0,0.0,0.0,0.0,0.0,0.0,0.0,0.0,0.0,0.0,0.0,0.0,0.0,0.0,0.0,0.0,0.0,0.0,0.0,0.0,0.0,0.0,0.0,0.0,0.0,0.0,0.0,0.0,0.0,0.0,0.0,0.0,0.0,0.0,0.0,0.0,0.0,0.0,0.0,0.0,0.0,0.0,0.0,0.0,0.0,0.0,0.0,0.0,0.0,0.0,0.0,0.0,0.0,0.0,0.0,0.0,0.0,0.0,0.0,0.0,0.0,0.0,0.0,0.0,0.0,0.0,0.0,0.0,0.0,0.0,0.0,0.0,0.0,0.0,0.0,0.0,0.0,0.0,0.0,0.0,0.0,0.0,0.0,0.0,0.0,0.0,0.0,0.0,0.0,0.0,0.0,0.0,0.0,0.0,0.0,0.0,0.0,0.0,0.0,0.0,0.0,0.0,0.0,0.0,0.0,0.0,0.0,0.0,0.0,0.0,0.0,0.0,0.0,0.0,0.0,0.0,0.0,0.0,0.0,0.0,0.0,0.0,0.0,0.0,0.0,0.0,0.0,0.0,0.0,0.0,0.0,0.0,0.0,0.0,0.0,0.0,0.0,0.0,0.0,0.0,0.0,0.0,0.0,0.0,0.0,0.0,0.0,0.0,0.0,0.0,0.0,0.0,0.0,0.0,0.0,0.0,0.0,0.0,0.0,0.0,0.0,0.0,0.0,0.0,0.0,0.0,0.0,0.0,0.0,0.0,0.0,0.0,0.0,0.0,0.0,0.0,0.0,0.0,0.0,0.0,0.0,0.0,0.0,0.0,0.0,0.0,0.0,0.0,0.0,0.0,0.0,0.0,0.0,0.0,0.0,0.0,0.0,0.0,0.0,0.0,0.0,0.0,0.0,0.0,0.0,0.0,0.0,0.0,0.0,0.0,0.0,0.0,0.0,0.0,0.0,0.0,0.0,0.0,0.0,0.0,0.0,0.0,0.0,0.0,0.0,0.0,0.0,0.0,0.0,0.0,0.0,0.0,0.0,0.0,0.0,0.0,0.0,0.0,0.0,0.0,0.0,0.0,0.0,0.0,0.0,0.0,0.0,0.0,0.0,0.0,0.0,0.0,0.0,2.7217,0.0,0.0,0.0,0.0,0.0,0.0,0.0,0.0,0.0,0.0,0.0,0.0,0.0,0.0,0.0,0.0,0.0,0.0,0.0,0.0,0.0,0.0,0.0,0.0,0.0,0.0,0.0,0.0,0.0,0.0,0.0,0.0,0.0,0.0,0.0,0.0,0.0,0.0,0.0,0.0,0.0,0.0,0.0,0.0,0.0,0.0,0.0,0.0,0.0,0.0,0.0,0.0,0.0,0.0,0.0,0.0,0.0,0.0,0.0,0.0,0.0,0.0,0.0,0.0,0.0,0.0,0.0,0.0,0.0,0.0,0.0,0.0,0.0,0.0,0.0,0.0,0.0,0.0,0.0,0.0,0.0,0.0,0.0,0.0,0.0,0.0,0.0,0.0,0.0,0.0,0.0,0.0,0.0,0.0,0.0,0.0,0.0,0.0,0.0,0.0,0.0,0.0,0.0,0.0,0.0,0.0,0.0,0.0,0.0,0.0,2.8609,2.8785,2.8609,2.8387,2.8121,0.0,0.0,0.0,0.0,0.0,0.0,0.0,0.0,0.0,0.0,0.0,0.0,0.0,0.0,0.0,0.0,0.0,0.0,0.0,0.0,0.0,0.0,0.0,0.0,0.0,0.0,0.0,0.0,0.0,0.0,0.0,0.0,0.0,0.0,0.0,0.0,0.0,0.0,0.0,0.0,0.0,0.0,0.0,0.0,0.0,0.0,0.0,0.0,0.0,0.0,0.0,0.0,0.0,0.0,0.0,0.0,0.0,0.0,0.0,0.0,0.0,0.0,0.0,0.0,0.0,0.0,0.0,0.0,0.0,0.0,0.0,0.0,0.0,0.0,0.0,0.0,0.0,0.0,0.0,0.0,0.0,0.0,0.0,0.0,0.0,0.0,0.0,0.0,0.0,0.0,0.0,0.0,0.0,0.0,0.0,0.0,0.0,0.0,0.0,0.0,0.0,0.0,0.0,0.0,0.0,0.0,0.0,0.0,0.0,0.0,0.0,0.0,2.9711,2.9329,2.8634,0.0,0.0,0.0,0.0,0.0,0.0,0.0,0.0,0.0,0.0,0.0,0.0,0.0,0.0,0.0,0.0,0.0,0.0,0.0,0.0,0.0,0.0,0.0,0.0,0.0,0.0,0.0,0.0,0.0,0.0,0.0,0.0,0.0,0.0,0.0,0.0,0.0,0.0,0.0,0.0,0.0,0.0,0.0,0.0,0.0,0.0,0.0,0.0,0.0,0.0,0.0,0.0,0.0,0.0,0.0,0.0,0.0,0.0,0.0,0.0,0.0,0.0,0.0,0.0,0.0,0.0,0.0,0.0,0.0,0.0,0.0,0.0,0.0,0.0,0.0,0.0,0.0,0.0,0.0,0.0,0.0,0.0,0.0,0.0,0.0,0.0,0.0,0.0,0.0,0.0,0.0,0.0,0.0,0.0,0.0,0.0,0.0,0.0,0.0,0.0,0.0,0.0,0.0,0.0,0.0,0.0,0.0,0.0,0.0,0.0,3.0249,3.0249,3.0249,0.0,2.8186,0.0,0.0,0.0,0.0,0.0,0.0,0.0,0.0,0.0,0.0,0.0,0.0,0.0,0.0,0.0,0.0,0.0,0.0,0.0,0.0,0.0,0.0,0.0,0.0,0.0,0.0,0.0,0.0,0.0,0.0,0.0,0.0,0.0,0.0,0.0,0.0,0.0,0.0,0.0,0.0,0.0,0.0,0.0,0.0,0.0,0.0,0.0,0.0,0.0,0.0,0.0,0.0,0.0,0.0,0.0,0.0,0.0,0.0,0.0,0.0,0.0,0.0,0.0,0.0,0.0,0.0,0.0,0.0,0.0,0.0,0.0,0.0,0.0,0.0,0.0,0.0,0.0,0.0,0.0,0.0,0.0,0.0,0.0,0.0,0.0,0.0,0.0,0.0,0.0,0.0,0.0,0.0,0.0,0.0,0.0,0.0,0.0,0.0,0.0,0.0,0.0,0.0,0.0,0.0,0.0,0.0,0.0,0.0,0.0,0.0,3.0782,3.0911,3.064,2.9806,0.0,0.0,0.0,0.0,0.0,0.0,0.0,0.0,0.0,0.0,0.0,0.0,0.0,0.0,0.0,0.0,0.0,0.0,0.0,0.0,0.0,0.0,0.0,0.0,0.0,0.0,0.0,0.0,0.0,0.0,0.0,0.0,0.0,0.0,0.0,0.0,0.0,0.0,0.0,0.0,0.0,0.0,0.0,0.0,0.0,0.0,0.0,0.0,0.0,0.0,0.0,0.0,0.0,0.0,0.0,0.0,0.0,0.0,0.0,0.0,0.0,0.0,0.0,0.0,0.0,0.0,0.0,0.0,0.0,0.0,0.0,0.0,0.0,0.0,0.0,0.0,0.0,0.0,0.0,0.0,0.0,0.0,0.0,0.0,0.0,0.0,0.0,0.0,0.0,0.0,0.0,0.0,0.0,0.0,0.0,0.0,0.0,0.0,0.0,0.0,0.0,0.0,0.0,0.0,0.0,0.0,0.0,0.0,0.0,0.0,3.1225,3.1498,3.1604,3.1172,3.0285,2.8976,0.0,0.0,0.0,0.0,0.0,0.0,0.0,0.0,0.0,0.0,0.0,0.0,0.0,0.0,0.0,0.0,0.0,0.0,0.0,0.0,0.0,0.0,0.0,0.0,0.0,0.0,0.0,0.0,0.0,0.0,0.0,0.0,0.0,0.0,0.0,0.0,0.0,0.0,0.0,0.0,0.0,0.0,0.0,0.0,0.0,0.0,0.0,0.0,0.0,0.0,0.0,0.0,0.0,0.0,0.0,0.0,0.0,0.0,0.0,0.0,0.0,0.0,0.0,0.0,0.0,0.0,0.0,0.0,0.0,0.0,0.0,0.0,0.0,0.0,0.0,0.0,0.0,0.0,0.0,0.0,0.0,0.0,0.0,0.0,0.0,0.0,0.0,0.0,0.0,0.0,0.0,0.0,0.0,0.0,0.0,0.0,0.0,0.0,0.0,0.0,0.0,0.0,0.0,0.0,0.0,0.0,0.0,0.0,3.0692,3.1819,3.242,3.242,3.1984,3.1019,0.0,0.0,0.0,0.0,0.0,0.0,0.0,0.0,0.0,0.0,0.0,0.0,0.0,0.0,0.0,0.0,0.0,0.0,0.0,0.0,0.0,0.0,0.0,0.0,0.0,0.0,0.0,0.0,0.0,0.0,0.0,0.0,0.0,0.0,0.0,0.0,0.0,0.0,0.0,0.0,0.0,0.0,0.0,0.0,0.0,0.0,0.0,0.0,0.0,0.0,0.0,0.0,0.0,0.0,0.0,0.0,0.0,0.0,0.0,0.0,0.0,0.0,0.0,0.0,0.0,0.0,0.0,0.0,0.0,0.0,0.0,0.0,0.0,0.0,0.0,0.0,0.0,0.0,0.0,0.0,0.0,0.0,0.0,0.0,0.0,0.0,0.0,0.0,0.0,0.0,0.0,0.0,0.0,0.0,0.0,0.0,0.0,0.0,0.0,0.0,0.0,0.0,0.0,0.0,0.0,0.0,0.0,0.0,0.0,3.1337,3.2271,3.2685,3.2489,3.1862,3.0856,0.0,0.0,0.0,0.0,0.0,0.0,0.0,0.0,0.0,0.0,0.0,0.0,0.0,0.0,0.0,0.0,0.0,0.0,0.0,0.0,0.0,0.0,0.0,0.0,0.0,0.0,0.0,0.0,0.0,0.0,0.0,0.0,0.0,0.0,0.0,0.0,0.0,0.0,0.0,0.0,0.0,0.0,0.0,0.0,0.0,0.0,0.0,0.0,0.0,0.0,0.0,0.0,0.0,0.0,0.0,0.0,0.0,0.0,0.0,0.0,0.0,0.0,0.0,0.0,0.0,0.0,0.0,0.0,0.0,0.0,0.0,0.0,0.0,0.0,0.0,0.0,0.0,0.0,0.0,0.0,0.0,0.0,0.0,0.0,0.0,0.0,0.0,0.0,0.0,0.0,0.0,0.0,0.0,0.0,0.0,0.0,0.0,0.0,0.0,0.0,0.0,0.0,0.0,0.0,0.0,0.0,0.0,0.0,0.0,3.2394,0.0,3.3088,3.2971,3.2134,3.1175,0.0,0.0,0.0,0.0,0.0,0.0,0.0,0.0,0.0,0.0,0.0,0.0,0.0,0.0,0.0,0.0,0.0,0.0,0.0,0.0,0.0,0.0,0.0,0.0,0.0,0.0,0.0,0.0,0.0,0.0,0.0,0.0,0.0,0.0,0.0,0.0,0.0,0.0,0.0,0.0,0.0,0.0,0.0,0.0,0.0,0.0,0.0,0.0,0.0,0.0,0.0,0.0,0.0,0.0,0.0,0.0,0.0,0.0,0.0,0.0,0.0,0.0,0.0,0.0,0.0,0.0,0.0,0.0,0.0,0.0,0.0,0.0,0.0,0.0,0.0,0.0,0.0,0.0,0.0,0.0,0.0,0.0,0.0,0.0,0.0,0.0,0.0,0.0,0.0,0.0,0.0,0.0,0.0,0.0,0.0,0.0,0.0,0.0,0.0,0.0,0.0,0.0,0.0,0.0,0.0,0.0,0.0,0.0,3.2561,3.3889,3.3726,3.3777,3.3958,3.3043,3.203,0.0,0.0,0.0,0.0,0.0,0.0,0.0,0.0,0.0,0.0,0.0,0.0,0.0,0.0,0.0,0.0,0.0,0.0,0.0,0.0,0.0,0.0,0.0,0.0,0.0,0.0,0.0,0.0,0.0,0.0,0.0,0.0,0.0,0.0,0.0,0.0,0.0,0.0,0.0,0.0,0.0,0.0,0.0,0.0,0.0,0.0,0.0,0.0,0.0,0.0,0.0,0.0,0.0,0.0,0.0,0.0,0.0,0.0,0.0,0.0,0.0,0.0,0.0,0.0,0.0,0.0,0.0,0.0,0.0,0.0,0.0,0.0,0.0,0.0,0.0,0.0,0.0,0.0,0.0,0.0,0.0,0.0,0.0,0.0,0.0,0.0,0.0,0.0,0.0,0.0,0.0,0.0,0.0,0.0,0.0,0.0,0.0,0.0,0.0,0.0,0.0,0.0,0.0,0.0,0.0,0.0,0.0,0.0,0.0,3.454,3.4839,3.476,3.431,3.386,3.2881,0.0,0.0,0.0,0.0,0.0,0.0,0.0,0.0,0.0,0.0,0.0,0.0,0.0,0.0,0.0,0.0,0.0,0.0,0.0,0.0,0.0,0.0,0.0,0.0,0.0,0.0,0.0,0.0,0.0,0.0,0.0,0.0,0.0,0.0,0.0,0.0,0.0,0.0,0.0,0.0,0.0,0.0,0.0,0.0,0.0,0.0,0.0,0.0,0.0,0.0,0.0,0.0,0.0,0.0,0.0,0.0,0.0,0.0,0.0,0.0,0.0,0.0,0.0,0.0,0.0,0.0,0.0,0.0,0.0,0.0,0.0,0.0,0.0,0.0,0.0,0.0,0.0,0.0,0.0,0.0,0.0,0.0,0.0,0.0,0.0,0.0,0.0,0.0,0.0,0.0,0.0,0.0,0.0,0.0,0.0,0.0,0.0,0.0,0.0,0.0,0.0,0.0,0.0,0.0,0.0,0.0,0.0,0.0,0.0,3.5971,3.5907,3.5681,3.5147,3.4621,3.3711,3.2277,0.0,0.0,0.0,0.0,0.0,0.0,0.0,0.0,0.0,0.0,0.0,0.0,0.0,0.0,0.0,0.0,0.0,0.0,0.0,0.0,0.0,0.0,0.0,0.0,0.0,0.0,0.0,0.0,0.0,0.0,0.0,0.0,0.0,0.0,0.0,0.0,0.0,0.0,0.0,0.0,0.0,0.0,0.0,0.0,0.0,0.0,0.0,0.0,0.0,0.0,0.0,0.0,0.0,0.0,0.0,0.0,0.0,0.0,0.0,0.0,0.0,0.0,0.0,0.0,0.0,0.0,0.0,0.0,0.0,0.0,0.0,0.0,0.0,0.0,0.0,0.0,0.0,0.0,0.0,0.0,0.0,0.0,0.0,0.0,0.0,0.0,0.0,0.0,0.0,0.0,0.0,0.0,0.0,0.0,0.0,0.0,0.0,0.0,0.0,0.0,0.0,0.0,0.0,0.0,0.0,0.0,0.0,0.0,3.795,3.7038,3.6561,3.6414,3.5502,3.4542,0.0,0.0,0.0,0.0,0.0,0.0,0.0,0.0,0.0,0.0,0.0,0.0,0.0,0.0,0.0,0.0,0.0,0.0,0.0,0.0,0.0,0.0,0.0,0.0,0.0,0.0,0.0,0.0,0.0,0.0,0.0,0.0,0.0,0.0,0.0,0.0,0.0,0.0,0.0,0.0,0.0,0.0,0.0,0.0,0.0,0.0,0.0,0.0,0.0,0.0,0.0,0.0,0.0,0.0,0.0,0.0,0.0,0.0,0.0,0.0,0.0,0.0,0.0,0.0,0.0,0.0,0.0,0.0,0.0,0.0,0.0,0.0,0.0,0.0,0.0,0.0,0.0,0.0,0.0,0.0,0.0,0.0,0.0,0.0,0.0,0.0,0.0,0.0,0.0,0.0,0.0,0.0,0.0,0.0,0.0,0.0,0.0,0.0,0.0,0.0,0.0,0.0,0.0,0.0,0.0,0.0,0.0,0.0,0.0,3.7974,3.8461,3.8275,3.7329,3.7028,3.6098,0.0,0.0,0.0,0.0,0.0,0.0,0.0,0.0,0.0,0.0,0.0,0.0,0.0,0.0,0.0,0.0,0.0,0.0,0.0,0.0,0.0,0.0,0.0,0.0,0.0,0.0,0.0,0.0,0.0,0.0,0.0,0.0,0.0,0.0,0.0,0.0,0.0,0.0,0.0,0.0,0.0,0.0,0.0,0.0,0.0,0.0,0.0,0.0,0.0,0.0,0.0,0.0,0.0,0.0,0.0,0.0,0.0,0.0,0.0,0.0,0.0,0.0,0.0,0.0,0.0,0.0,0.0,0.0,0.0,0.0,0.0,0.0,0.0,0.0,0.0,0.0,0.0,0.0,0.0,0.0,0.0,0.0,0.0,0.0,0.0,0.0,0.0,0.0,0.0,0.0,0.0,0.0,0.0,0.0,0.0,0.0,0.0,0.0,0.0,0.0,0.0,0.0,0.0,0.0,0.0,0.0,0.0,0.0,3.7685,3.8647,3.9489,3.9633,3.8929,3.8311,3.7205,0.0,0.0,0.0,0.0,0.0,0.0,0.0,0.0,0.0,0.0,0.0,0.0,0.0,0.0,0.0,0.0,0.0,0.0,0.0,0.0,0.0,0.0,0.0,0.0,0.0,0.0,0.0,0.0,0.0,0.0,0.0,0.0,0.0,0.0,0.0,0.0,0.0,0.0,0.0,0.0,0.0,0.0,0.0,0.0,0.0,0.0,0.0,0.0,0.0,0.0,0.0,0.0,0.0,0.0,0.0,0.0,0.0,0.0,0.0,0.0,0.0,0.0,0.0,0.0,0.0,0.0,0.0,0.0,0.0,0.0,0.0,0.0,0.0,0.0,0.0,0.0,0.0,0.0,0.0,0.0,0.0,0.0,0.0,0.0,0.0,0.0,0.0,0.0,0.0,0.0,0.0,0.0,0.0,0.0,0.0,0.0,0.0,0.0,0.0,0.0,0.0,0.0,0.0,0.0,0.0,0.0,0.0,0.0,3.8094,3.9561,4.0162,4.062,4.0835,3.935,3.8074,0.0,0.0,0.0,0.0,0.0,0.0,0.0,0.0,0.0,0.0,0.0,0.0,0.0,0.0,0.0,0.0,0.0,0.0,0.0,0.0,0.0,0.0,0.0,0.0,0.0,0.0,0.0,0.0,0.0,0.0,0.0,0.0,0.0,0.0,0.0,0.0,0.0,0.0,0.0,0.0,0.0,0.0,0.0,0.0,0.0,0.0,0.0,0.0,0.0,0.0,0.0,0.0,0.0,0.0,0.0,0.0,0.0,0.0,0.0,0.0,0.0,0.0,0.0,0.0,0.0,0.0,0.0,0.0,0.0,0.0,0.0,0.0,0.0,0.0,0.0,0.0,0.0,0.0,0.0,0.0,0.0,0.0,0.0,0.0,0.0,0.0,0.0,0.0,0.0,0.0,0.0,0.0,0.0,0.0,0.0,0.0,0.0,0.0,0.0,0.0,0.0,0.0,0.0,0.0,0.0,0.0,0.0,0.0,3.8839,3.9585,4.0725,4.1298,4.1194,4.0202,3.9332,0.0,0.0,0.0,0.0,0.0,0.0,0.0,0.0,0.0,0.0,0.0,0.0,0.0,0.0,0.0,0.0,0.0,0.0,0.0,0.0,0.0,0.0,0.0,0.0,0.0,0.0,0.0,0.0,0.0,0.0,0.0,0.0,0.0,0.0,0.0,0.0,0.0,0.0,0.0,0.0,0.0,0.0,0.0,0.0,0.0,0.0,0.0,0.0,2.5939,0.0,0.0,0.0,0.0,0.0,0.0,0.0,0.0,0.0,0.0,0.0,0.0,0.0,0.0,0.0,0.0,0.0,0.0,0.0,0.0,0.0,0.0,0.0,0.0,0.0,0.0,0.0,0.0,0.0,0.0,0.0,0.0,0.0,0.0,0.0,0.0,0.0,0.0,0.0,0.0,0.0,0.0,0.0,0.0,0.0,0.0,0.0,0.0,0.0,0.0,0.0,0.0,0.0,0.0,0.0,0.0,0.0,0.0,0.0,3.9135,3.983,4.1128,4.1995,4.2263,4.1562,4.0641,0.0,0.0,0.0,0.0,0.0,0.0,0.0,0.0,0.0,0.0,0.0,0.0,0.0,0.0,0.0,0.0,0.0,0.0,0.0,0.0,0.0,0.0,0.0,0.0,0.0,0.0,0.0,0.0,0.0,0.0,0.0,0.0,0.0,0.0,0.0,0.0,0.0,0.0,0.0,0.0,0.0,0.0,0.0,0.0,0.0,0.0,0.0,0.0,0.0,0.0,0.0,0.0,0.0,0.0,0.0,0.0,0.0,0.0,0.0,0.0,0.0,0.0,0.0,0.0,0.0,0.0,0.0,0.0,0.0,0.0,0.0,0.0,0.0,0.0,0.0,0.0,0.0,0.0,0.0,0.0,0.0,0.0,0.0,0.0,0.0,0.0,0.0,0.0,0.0,0.0,0.0,0.0,0.0,0.0,0.0,0.0,0.0,0.0,0.0,0.0,0.0,0.0,0.0,0.0,0.0,0.0,0.0,3.807,3.9261,4.0026,4.1408,4.2594,4.3436,4.2907,4.1982,4.047,0.0,0.0,0.0,0.0,0.0,0.0,0.0,0.0,0.0,0.0,0.0,0.0,0.0,0.0,0.0,0.0,0.0,0.0,0.0,0.0,0.0,0.0,0.0,0.0,0.0,0.0,0.0,0.0,0.0,0.0,0.0,0.0,0.0,0.0,0.0,0.0,0.0,0.0,2.5623,2.7048,0.0,0.0,0.0,0.0,0.0,0.0,0.0,0.0,2.6914,0.0,0.0,0.0,0.0,0.0,0.0,0.0,0.0,0.0,0.0,0.0,0.0,0.0,0.0,0.0,0.0,0.0,0.0,0.0,0.0,0.0,0.0,0.0,0.0,0.0,0.0,0.0,0.0,0.0,0.0,0.0,0.0,0.0,0.0,0.0,0.0,0.0,0.0,0.0,0.0,0.0,0.0,0.0,0.0,0.0,0.0,0.0,0.0,0.0,0.0,0.0,0.0,0.0,0.0,0.0,0.0,3.6411,3.8431,3.9623,4.0026,4.1576,4.2849,4.3661,4.3439,4.2933,4.2301,0.0,0.0,0.0,0.0,0.0,0.0,0.0,0.0,0.0,0.0,0.0,0.0,0.0,0.0,0.0,0.0,0.0,0.0,0.0,0.0,0.0,0.0,0.0,0.0,0.0,0.0,0.0,0.0,0.0,0.0,0.0,0.0,0.0,0.0,0.0,0.0,0.0,0.0,0.0,2.8502,2.9367,0.0,0.0,0.0,0.0,0.0,0.0,0.0,0.0,2.802,0.0,0.0,0.0,0.0,0.0,0.0,0.0,0.0,0.0,0.0,0.0,0.0,0.0,0.0,0.0,0.0,0.0,0.0,0.0,0.0,0.0,0.0,0.0,0.0,0.0,0.0,0.0,0.0,0.0,0.0,0.0,0.0,0.0,0.0,0.0,0.0,0.0,0.0,0.0,0.0,0.0,0.0,0.0,0.0,0.0,0.0,0.0,0.0,0.0,0.0,0.0,0.0,0.0,0.0,0.0,3.6662,3.8717,4.0135,4.076,4.2329,4.3602,4.4479,4.4228,4.3694,0.0,0.0,0.0,0.0,0.0,0.0,0.0,0.0,0.0,0.0,0.0,0.0,0.0,0.0,0.0,0.0,0.0,0.0,0.0,0.0,0.0,0.0,0.0,0.0,0.0,0.0,0.0,0.0,0.0,0.0,0.0,0.0,0.0,0.0,0.0,0.0,0.0,0.0,0.0,0.0,2.9727,3.0586,3.1712,0.0,0.0,0.0,0.0,0.0,0.0,2.988,2.9408,0.0,0.0,0.0,0.0,0.0,0.0,0.0,0.0,0.0,0.0,0.0,0.0,0.0,0.0,0.0,0.0,0.0,0.0,0.0,0.0,0.0,0.0,0.0,0.0,0.0,0.0,0.0,0.0,0.0,0.0,0.0,0.0,0.0,0.0,0.0,0.0,0.0,0.0,0.0,0.0,0.0,0.0,0.0,0.0,0.0,0.0,0.0,0.0,0.0,0.0,0.0,0.0,0.0,0.0,0.0,3.7162,3.914,4.0676,4.1746,4.3176,4.4372,4.5156,4.4848,4.4189,0.0,0.0,0.0,0.0,0.0,0.0,0.0,0.0,0.0,0.0,0.0,0.0,0.0,0.0,0.0,0.0,0.0,0.0,0.0,0.0,0.0,0.0,0.0,0.0,0.0,0.0,0.0,0.0,0.0,0.0,0.0,0.0,0.0,0.0,0.0,0.0,0.0,0.0,0.0,0.0,0.0,3.1937,3.3053,3.2928,0.0,0.0,0.0,0.0,3.1762,3.1458,0.0,0.0,0.0,0.0,0.0,0.0,0.0,0.0,0.0,0.0,0.0,0.0,0.0,0.0,0.0,0.0,0.0,0.0,0.0,0.0,0.0,0.0,0.0,0.0,0.0,0.0,0.0,0.0,0.0,0.0,0.0,0.0,0.0,0.0,0.0,0.0,0.0,0.0,0.0,0.0,0.0,0.0,0.0,0.0,0.0,0.0,0.0,0.0,0.0,0.0,0.0,0.0,0.0,0.0,0.0,0.0,3.8288,3.9922,4.1447,4.2767,4.3978,4.4783,4.5098,4.499,4.4392,0.0,0.0,0.0,0.0,0.0,0.0,0.0,0.0,0.0,0.0,0.0,0.0,0.0,0.0,0.0,0.0,0.0,0.0,0.0,0.0,0.0,0.0,0.0,0.0,0.0,0.0,0.0,0.0,0.0,0.0,0.0,0.0,0.0,0.0,0.0,0.0,0.0,0.0,0.0,0.0,0.0,3.3602,3.5063,3.4648,3.4142,0.0,0.0,3.3167,3.2645,3.2958,0.0,0.0,0.0,0.0,0.0,0.0,0.0,0.0,0.0,0.0,0.0,0.0,0.0,0.0,0.0,0.0,0.0,0.0,0.0,0.0,0.0,0.0,0.0,0.0,0.0,0.0,0.0,0.0,0.0,0.0,0.0,0.0,0.0,0.0,0.0,0.0,0.0,0.0,0.0,0.0,0.0,0.0,0.0,0.0,0.0,0.0,0.0,0.0,0.0,0.0,0.0,0.0,0.0,0.0,0.0,3.6798,3.8894,4.0869,4.2573,4.3939,4.5077,4.582,4.6127,4.571,4.4844,0.0,0.0,0.0,0.0,0.0,0.0,0.0,0.0,0.0,0.0,0.0,0.0,0.0,0.0,0.0,0.0,0.0,0.0,0.0,0.0,0.0,0.0,0.0,0.0,0.0,0.0,0.0,0.0,0.0,0.0,0.0,0.0,0.0,0.0,0.0,0.0,0.0,0.0,0.0,0.0,0.0,0.0,3.582,3.6144,0.0,0.0,0.0,3.5799,3.549,0.0,0.0,0.0,0.0,0.0,0.0,0.0,0.0,0.0,0.0,0.0,0.0,0.0,0.0,0.0,0.0,0.0,0.0,0.0,0.0,0.0,0.0,0.0,0.0,0.0,0.0,0.0,0.0,0.0,0.0,0.0,0.0,0.0,0.0,0.0,0.0,0.0,0.0,0.0,0.0,0.0,0.0,0.0,0.0,0.0,0.0,0.0,0.0,0.0,0.0,0.0,0.0,0.0,0.0,0.0,0.0,0.0,3.9899,4.1828,4.3651,4.5308,4.6236,4.6816,4.7067,4.6467,0.0,0.0,0.0,0.0,0.0,0.0,0.0,0.0,0.0,0.0,0.0,0.0,0.0,0.0,0.0,0.0,0.0,0.0,0.0,0.0,0.0,0.0,0.0,0.0,0.0,0.0,0.0,2.7256,0.0,0.0,0.0,0.0,0.0,0.0,0.0,0.0,0.0,0.0,0.0,0.0,0.0,0.0,3.5467,3.682,3.7615,3.8042,0.0,0.0,3.803,3.7977,3.7181,3.6223,0.0,0.0,0.0,0.0,0.0,0.0,0.0,0.0,0.0,0.0,0.0,0.0,0.0,0.0,0.0,0.0,0.0,0.0,0.0,0.0,0.0,0.0,0.0,0.0,0.0,0.0,0.0,0.0,0.0,0.0,0.0,0.0,0.0,0.0,0.0,0.0,0.0,0.0,0.0,0.0,0.0,0.0,0.0,0.0,0.0,0.0,0.0,0.0,0.0,0.0,0.0,0.0,0.0,0.0,0.0,4.1515,4.2805,4.4642,4.7023,4.7466,4.7595,4.7532,4.7145,4.6044,0.0,0.0,0.0,0.0,0.0,0.0,0.0,0.0,0.0,0.0,0.0,0.0,0.0,0.0,0.0,0.0,0.0,0.0,0.0,0.0,0.0,0.0,0.0,0.0,0.0,0.0,0.0,0.0,0.0,0.0,0.0,0.0,0.0,0.0,0.0,0.0,0.0,0.0,0.0,0.0,0.0,3.7318,3.8723,3.9171,3.9283,0.0,0.0,3.9257,3.8876,3.8708,3.8178,3.6816,0.0,0.0,0.0,0.0,0.0,0.0,0.0,0.0,0.0,0.0,0.0,0.0,0.0,0.0,0.0,0.0,0.0,0.0,0.0,0.0,0.0,0.0,0.0,0.0,0.0,0.0,0.0,0.0,0.0,0.0,0.0,0.0,0.0,0.0,0.0,0.0,0.0,0.0,0.0,0.0,0.0,0.0,0.0,0.0,0.0,0.0,0.0,0.0,0.0,0.0,0.0,0.0,0.0,3.9099,4.199,4.3841,4.5742,4.7717,4.8229,4.8418,4.8389,4.7489,4.6309,0.0,0.0,0.0,0.0,0.0,0.0,0.0,0.0,0.0,0.0,0.0,0.0,0.0,0.0,0.0,0.0,0.0,0.0,0.0,0.0,0.0,0.0,0.0,0.0,0.0,0.0,0.0,0.0,2.9997,2.9854,3.0052,0.0,0.0,0.0,0.0,0.0,0.0,0.0,0.0,0.0,0.0,3.828,4.0055,4.0873,0.0,0.0,4.1185,4.1071,4.0531,4.0133,3.9329,3.7765,3.6788,0.0,0.0,0.0,0.0,0.0,0.0,0.0,0.0,0.0,0.0,0.0,0.0,0.0,0.0,0.0,0.0,0.0,0.0,0.0,0.0,0.0,0.0,0.0,0.0,0.0,0.0,0.0,0.0,0.0,0.0,0.0,0.0,0.0,0.0,0.0,0.0,0.0,0.0,0.0,0.0,0.0,0.0,0.0,0.0,0.0,0.0,0.0,0.0,0.0,0.0,0.0,0.0,3.9891,4.265,4.4519,4.6445,4.8302,4.8781,4.9058,4.91,4.8095,4.6918,0.0,0.0,0.0,0.0,0.0,0.0,0.0,0.0,0.0,0.0,0.0,0.0,0.0,0.0,0.0,0.0,0.0,0.0,0.0,0.0,0.0,0.0,0.0,0.0,0.0,0.0,0.0,0.0,3.0982,3.0807,3.0776,0.0,0.0,0.0,0.0,0.0,0.0,0.0,0.0,0.0,0.0,3.964,4.1213,4.2167,4.2697,4.2697,4.2525,4.2295,4.195,4.1204,4.029,3.9041,0.0,0.0,0.0,0.0,0.0,0.0,0.0,0.0,0.0,0.0,0.0,0.0,0.0,0.0,0.0,0.0,0.0,0.0,0.0,0.0,0.0,0.0,0.0,0.0,0.0,0.0,0.0,0.0,0.0,0.0,0.0,0.0,0.0,0.0,0.0,0.0,0.0,0.0,0.0,0.0,0.0,0.0,0.0,0.0,0.0,0.0,0.0,0.0,0.0,0.0,0.0,0.0,0.0,4.0457,4.371,4.4936,4.6594,4.8802,4.9157,4.9404,4.9669,4.9011,4.8054,4.6749,0.0,0.0,0.0,0.0,0.0,0.0,0.0,0.0,0.0,0.0,0.0,0.0,0.0,0.0,0.0,0.0,0.0,0.0,0.0,0.0,0.0,0.0,0.0,0.0,0.0,0.0,3.1524,3.2075,3.2359,0.0,0.0,0.0,0.0,0.0,0.0,0.0,0.0,0.0,0.0,4.0057,4.1552,4.2238,4.3013,4.3545,4.3545,4.3085,4.2767,4.295,4.1906,4.0995,0.0,0.0,0.0,0.0,0.0,0.0,0.0,0.0,0.0,0.0,0.0,0.0,0.0,0.0,0.0,0.0,0.0,0.0,0.0,0.0,0.0,0.0,0.0,0.0,0.0,0.0,0.0,3.7889,3.7186,0.0,0.0,0.0,0.0,0.0,0.0,0.0,0.0,0.0,0.0,0.0,3.9948,3.9948,0.0,0.0,0.0,0.0,0.0,0.0,0.0,0.0,0.0,0.0,0.0,0.0,4.1662,4.4032,4.5915,4.756,4.8852,4.9355,4.962,4.9717,4.9059,4.7724,4.5605,0.0,0.0,0.0,0.0,0.0,0.0,0.0,0.0,0.0,0.0,0.0,0.0,0.0,0.0,0.0,0.0,0.0,0.0,0.0,0.0,0.0,0.0,0.0,0.0,0.0,3.2162,0.0,0.0,0.0,0.0,0.0,0.0,0.0,0.0,0.0,0.0,0.0,3.8086,4.029,4.1175,4.2178,4.3791,4.4283,4.4472,0.0,0.0,0.0,0.0,0.0,0.0,0.0,0.0,0.0,0.0,0.0,0.0,0.0,0.0,3.4268,3.2729,3.211,3.1675,3.1177,0.0,0.0,0.0,0.0,0.0,0.0,0.0,0.0,0.0,0.0,0.0,0.0,0.0,0.0,0.0,0.0,3.8969,0.0,0.0,0.0,0.0,0.0,0.0,0.0,0.0,4.04,4.1028,4.1379,4.1688,4.1717,0.0,4.1277,4.016,0.0,0.0,0.0,0.0,0.0,0.0,0.0,0.0,4.2749,4.4682,4.6792,4.8397,4.9373,5.0051,5.0249,5.0066,4.9175,4.7724,4.5634,4.395,4.2179,0.0,0.0,0.0,0.0,0.0,0.0,0.0,0.0,0.0,0.0,0.0,0.0,0.0,0.0,0.0,0.0,0.0,0.0,0.0,0.0,0.0,0.0,0.0,3.2919,0.0,0.0,0.0,0.0,0.0,0.0,0.0,0.0,0.0,3.7749,3.8494,3.9711,4.1583,4.2405,4.3314,4.4734,0.0,0.0,0.0,0.0,0.0,0.0,0.0,4.3153,4.262,4.2103,4.1446,4.0485,3.9605,3.9178,3.9577,0.0,0.0,3.5581,3.4796,3.4347,3.3887,3.3475,3.3031,3.2475,3.2047,3.158,0.0,0.0,0.0,0.0,0.0,0.0,0.0,0.0,4.2539,4.1932,0.0,4.0852,0.0,0.0,0.0,0.0,0.0,0.0,0.0,0.0,4.2288,4.3067,4.3174,4.3877,4.4046,4.3487,4.3278,4.2754,4.1853,4.0564,0.0,0.0,0.0,0.0,0.0,0.0,4.384,4.5619,4.7672,4.923,5.0284,5.1143,5.1294,5.0656,4.9436,4.8159,4.6911,4.5605,4.4066,4.2266,4.0321,0.0,0.0,0.0,0.0,0.0,0.0,0.0,0.0,0.0,0.0,0.0,0.0,0.0,0.0,0.0,0.0,0.0,0.0,0.0,0.0,3.318,0.0,0.0,0.0,0.0,0.0,0.0,0.0,0.0,0.0,0.0,3.8294,4.0216,4.1814,4.2138,0.0,0.0,0.0,0.0,4.5924,4.5924,4.5401,4.4995,4.4966,4.4443,4.4066,4.4008,0.0,0.0,4.2582,4.1451,4.0608,4.0608,4.0192,3.9316,3.8359,3.7286,3.6445,3.6046,3.5602,3.5071,3.4424,3.3904,3.331,4.7531,0.0,0.0,0.0,0.0,4.4769,4.4543,4.4166,4.4418,4.3991,4.3087,4.2936,0.0,0.0,0.0,0.0,0.0,0.0,4.2217,4.3194,4.37,4.4244,4.4852,4.5144,4.5118,4.4996,4.5318,4.5184,4.4511,4.4335,4.3092,4.0975,0.0,0.0,0.0,0.0,4.6112,4.7449,4.9472,5.0593,5.0918,5.1374,5.1323,5.0685,4.9872,4.9001,4.8141,4.6505,4.514,4.4095,4.1831,0.0,0.0,0.0,0.0,0.0,0.0,0.0,0.0,0.0,0.0,0.0,0.0,0.0,0.0,0.0,0.0,0.0,0.0,0.0,3.5125,3.5386,3.559,0.0,0.0,0.0,0.0,0.0,0.0,0.0,0.0,0.0,4.1529,4.1778,4.2502,0.0,0.0,4.5053,4.5518,4.6156,4.6563,4.6563,0.0,0.0,0.0,4.575,4.5169,4.4705,4.4226,4.3835,4.3574,4.3227,4.2996,4.2996,4.2852,4.2462,4.1645,3.9845,3.8383,3.7825,3.7497,3.7083,3.6311,3.5729,3.5184,4.9992,4.8184,4.7205,4.6652,4.6451,4.6451,4.625,4.5949,4.6301,4.5824,4.4794,4.4794,4.4192,4.3137,4.3112,0.0,0.0,0.0,4.3771,4.4656,4.5113,4.5622,4.6128,4.6564,4.6679,4.6529,4.6983,4.703,4.6698,4.684,4.6165,4.4684,0.0,0.0,4.4875,4.6389,4.7752,4.8906,5.0692,5.1632,5.1786,5.1889,5.1817,5.1439,5.0589,4.9785,4.9117,4.7753,4.6475,4.5314,4.3573,4.1802,0.0,0.0,0.0,0.0,0.0,0.0,0.0,0.0,0.0,0.0,0.0,3.2077,3.2483,0.0,0.0,0.0,3.4661,3.588,3.6635,3.6925,0.0,0.0,0.0,0.0,0.0,0.0,0.0,4.1105,4.1947,4.2876,4.3979,4.3834,4.4037,4.514,4.5488,4.5895,4.6563,0.0,4.7201,4.7201,4.755,4.7637,4.7259,4.6679,4.604,4.5372,4.4995,4.4763,4.4734,4.4531,4.4356,4.4327,4.4153,4.3863,4.3456,4.2034,4.0601,3.9843,3.9313,3.8806,3.8093,3.7554,3.6928,5.185,5.1222,4.9665,4.8661,4.8058,4.8033,4.8008,4.7908,4.7958,4.738,4.6451,4.6426,4.5799,4.4769,4.4719,0.0,0.0,4.4922,4.5374,4.5482,4.6624,4.723,4.7288,4.8305,4.8484,4.8012,4.8326,4.848,4.8464,4.8491,4.8735,4.9164,4.6771,4.5967,4.6823,4.792,4.9019,5.0096,5.1586,5.2399,5.263,5.263,5.2601,5.2507,5.1352,5.0423,4.9698,4.9059,4.7898,4.6127,4.5343,4.3834,4.1395,0.0,0.0,0.0,0.0,0.0,0.0,0.0,0.0,0.0,0.0,0.0,0.0,0.0,0.0,0.0,3.6344,0.0,3.7593,3.8115,0.0,0.0,0.0,3.9654,4.0263,4.0873,4.1744,4.305,0.0,0.0,0.0,0.0,4.6069,4.6098,4.6563,4.7114,4.7695,4.7782,4.784,4.7869,4.7927,4.7927,4.7869,4.7346,4.6737,4.6185,4.5982,4.5924,4.5895,4.5401,4.5024,4.4966,4.4501,4.4124,4.4095,4.3762,4.3257,4.181,4.1028,4.0423,3.9843,3.9212,3.8424,5.2402,5.1875,5.1473,5.0494,4.9213,4.9188,4.8711,4.7958,4.8385,4.8159,4.7531,4.7531,4.6928,4.5874,4.5683,4.5547,4.5446,4.6649,4.7489,4.8198,4.9127,4.9864,5.0308,5.0104,5.0005,5.0158,5.001,5.0019,5.0022,5.0186,5.0341,5.0446,4.9775,4.9324,4.921,5.0323,5.1189,5.1673,5.263,5.3245,5.3297,5.3297,5.2833,5.1875,5.1556,5.0859,4.9776,4.9059,4.8304,4.7346,4.6272,4.4705,4.2644,4.1337,0.0,0.0,0.0,0.0,0.0,0.0,0.0,0.0,0.0,3.4337,3.5328,0.0,3.6083,0.0,3.7912,3.9131,4.0089,4.0321,0.0,0.0,4.1308,4.1657,4.2237,4.244,4.3224,4.4995,4.5198,4.5721,4.7172,4.7346,4.7521,4.7956,4.7753,4.7608,4.7829,4.8188,4.8478,4.8537,4.8885,4.903,4.8537,4.7956,4.7491,4.7346,4.694,4.6621,4.6592,4.6069,4.5707,4.5634,4.5547,4.5256,4.4763,4.45,4.402,4.3083,4.2562,4.2093,4.1394,4.0658,3.9825,5.2955,5.2477,5.2477,5.18,5.067,5.0167,4.9615,4.9038,4.9113,4.8812,4.8284,4.822,4.7853,4.7298,4.7247,4.7359,4.7564,4.841,4.9199,4.9904,5.067,5.1304,5.1774,5.1564,5.1574,5.1747,5.1589,5.1678,5.1932,5.2072,5.2119,5.2082,5.2195,5.1933,5.1441,5.1761,5.2248,5.2798,5.3221,5.35,5.35,5.35,5.3181,5.2484,5.1904,5.1294,5.0569,4.964,4.8856,4.8217,4.7259,4.5982,4.4356,4.2789,4.1047,0.0,0.0,0.0,0.0,0.0,0.0,0.0,0.0,0.0,0.0,0.0,3.7999,0.0,3.9915,0.0,4.186,4.2208,4.2528,4.2905,4.3166,4.3573,4.4211,4.4531,4.5227,4.6563,4.6737,4.7085,4.8072,4.8188,4.842,4.9059,4.8856,4.8624,4.8653,4.8943,4.9146,4.9146,4.9436,4.9465,4.8827,4.842,4.8101,4.7811,4.7491,4.7259,4.723,4.6737,4.6301,4.6301,4.6069,4.5779,4.5401,4.5165,4.4796,4.4269,4.3901,4.3296,4.222,4.1452,4.0777,5.3381,5.2861,5.2861,5.2653,5.2126,5.1071,5.0544,5.0368,4.9981,4.9517,4.9027,4.8886,4.8756,4.868,4.9015,4.9332,4.9559,4.9976,5.0544,5.1142,5.1873,5.2369,5.2633,5.2895,5.2982,5.304,5.3014,5.3272,5.3726,5.3839,5.3836,5.3792,5.4035,5.3881,5.3304,5.2756,5.2804,5.35,5.35,5.35,5.35,5.35,5.3471,5.3355,5.231,5.1672,5.1497,5.0423,4.9465,4.8769,4.8217,4.7317,4.604,4.4327,4.2789,0.0,4.035,0.0,0.0,0.0,0.0,0.0,0.0,0.0,0.0,3.9033,4.0226,4.1291,4.1988,4.2656,4.3311,4.3892,4.4298,4.4472,4.4937,4.5488,4.6069,4.6621,4.7201,4.784,4.7898,4.813,4.874,4.8856,4.9059,4.9524,4.9611,4.9601,4.9688,4.9688,4.964,4.9746,4.9746,4.9494,4.903,4.8885,4.8682,4.8159,4.7985,4.7898,4.7898,4.7375,4.6969,4.6911,4.6475,4.604,4.6011,4.5743,4.5458,4.5115,4.4886,4.4252,4.2904,4.2131,4.1635,5.3406,5.2861,5.2861,5.2854,5.2703,5.2388,5.1513,5.0419,5.0579,5.0523,5.0244,5.0205,4.9987,4.9614,4.9925,4.9975,4.9923,5.1156,5.197,5.2415,5.3526,5.4221,5.446,5.4046,5.3997,5.42,5.4008,5.3923,5.4035,5.4537,5.4785,5.4751,5.5025,5.4815,5.4235,0.0,0.0,0.0,5.35,5.35,5.35,5.35,5.3268,5.2775,5.2514,0.0,5.0917,5.0676,4.993,4.8798,4.8595,0.0,0.0,0.0,0.0,0.0,0.0,0.0,0.0,0.0,0.0,0.0,4.2059,4.1807,4.0841,4.2056,4.2878,4.2977,4.352,4.4311,4.5272,4.5459,4.5953,4.694,4.7143,4.7288,4.7433,4.755,4.784,4.8449,4.8537,4.8798,4.9349,4.9494,4.9524,4.964,4.9746,4.9746,4.9746,4.9746,4.9746,4.9746,4.9746,4.964,4.9524,4.9465,4.9407,4.9311,4.8856,4.8595,4.8508,4.8043,4.7608,4.7579,4.7085,4.6604,4.6575,4.6198,4.5759,4.5504,4.523,4.4776,4.3855,4.3222,4.2629,5.3808,0.0,5.303,5.2998,0.0,5.3105,5.2565,5.1753,5.1671,5.1407,5.0998,5.0933,5.075,5.0717,5.1054,5.1268,5.1554,5.2453,5.313,5.3636,5.4414,5.4967,5.5261,5.4954,5.4988,5.5249,5.5111,5.5168,5.5451,5.5817,5.5841,5.5719,5.58,5.5591,5.4981,5.4952,5.4487,5.353,5.35,5.35,5.35,5.35,5.3355,5.3036,0.0,0.0,0.0,0.0,0.0,0.0,0.0,0.0,0.0,0.0,0.0,4.543,4.4792,4.4298,4.4008,4.4108,4.4237,4.4323,4.5167,4.5047,4.3696,4.428,4.4899,4.5418,4.5771,4.6314,4.7089,4.7235,4.7499,4.8143,4.8465,4.8623,4.8653,4.8916,4.919,4.931,4.9397,4.9494,4.9688,4.9746,4.9746,4.9746,4.9746,4.9746,4.9746,4.9746,4.9746,4.9746,4.9746,4.9746,4.9746,4.9746,4.9746,4.9688,4.9407,4.9233,4.9204,4.8682,4.8246,4.8188,4.7724,4.723,4.6882,4.6563,4.6152,4.5636,4.5413,4.5064,4.449,4.3957,4.3454,5.431,5.3658,5.3325,5.3305,5.3478,5.3614,5.3673,5.3587,0.0,0.0,0.0,5.1598,5.1654,5.1941,5.2111,5.2553,5.3193,5.3531,5.4041,5.4639,5.4995,5.5261,5.5554,5.5554,5.5729,5.6105,5.6135,5.6423,5.688,5.6936,5.6846,5.6607,5.6549,5.6229,5.562,5.5474,5.4894,5.3907,5.3849,5.3849,5.3849,5.3849,5.3849,5.3849,5.3239,5.2862,5.2798,5.2136,5.1497,5.0859,5.0336,4.9814,4.9233,4.8014,4.7317,4.7288,4.665,4.6289,4.6305,4.6515,4.665,4.674,4.7688,4.7718,4.6444,4.6312,4.6756,4.7731,4.782,4.8086,4.8735,4.8748,4.8778,4.8896,4.9398,4.9675,4.9705,5.0147,5.0346,5.0183,5.0105,5.0086,4.9863,4.9815,4.9766,4.9766,4.9717,4.9746,4.9746,4.9746,4.9746,4.9746,4.9746,4.9746,4.9746,4.9746,4.9746,4.9746,4.9669,4.9746,4.9611,4.9233,4.8943,4.8885,4.8362,4.7811,4.7317,4.7068,4.6674,4.5883,4.5677,4.5511,4.5057,4.449,4.4087,5.4662,5.3683,5.4006,5.384,5.3546,5.4106,5.4686,5.5129,5.3491,5.3036,5.3538,5.2997,5.2922,5.3236,5.2766,5.2922,5.3531,5.3894,5.4373,0.0,5.5261,5.5613,5.5903,5.5932,5.6077,5.6365,5.6652,5.6823,5.6936,5.7163,5.7189,5.7187,5.7187,5.6868,5.6258,5.5707,5.5329,5.5155,5.5155,5.5155,5.5155,5.5126,5.5155,5.5126,5.4546,5.3965,5.3384,5.2775,5.2136,5.1527,5.141,5.1323,5.1178,4.9959,4.9291,4.9204,4.8159,4.766,4.7875,4.7921,4.8122,4.8504,4.8894,4.9,4.882,4.882,4.879,4.8743,4.8773,4.8919,4.9309,4.9398,4.9604,5.0135,5.0265,5.0353,5.0371,5.046,5.0501,5.0453,5.0453,5.0453,5.0357,5.0183,5.0038,5.0038,4.9892,4.9746,4.9746,4.9746,4.9746,4.9746,4.9746,4.9746,4.9746,4.9746,4.9746,4.9746,4.9746,4.9746,4.9746,4.9553,4.9465,4.9524,4.8972,4.8566,4.8391,4.7985,4.7387,4.6761,4.6449,4.6091,4.5539,4.5011,4.4565,5.5232,5.4915,5.4474,5.437,5.4569,5.4935,5.5405,5.5749,5.4958,5.4628,5.4607,5.4023,5.3974,5.4262,5.4181,5.4194,5.4412,5.4896,5.5122,5.5026,5.5496,5.5874,5.599,5.6135,5.6365,5.668,5.6823,5.6993,5.7078,5.7247,5.7303,5.7303,5.7303,5.7158,5.6897,5.6578,5.6432,5.6403,5.5765,5.5416,5.5416,5.5416,5.5416,5.5416,5.5126,5.4691,5.4081,5.3791,5.3181,5.2165,5.2136,5.1962,5.1614,5.1062,5.0743,5.0714,5.031,5.0135,5.0262,5.0552,5.0887,5.119,5.1362,5.1426,5.1426,5.0421,4.9897,5.0133,5.0163,5.0236,5.0394,5.0424,5.0572,5.0822,5.0852,5.0899,5.0852,5.0899,5.0805,5.071,5.0662,5.0614,5.0501,5.0405,5.0327,5.0309,5.0086,4.9941,4.9941,4.9795,4.9746,4.9746,4.9746,4.9746,4.9746,4.9746,4.9746,4.9746,4.9746,4.9746,4.9746,4.9746,4.9746,4.9717,4.9407,4.9117,4.8856,4.8508,4.8043,4.7491,4.6935,4.6553,4.608,4.5424,4.4658,5.5804,5.5934,5.5236,5.5237,5.5611,5.5575,5.5868,5.6263,5.6301,5.6191,5.58,5.5146,5.5095,5.5447,5.5562,5.5573,5.5496,5.5955,5.6005,5.565,5.6011,5.6246,5.6334,5.6508,5.668,5.6936,5.6993,5.7078,5.7303,5.7303,5.7303,5.7303,5.7303,5.7303,5.7303,5.7303,5.7303,5.7245,5.6345,5.5823,5.5823,5.5823,5.5852,5.5823,5.5707,5.5416,5.4981,5.4807,5.4168,5.3094,5.3007,5.2717,5.2107,5.1955,5.1918,5.1918,5.2025,5.2138,5.2188,5.2615,5.2979,5.3174,5.3174,5.3174,5.3054,5.1798,5.1109,5.1558,5.1678,5.1678,5.1631,5.1631,5.1648,5.1648,5.1648,5.169,5.1678,5.1648,5.1601,5.1363,5.1334,5.1298,5.1154,5.1087,5.1021,5.1002,5.0768,5.0623,5.0574,5.0398,5.0222,4.9999,4.9882,4.9746,4.9746,4.9746,4.9746,4.9746,4.9746,4.9746,4.9746,4.9746,4.9746,4.9717,4.9717,4.9465,4.9059,4.8943,4.8682,4.813,4.7619,4.7137,4.6529,4.5659,4.4844,5.6421,5.6132,5.6592,5.6669,5.6314,5.5868,5.6027,5.6682,5.6979,5.7211,5.7332,5.6532,5.6477,5.6934,5.6562,5.6498,5.6687,5.6809,5.6936,5.7097,5.6917,5.7016,5.7251,5.6996,5.6993,5.7276,5.7247,5.7247,5.7303,5.7303,5.7303,5.7303,5.7303,5.7303,5.7303,5.7303,5.7303,5.7303,5.7187,5.7129,5.7129,5.7129,5.7129,5.7129,5.6578,5.6287,5.6142,5.5649,5.501,5.4429,5.4313,5.4023,5.3384,5.3011,5.2873,5.2873,5.2541,5.2487,5.2714,5.2979,5.3234,5.3174,5.3234,5.3313,5.3234,5.3025,5.2905,5.2995,5.2995,5.2905,5.2995,5.2935,5.2875,5.2815,5.2875,5.2995,5.2905,5.2995,5.2995,5.2995,5.2797,5.2946,5.2748,5.2554,5.2417,5.2152,5.2024,5.1975,5.1925,5.1757,5.1432,5.0944,5.03,4.9805,4.9776,4.9746,4.9746,4.9746,4.9746,4.9746,4.9746,4.9746,4.9746,4.9746,4.9746,4.9611,4.9582,4.9553,4.932,4.8798,4.8373,4.8064,4.6893,4.5976,4.5327,5.6963,5.7112,5.7087,5.6981,5.6837,5.7009,5.7174,5.733,5.7624,5.8007,5.8234,5.7859,5.7776,5.7811,5.7751,5.766,5.7512,5.7851,5.7898,5.7652,5.7904,5.8085,5.8203,5.7917,5.7799,5.7855,5.7507,5.7303,5.7303,5.7303,5.7303,5.7303,5.7303,5.7303,5.7303,5.7303,5.7303,5.7303,5.7303,5.7303,5.7303,5.7303,5.7303,5.7274,5.7071,5.6752,5.6432,5.6142,5.5707,5.5097,5.5039,5.4977,5.4929,5.4422,5.4176,5.4355,5.4022,5.3921,5.4221,5.4321,5.4371,5.4371,5.4371,5.4371,5.4371,5.4371,5.4371,5.4281,5.3653,5.3174,5.3204,5.3174,5.3174,5.3174,5.3174,5.3174,5.3174,5.3174,5.3174,5.3174,5.3174,5.3174,5.3174,5.3077,5.2979,5.2881,5.2763,5.2724,5.2615,5.2387,5.217,5.1885,5.1394,5.0679,5.0028,4.9746,4.9698,4.9698,4.9746,4.9746,4.9746,4.9746,4.9746,4.9746,4.9746,4.9746,4.9717,4.9669,4.9553,4.9204,4.8827,4.8286,4.6975,4.6374,4.5901,5.7435,5.785,5.7518,5.7578,5.7772,5.8007,5.8085,5.8127,5.8281,5.8479,5.8704,5.8892,5.8829,5.8641,5.8829,5.8703,5.8463,5.8927,5.8916,5.8522,5.886,5.907,5.9012,5.8755,5.8581,5.8464,5.7913,5.7477,5.7332,5.7303,5.7303,5.7303,5.7303,5.7303,5.7303,5.7303,5.7303,5.7303,5.7303,5.7303,5.7303,5.7303,5.7303,5.7303,5.7303,5.71,5.6694,5.6665,5.6401,5.5816,5.5787,5.5863,5.5957,5.5624,5.5519,5.5722,5.5397,5.5245,5.5448,5.5299,5.5209,5.5209,5.5209,5.5209,5.5209,5.5209,5.5209,5.5089,5.4281,5.3773,5.3743,5.3713,5.3743,5.3743,5.3713,5.3713,5.3743,5.3743,5.3773,5.3743,5.3862,5.3743,5.3743,5.3803,5.3832,5.3783,5.3655,5.3446,5.3446,5.3277,5.3068,5.2832,5.2553,5.1775,5.0417,5.0037,4.9979,4.9698,4.9746,4.9746,4.9746,4.9746,4.9746,4.9746,4.9746,4.9746,4.9746,4.9669,4.9669,4.9553,4.9146,4.8508,4.7677,4.7044,4.6431,5.8084,5.7947,5.8105,5.8716,5.9602,5.8651,5.8461,5.9027,5.8792,5.8732,5.8885,5.9392,5.9668,5.9606,5.9668,5.964,5.9645,5.9924,6.0051,5.9998,5.9784,5.9673,5.9616,5.9363,5.9248,5.919,5.8581,5.7942,5.739,5.7332,5.7303,5.7303,5.7303,5.7303,5.7303,5.7303,5.7303,5.7303,5.7303,5.7303,5.7303,5.7303,5.7303,5.7303,5.7303,5.7274,5.7216,5.7245,5.7096,5.676,5.6731,5.6632,5.6397,5.6515,5.675,5.687,5.6466,5.6137,5.6047,5.5628,5.5269,5.5239,5.5269,5.5209,5.5209,5.5209,5.5209,5.5179,5.5029,5.497,5.494,5.485,5.494,5.494,5.5029,5.4999,5.5029,5.488,5.5089,5.4999,5.491,5.485,5.4999,5.5119,5.497,5.494,5.5029,5.4919,5.4809,5.4717,5.4327,5.3861,5.3393,5.2788,5.1443,5.0699,5.0319,5.0037,4.9941,4.9746,4.9746,4.9746,4.9746,4.9746,4.9746,4.9746,4.9746,4.9746,4.9746,4.9553,4.9233,4.8653,4.8199,4.7445,4.6877,5.8589,5.8709,5.9269,5.9639,5.9806,5.9839,5.9983,6.0051,5.9985,5.9893,5.9962,5.9995,6.001,6.001,6.0255,6.0194,6.0071,6.0377,6.0499,6.0531,6.0632,6.0665,6.0578,6.0118,5.9887,5.9771,5.9248,5.861,5.8,5.7942,5.7739,5.7361,5.7303,5.7303,5.7303,5.7303,5.7303,5.7303,5.7303,5.7303,5.7303,5.7303,5.7416,5.7584,5.7416,5.7303,5.7303,5.7472,5.7552,5.743,5.7596,5.7727,5.7789,5.7672,5.7437,5.7124,5.6885,5.6765,5.6735,5.6555,5.6226,5.5918,5.5858,5.5628,5.5299,5.5209,5.5209,5.5209,5.5209,5.5209,5.5209,5.5209,5.5209,5.5209,5.5209,5.5209,5.5209,5.5209,5.5209,5.5209,5.5209,5.5209,5.5209,5.5209,5.5209,5.5209,5.5209,5.5209,5.5179,5.5108,5.4908,5.4708,5.4467,5.3968,5.3059,5.1639,5.0836,5.0524,5.0271,4.9882,4.9746,4.9717,4.9717,4.9746,4.9746,4.9746,4.9746,4.9746,4.9746,4.964,4.9291,4.9088,4.875,4.8083,4.7503,5.9305,5.9535,6.0108,6.0416,6.0537,6.0855,6.1146,6.1183,6.1013,6.087,6.0739,6.0651,6.0578,6.0467,6.0681,6.0742,6.056,6.0742,6.0892,6.0892,6.1073,6.1193,6.1106,6.0729,6.0526,6.0409,5.9887,5.9248,5.8697,5.8639,5.8377,5.8,5.7942,5.7826,5.7652,5.7623,5.7536,5.7361,5.7416,5.7472,5.7472,5.7528,5.7696,5.7892,5.7696,5.7584,5.7584,5.7836,5.8003,5.8114,5.828,5.85,5.8798,5.8573,5.8231,5.7812,5.7543,5.7423,5.7393,5.7214,5.6915,5.6526,5.6466,5.6256,5.5837,5.5807,5.5718,5.5598,5.5508,5.5448,5.5239,5.5209,5.5209,5.5209,5.5209,5.5209,5.5209,5.5209,5.5209,5.5209,5.5209,5.5209,5.5209,5.5209,5.5209,5.5209,5.5209,5.5209,5.5209,5.5209,5.5209,5.5179,5.4997,5.4717,5.4101,5.3029,5.1709,5.1229,5.0808,5.034,4.9844,4.9844,4.9815,4.9746,4.9746,4.9746,4.9746,4.9746,4.9746,4.9746,4.9611,4.9407,4.9146,4.8885,4.8228,6.0013,6.0258,6.0591,6.1111,6.1583,6.1542,6.1856,6.2264,6.1919,6.1542,6.1394,6.1446,6.1228,6.0886,6.1041,6.1133,6.1133,6.1133,6.1133,6.1133,6.1193,6.1193,6.1164,6.1106,6.1077,6.1077,6.0496,5.9916,5.9335,5.9306,5.9248,5.9248,5.9132,5.8784,5.8319,5.8318,5.8028,5.7648,5.7757,5.7839,5.7836,5.7974,5.814,5.8195,5.8195,5.8195,5.8195,5.8195,5.8335,5.8639,5.8664,5.8857,5.9045,5.9039,5.9039,5.886,5.8441,5.8171,5.8052,5.7603,5.7304,5.7124,5.7094,5.7064,5.6885,5.6885,5.6705,5.6286,5.6166,5.5957,5.5448,5.5329,5.5269,5.5209,5.5209,5.5209,5.5209,5.5209,5.5209,5.5209,5.5209,5.5209,5.5209,5.5209,5.5209,5.5209,5.5209,5.5209,5.5209,5.5209,5.5209,5.5209,5.5158,5.4988,5.4729,5.438,5.309,5.1984,5.1562,5.1033,5.0359,5.0086,5.0038,4.999,4.9844,4.9844,4.9746,4.9746,4.9746,4.9746,4.9717,4.9717,4.9436,4.9175,4.8885,6.0887,6.1159,6.1124,6.1574,6.222,6.2358,6.2737,6.3139,6.2965,6.2848,6.2658,6.2163,6.1855,6.1623,6.1396,6.1193,6.1193,6.1193,6.1193,6.1193,6.1193,6.1193,6.1193,6.1193,6.1193,6.1164,6.099,6.0555,6.0032,5.9916,5.9742,5.9393,5.9335,5.9306,5.9247,5.9275,5.9011,5.8652,5.8705,5.8555,5.8143,5.8169,5.8335,5.85,5.8555,5.8609,5.8798,5.8664,5.8609,5.8694,5.8882,5.8991,5.9099,5.9099,5.9099,5.9099,5.8949,5.88,5.88,5.859,5.8231,5.7932,5.7782,5.7543,5.7184,5.7154,5.7064,5.6825,5.6795,5.6675,5.6496,5.6107,5.5718,5.5239,5.5209,5.5209,5.5209,5.5209,5.5209,5.5209,5.5209,5.5209,5.5209,5.5209,5.5209,5.5209,5.5209,5.5209,5.5209,5.5209,5.5209,5.5209,5.5209,5.5209,5.4979,5.4779,5.4052,5.2931,5.2299,5.162,5.0865,5.0327,5.0279,5.0183,5.0038,4.9941,4.9844,4.9746,4.9795,4.9717,4.9717,4.9717,4.9717,4.9465,4.9175,6.189,6.1805,6.2,6.224,6.2582,6.2952,6.3348,6.3777,6.3858,6.3798,6.3549,6.3072,6.2529,6.2093,6.1687,6.1396,6.1193,6.1193,6.1193,6.1193,6.1193,6.1193,6.1193,6.1193,6.1193,6.1193,6.1193,6.099,6.0584,6.0673,6.0529,6.0209,6.0268,6.0326,6.0266,6.0265,6.0028,5.964,5.9664,5.9395,5.8948,5.8855,5.8902,5.8887,5.8857,5.8936,5.9045,5.8936,5.8828,5.8882,5.8991,5.9099,5.9099,5.9099,5.9099,5.9099,5.9099,5.9099,5.9099,5.9039,5.8949,5.856,5.8501,5.8351,5.7932,5.7842,5.7782,5.7513,5.7483,5.7363,5.7064,5.6765,5.6316,5.5957,5.5448,5.5239,5.5209,5.5209,5.5209,5.5209,5.5209,5.5209,5.5209,5.5209,5.5209,5.5209,5.5209,5.5209,5.5209,5.5209,5.5209,5.5209,5.5209,5.5209,5.5209,5.5059,5.488,5.3973,5.3019,5.214,5.1372,5.0821,5.0567,5.0423,5.0309,5.0231,5.0135,4.9941,4.9892,4.9815,4.9766,4.9717,4.9717,4.9717,4.9465,6.3046,6.2481,6.3057,6.3208,6.3131,6.3376,6.3834,6.4418,6.4518,6.4329,6.412,6.3859,6.3312,6.2412,6.2122,6.1745,6.1338,6.1193,6.1193,6.1193,6.1253,6.1253,6.1193,6.1193,6.1253,6.1224,6.1224,6.1224,6.1257,6.1407,6.1584,6.1526,6.1645,6.1792,6.1349,6.126,6.0993,6.0489,6.0571,6.0413,5.9819,5.9981,5.9792,5.9194,5.9164,5.9135,5.9099,5.9045,5.9099,5.9099,5.9099,5.9099,5.9099,5.9099,5.9099,5.9099,5.9099,5.9099,5.9099,5.9099,5.9069,5.9009,5.9009,5.9099,5.8919,5.883,5.865,5.8231,5.8171,5.7932,5.7483,5.7214,5.7094,5.6915,5.6017,5.5388,5.5209,5.5209,5.5209,5.5209,5.5209,5.5209,5.5209,5.5209,5.5209,5.5209,5.5209,5.5209,5.5209,5.5209,5.5209,5.5209,5.5209,5.5209,5.5209,5.5179,5.4999,5.459,5.3674,5.2721,5.1821,5.1208,5.0775,5.0614,5.0548,5.0501,5.0405,5.0183,5.0135,5.0086,4.999,4.9795,4.9746,4.9795,4.9717,6.4217,6.4693,6.4003,6.3902,6.4301,6.423,6.4289,6.4512,6.474,6.4752,6.4648,6.4241,6.3801,6.3428,6.2499,6.2006,6.1774,6.1428,6.1193,6.1253,6.1404,6.1344,6.1253,6.1193,6.1284,6.1434,6.1494,6.1642,6.1821,6.1939,6.1969,6.1969,6.2116,6.2175,6.2173,6.2201,6.1991,6.1628,6.1652,6.141,6.0843,6.0779,6.0505,5.9907,5.9817,5.9578,5.9189,5.9099,5.9099,5.9099,5.9099,5.9099,5.9099,5.9099,5.9099,5.9099,5.9099,5.9099,5.9099,5.9099,5.9099,5.9099,5.9099,5.9099,5.9099,5.9099,5.9009,5.886,5.883,5.874,5.8501,5.8112,5.7693,5.7094,5.6436,5.5777,5.5359,5.5209,5.5209,5.5209,5.5209,5.5209,5.5209,5.5209,5.5209,5.5209,5.5209,5.5209,5.5209,5.5209,5.5209,5.5209,5.5209,5.5209,5.5209,5.5209,5.5119,5.497,5.4232,5.3305,5.2341,5.1506,5.1113,5.0822,5.0805,5.0757,5.0567,5.0405,5.0405,5.0375,5.0183,5.0038,4.9941,4.9892,4.9766,6.5363,6.5681,6.4939,6.4842,6.5085,6.4706,6.4547,6.474,6.4932,6.4996,6.4909,6.4619,6.4299,6.3951,6.3117,6.2538,6.2307,6.1815,6.1612,6.1583,6.1732,6.1761,6.1583,6.1583,6.1642,6.1791,6.1791,6.191,6.2116,6.2234,6.2292,6.2351,6.2468,6.2585,6.2759,6.2789,6.2726,6.257,6.248,6.2181,6.1583,6.1523,6.1164,6.0655,6.0505,6.0206,5.9608,5.9279,5.9099,5.9099,5.9099,5.9099,5.9099,5.9099,5.9099,5.9099,5.9099,5.9099,5.9099,5.9099,5.9099,5.9099,5.9099,5.9099,5.9099,5.9099,5.9099,5.9099,5.9099,5.9099,5.9039,5.874,5.8261,5.7663,5.7214,5.6585,5.5718,5.5628,5.5448,5.5299,5.5209,5.5209,5.5209,5.5209,5.5209,5.5209,5.5209,5.5209,5.5209,5.5209,5.5209,5.5209,5.5209,5.5209,5.5209,5.5209,5.5209,5.5059,5.4371,5.3533,5.2695,5.1768,5.1285,5.1011,5.0964,5.0917,5.0805,5.0662,5.0585,5.0537,5.0375,5.0231,5.0135,5.0038,4.9892,6.6356,6.6,6.5991,6.5802,6.5527,6.4987,6.4891,6.4996,6.5187,6.5187,6.5158,6.5094,6.4838,6.4159,6.395,6.343,6.2785,6.2439,6.2175,6.2145,6.2175,6.2175,6.2234,6.2057,6.2057,6.2175,6.2175,6.2234,6.2351,6.2526,6.2615,6.2673,6.2905,6.3079,6.3079,6.3079,6.3079,6.3019,6.3017,6.272,6.2271,6.2181,6.1852,6.1313,6.1014,6.0745,6.0206,5.9757,5.9428,5.9338,5.9189,5.9129,5.9099,5.9099,5.9099,5.9099,5.9099,5.9099,5.9099,5.9099,5.9099,5.9099,5.9099,5.9099,5.9099,5.9099,5.9099,5.9099,5.9099,5.9099,5.9099,5.9069,5.88,5.8321,5.8171,5.7603,5.6705,5.6308,5.5927,5.5388,5.5269,5.5209,5.5209,5.5209,5.5209,5.5209,5.5209,5.5209,5.5209,5.5209,5.5209,5.5209,5.5209,5.5209,5.5209,5.5209,5.5209,5.5089,5.4281,5.3473,5.2755,5.1977,5.1468,5.1182,5.1135,5.1105,5.1058,5.0964,5.087,5.0775,5.0662,5.0471,5.0279,5.0231,5.0135,6.6999,6.7684,6.7189,6.6796,6.6556,6.6177,6.5752,6.5412,6.5694,6.5756,6.5756,6.5756,6.5668,6.5492,6.4879,6.4352,6.3706,6.3089,6.2765,6.2498,6.2498,6.2643,6.2701,6.241,6.2292,6.2439,6.2498,6.2615,6.2847,6.2905,6.3021,6.3021,6.3021,6.3137,6.3137,6.3137,6.3137,6.3137,6.3137,6.3077,6.2869,6.278,6.251,6.1912,6.1433,6.1104,6.0924,6.0775,6.0685,6.0446,5.9757,5.9279,5.9279,5.9189,5.9189,5.9159,5.9129,5.9099,5.9099,5.9099,5.9099,5.9099,5.9099,5.9099,5.9099,5.9099,5.9099,5.9099,5.9099,5.9099,5.9099,5.9099,5.9009,5.886,5.88,5.853,5.7752,5.6825,5.6256,5.5927,5.5538,5.5209,5.5209,5.5209,5.5209,5.5209,5.5209,5.5209,5.5209,5.5209,5.5209,5.5209,5.5209,5.5209,5.5209,5.5209,5.5209,5.5089,5.4341,5.3743,5.3025,5.2097,5.1588,5.1319,5.1182,5.1229,5.1152,5.1182,5.1058,5.0964,5.0917,5.0728,5.0537,5.0471,5.0327,6.7736,6.8227,6.793,6.753,6.7116,6.6768,6.6344,6.5845,6.5882,6.6037,6.6037,6.6037,6.6037,6.5948,6.5424,6.4896,6.4246,6.3476,6.3,6.2819,6.2847,6.2905,6.3021,6.2759,6.2673,6.2847,6.2847,6.2963,6.3079,6.3137,6.3079,6.3137,6.3137,6.3137,6.3137,6.3137,6.3137,6.3137,6.3137,6.3137,6.3137,6.3137,6.2959,6.251,6.1942,6.1583,6.1553,6.1224,6.1134,6.0954,6.0446,6.0057,5.9967,5.9727,5.9578,5.9548,5.9249,5.9129,5.9099,5.9099,5.9099,5.9129,5.9099,5.9099,5.9099,5.9099,5.9099,5.9099,5.9099,5.9099,5.9099,5.9099,5.9099,5.9099,5.9099,5.8949,5.8501,5.7693,5.6915,5.6615,5.6077,5.5777,5.5628,5.5448,5.5209,5.5209,5.5209,5.5209,5.5209,5.5209,5.5209,5.5209,5.5209,5.5209,5.5209,5.5209,5.5209,5.4999,5.4551,5.4132,5.3683,5.2665,5.1648,5.1468,5.1319,5.1229,5.1229,5.1229,5.1229,5.1135,5.1041,5.0917,5.0822,5.068,5.0567,6.8421,6.846,6.8581,6.8232,6.7653,6.7359,6.6867,6.6306,6.6162,6.6257,6.6132,6.6132,6.6257,6.6139,6.591,6.5349,6.4487,6.3741,6.326,6.3051,6.3021,6.3079,6.3079,6.3079,6.3021,6.3137,6.3079,6.3079,6.3079,6.3137,6.3137,6.3137,6.3137,6.3137,6.3137,6.3137,6.3137,6.3137,6.3137,6.3137,6.3137,6.3137,6.3107,6.2899,6.257,6.2241,6.2151,6.1852,6.1523,6.1403,6.1403,6.1403,6.1224,6.0655,6.0236,6.0236,5.9817,5.9668,5.9608,5.9428,5.9308,5.9249,5.9129,5.9099,5.9099,5.9099,5.9099,5.9099,5.9099,5.9099,5.9099,5.9099,5.9099,5.9099,5.9099,5.9099,5.9009,5.859,5.7962,5.7304,5.6705,5.6286,5.5987,5.5748,5.5448,5.5239,5.5209,5.5209,5.5209,5.5209,5.5209,5.5209,5.5209,5.5209,5.5209,5.5209,5.5209,5.5059,5.47,5.4461,5.4162,5.3204,5.2217,5.1618,5.1409,5.1319,5.1229,5.1229,5.1229,5.1229,5.1182,5.1058,5.0964,5.084,5.0775,6.8866,6.9136,6.9486,6.9273,6.8625,6.8299,6.7809,6.7278,6.69,6.6814,6.6814,6.6814,6.6814,6.6755,6.6786,6.604,6.4905,6.4067,6.3498,6.3169,6.3137,6.3137,6.3137,6.3137,6.3137,6.3137,6.3137,6.3137,6.3137,6.3137,6.3137,6.3137,6.3137,6.3137,6.3137,6.3137,6.3137,6.3137,6.3137,6.3137,6.3137,6.3137,6.3137,6.3079,6.2869,6.2839,6.2869,6.281,6.275,6.275,6.275,6.272,6.2421,6.1553,6.1074,6.0894,6.0715,6.0505,6.0505,6.0176,5.9967,5.9787,5.9488,5.9189,5.9159,5.9099,5.9099,5.9099,5.9099,5.9099,5.9099,5.9099,5.9099,5.9099,5.9099,5.9099,5.9069,5.8919,5.862,5.7992,5.7363,5.6825,5.6555,5.6166,5.5748,5.5448,5.5269,5.5239,5.5209,5.5209,5.5209,5.5209,5.5209,5.5209,5.5209,5.5209,5.5209,5.5209,5.497,5.476,5.4311,5.3593,5.2845,5.2247,5.1618,5.1259,5.1229,5.1229,5.1229,5.1229,5.1182,5.1182,5.1105,5.1011,5.1058,6.927,6.9604,7.0002,6.9749,6.9193,6.8861,6.8333,6.774,6.7236,6.6999,6.6999,6.6999,6.6999,6.6999,6.6999,6.6251,6.5144,6.4306,6.3677,6.3199,6.3137,6.3137,6.3137,6.3137,6.3137,6.3137,6.3137,6.3137,6.3137,6.3137,6.3137,6.3137,6.3137,6.3137,6.3137,6.3137,6.3137,6.3137,6.3137,6.3137,6.3137,6.3137,6.3137,6.3137,6.3137,6.3137,6.3137,6.3137,6.3137,6.3107,6.3107,6.3137,6.2869,6.254,6.1942,6.1642,6.1343,6.1134,6.1134,6.0775,6.0625,6.0535,5.9997,5.9668,5.9518,5.9368,5.9129,5.9099,5.9099,5.9099,5.9099,5.9099,5.9099,5.9099,5.9099,5.9099,5.9099,5.9099,5.889,5.856,5.8022,5.7543,5.7274,5.6795,5.6166,5.5748,5.5418,5.5299,5.5209,5.5209,5.5209,5.5209,5.5209,5.5209,5.5209,5.5209,5.5209,5.5209,5.5149,5.497,5.467,5.4012,5.3443,5.2845,5.2217,5.1409,5.1229,5.1229,5.1229,5.1229,5.1229,5.1182,5.1229,5.1229,5.1229,6.967,7.0002,7.0397,7.02,6.9665,6.9176,6.8704,6.8106,6.7328,6.6999,6.6999,6.6999,6.6999,6.6999,6.6849,6.634,6.5203,6.4545,6.3917,6.3378,6.3196,6.3137,6.3137,6.3137,6.3137,6.3137,6.3137,6.3137,6.3137,6.3137,6.3137,6.3137,6.3137,6.3137,6.3137,6.3137,6.3137,6.3137,6.3137,6.3137,6.3137,6.3137,6.3137,6.3137,6.3137,6.3137,6.3137,6.3137,6.3137,6.3137,6.3137,6.3137,6.3137,6.3137,6.2839,6.2331,6.1792,6.1583,6.1523,6.1343,6.1313,6.1283,6.0655,6.0326,5.9907,5.9488,5.9099,5.9099,5.9099,5.9099,5.9099,5.9099,5.9099,5.9099,5.9099,5.9099,5.9099,5.9099,5.9099,5.883,5.853,5.8201,5.7812,5.7483,5.6855,5.6077,5.5718,5.5388,5.5329,5.5209,5.5209,5.5209,5.5209,5.5209,5.5209,5.5209,5.5209,5.5209,5.5209,5.5089,5.485,5.4521,5.3952,5.3354,5.2336,5.1618,5.1439,5.1229,5.1229,5.1229,5.1229,5.1229,5.1229,5.1229,5.1229,7.0331,7.0397,7.0724,7.0794,7.0525,6.9512,6.8974,6.8704,6.7508,6.6999,6.6999,6.6999,6.6999,6.6999,6.6999,6.655,6.5832,6.5114,6.4425,6.3797,6.3318,6.3137,6.3137,6.3137,6.3137,6.3137,6.3137,6.3137,6.3137,6.3137,6.3137,6.3137,6.3137,6.3137,6.3137,6.3137,6.3137,6.3137,6.3137,6.3137,6.3137,6.3137,6.3137,6.3137,6.3137,6.3137,6.3137,6.3137,6.3137,6.3137,6.3137,6.3137,6.3137,6.3137,6.3079,6.2959,6.2869,6.2839,6.263,6.2241,6.1972,6.1882,6.1343,6.0745,6.0146,5.9608,5.9219,5.9099,5.9099,5.9099,5.9099,5.9099,5.9099,5.9099,5.9099,5.9099,5.9099,5.9099,5.9099,5.9099,5.88,5.853,5.8201,5.7932,5.7543,5.6735,5.6098,5.5718,5.5418,5.5329,5.5209,5.5209,5.5209,5.5209,5.5209,5.5209,5.5209,5.5209,5.5209,5.5179,5.5029,5.479,5.4431,5.3713,5.2695,5.1887,5.1588,5.1409,5.1289,5.1229,5.1229,5.1229,5.1229,5.1229,5.1229,7.0694,7.0694,7.0824,7.0919,7.0739,6.9542,6.9004,6.8734,6.7597,6.6999,6.6999,6.6999,6.6999,6.6999,6.6999,6.661,6.5981,6.5323,6.4635,6.4006,6.3438,6.3137,6.3137,6.3137,6.3137,6.3137,6.3137,6.3137,6.3137,6.3137,6.3137,6.3137,6.3137,6.3137,6.3137,6.3137,6.3137,6.3137,6.3137,6.3137,6.3137,6.3137,6.3137,6.3137,6.3137,6.3137,6.3137,6.3137,6.3137,6.3137,6.3137,6.3137,6.3137,6.3137,6.3137,6.3137,6.3107,6.3107,6.3047,6.278,6.266,6.248,6.1972,6.1224,6.0356,5.9817,5.9428,5.9129,5.9099,5.9099,5.9099,5.9099,5.9099,5.9099,5.9099,5.9099,5.9099,5.9099,5.9099,5.9099,5.9099,5.883,5.856,5.8261,5.7962,5.7453,5.6675,5.6107,5.5748,5.5448,5.5299,5.5209,5.5209,5.5209,5.5209,5.5209,5.5209,5.5209,5.5209,5.5179,5.5149,5.494,5.464,5.4162,5.3294,5.2576,5.1917,5.1468,5.1259,5.1229,5.1229,5.1229,5.1229,5.1229,5.1229,7.0919,7.0919,7.0919,7.0919,7.0769,6.9542,6.9004,6.8824,6.7567,6.6999,6.6999,6.6999,6.6999,6.6999,6.6969,6.6729,6.6251,6.5413,6.4784,6.4156,6.3528,6.3166,6.3137,6.3137,6.3137,6.3137,6.3137,6.3137,6.3137,6.3137,6.3137,6.3137,6.3137,6.3137,6.3137,6.3137,6.3137,6.3137,6.3137,6.3137,6.3137,6.3137,6.3137,6.3137,6.3137,6.3137,6.3137,6.3137,6.3137,6.3137,6.3137,6.3137,6.3137,6.3137,6.3137,6.3137,6.3137,6.3137,6.3137,6.3077,6.3137,6.2869,6.248,6.1642,6.0894,6.0386,5.9967,5.9458,5.9159,5.9129,5.9099,5.9099,5.9099,5.9099,5.9099,5.9099,5.9099,5.9099,5.9099,5.9099,5.9099,5.9099,5.886,5.859,5.8321,5.8022,5.7393,5.6615,5.6107,5.5718,5.5448,5.5329,5.5209,5.5209,5.5209,5.5209,5.5209,5.5209,5.5209,5.5179,5.5179,5.5119,5.494,5.4401,5.3803,5.3234,5.2576,5.1887,5.1229,5.1229,5.1229,5.1229,5.1229,5.1229,5.1229,7.0919,7.0919,7.0919,7.0919,7.0799,6.9542,6.9004,6.8884,6.7567,6.6999,6.6999,6.6999,6.6999,6.6999,6.6999,6.6939,6.6819,6.5592,6.5084,6.4515,6.3767,6.3228,6.3109,6.3137,6.3137,6.3137,6.3137,6.3137,6.3137,6.3137,6.3137,6.3137,6.3137,6.3137,6.3137,6.3137,6.3137,6.3137,6.3137,6.3137,6.3137,6.3137,6.3137,6.3137,6.3137,6.3137,6.3137,6.3137,6.3137,6.3137,6.3137,6.3137,6.3137,6.3137,6.3137,6.3137,6.3137,6.3137,6.3137,6.3137,6.3137,6.2899,6.254,6.2091,6.1613,6.0655,6.0176,5.9937,5.9518,5.9189,5.9159,5.9099,5.9099,5.9099,5.9099,5.9099,5.9099,5.9099,5.9099,5.9099,5.9099,5.9099,5.9099,5.886,5.868,5.8411,5.7992,5.7214,5.6496,5.6047,5.5718,5.5478,5.5269,5.5209,5.5209,5.5209,5.5209,5.5209,5.5209,5.5209,5.5179,5.5149,5.5119,5.485,5.4311,5.3773,5.3174,5.2276,5.1618,5.1349,5.1229,5.1229,5.1229,5.1229,5.1229,7.0919,7.0919,7.0919,7.0919,7.0799,6.9542,6.9004,6.8764,6.7597,6.6999,6.6999,6.6999,6.6999,6.6999,6.6999,6.6999,6.6879,6.6101,6.5473,6.4844,6.4126,6.3498,6.3258,6.3137,6.3137,6.3137,6.3137,6.3137,6.3137,6.3137,6.3137,6.3137,6.3137,6.3137,6.3137,6.3137,6.3137,6.3137,6.3137,6.3137,6.3137,6.3137,6.3137,6.3137,6.3137,6.3137,6.3137,6.3137,6.3137,6.3137,6.3137,6.3137,6.3137,6.3137,6.3137,6.3137,6.3137,6.3137,6.3137,6.3137,6.3137,6.3049,6.281,6.254,6.2211,6.1523,6.0805,6.0356,5.9847,5.9548,5.9129,5.9099,5.9099,5.9099,5.9099,5.9099,5.9099,5.9099,5.9099,5.9099,5.9099,5.9099,5.9099,5.9069,5.8949,5.877,5.8321,5.7842,5.7124,5.6496,5.6166,5.5777,5.5508,5.5239,5.5209,5.5209,5.5209,5.5209,5.5209,5.5209,5.5209,5.5179,5.5119,5.497,5.476,5.4192,5.3473,5.2576,5.1947,5.1558,5.1349,5.1229,5.1229,5.1229,5.1229,7.0919,7.0919,7.0919,7.0919,7.0739,6.9542,6.9004,6.8764,6.7567,6.6999,6.6999,6.6999,6.6999,6.6999,6.6999,6.6999,6.6819,6.6281,6.5622,6.4964,6.4306,6.3677,6.3288,6.3137,6.3137,6.3137,6.3137,6.3137,6.3137,6.3137,6.3137,6.3137,6.3137,6.3137,6.3137,6.3137,6.3137,6.3137,6.3137,6.3137,6.3137,6.3137,6.3137,6.3137,6.3137,6.3137,6.3137,6.3137,6.3137,6.3137,6.3137,6.3137,6.3137,6.3137,6.3137,6.3137,6.3137,6.3137,6.3137,6.3137,6.3137,6.3107,6.3107,6.278,6.251,6.2211,6.1433,6.0625,6.0236,5.9847,5.9249,5.9099,5.9099,5.9099,5.9099,5.9099,5.9099,5.9099,5.9099,5.9099,5.9099,5.9099,5.9099,5.9099,5.9069,5.8979,5.88,5.8321,5.7693,5.7124,5.6705,5.6256,5.5807,5.5508,5.5239,5.5209,5.5209,5.5209,5.5209,5.5209,5.5209,5.5209,5.5179,5.5089,5.485,5.4491,5.3952,5.3294,5.2486,5.1708,5.1468,5.1229,5.1229,5.1229,5.1229,7.0919,7.0919,7.0919,7.0919,7.0739,6.9542,6.9004,6.8824,6.7597,6.6999,6.6999,6.6999,6.6999,6.6999,6.6999,6.6999,6.6879,6.637,6.5772,6.5144,6.4515,6.3767,6.3318,6.3196,6.3137,6.3137,6.3137,6.3137,6.3137,6.3137,6.3137,6.3137,6.3137,6.3137,6.3137,6.3137,6.3137,6.3137,6.3137,6.3137,6.3137,6.3137,6.3137,6.3137,6.3137,6.3137,6.3137,6.3137,6.3137,6.3137,6.3137,6.3137,6.3137,6.3137,6.3137,6.3137,6.3137,6.3137,6.3137,6.3137,6.3137,6.3137,6.3137,6.3047,6.2869,6.251,6.1942,6.1164,6.0595,5.9937,5.9458,5.9129,5.9129,5.9099,5.9099,5.9099,5.9099,5.9099,5.9099,5.9099,5.9099,5.9099,5.9099,5.9099,5.9099,5.9099,5.9099,5.874,5.8201,5.7723,5.7274,5.6825,5.6316,5.5837,5.5538,5.5269,5.5209,5.5209,5.5209,5.5209,5.5209,5.5209,5.5179,5.5179,5.5059,5.479,5.4491,5.4102,5.3054,5.2037,5.1468,5.1229,5.1229,5.1229,5.1229,7.0919,7.0919,7.0919,7.0919,7.0709,6.9542,6.9004,6.8764,6.7657,6.6999,6.6999,6.6999,6.6999,6.6999,6.6999,6.6999,6.6939,6.6879,6.6311,6.5622,6.4934,6.4336,6.3767,6.3258,6.3137,6.3137,6.3137,6.3137,6.3137,6.3137,6.3137,6.3137,6.3137,6.3137,6.3137,6.3137,6.3137,6.3137,6.3137,6.3137,6.3137,6.3137,6.3137,6.3137,6.3137,6.3137,6.3137,6.3137,6.3137,6.3137,6.3137,6.3137,6.3137,6.3137,6.3137,6.3137,6.3137,6.3137,6.3137,6.3137,6.3137,6.3137,6.3137,6.3137,6.3077,6.2929,6.2391,6.1792,6.1134,6.0475,5.9937,5.9338,5.9159,5.9129,5.9099,5.9099,5.9099,5.9099,5.9099,5.9099,5.9099,5.9099,5.9099,5.9099,5.9099,5.9099,5.9099,5.9099,5.868,5.8231,5.7782,5.7393,5.6915,5.6316,5.5867,5.5628,5.5388,5.5359,5.5269,5.5209,5.5209,5.5209,5.5179,5.5179,5.5149,5.5119,5.476,5.4281,5.3264,5.2366,5.1828,5.1349,5.1229,5.1229,5.1229,7.0919,7.0919,7.0919,7.0919,7.0709,6.9542,6.8794,6.8226,6.7358,6.6999,6.6999,6.6999,6.6999,6.6999,6.6999,6.6999,6.6999,6.6969,6.664,6.5981,6.5323,6.4605,6.3947,6.3438,6.3196,6.3137,6.3137,6.3137,6.3137,6.3137,6.3137,6.3137,6.3137,6.3137,6.3137,6.3137,6.3137,6.3137,6.3137,6.3137,6.3137,6.3137,6.3137,6.3137,6.3137,6.3137,6.3137,6.3137,6.3137,6.3137,6.3137,6.3137,6.3137,6.3137,6.3137,6.3137,6.3137,6.3137,6.3137,6.3137,6.3137,6.3137,6.3137,6.3137,6.3137,6.3077,6.266,6.2151,6.1672,6.0954,6.0236,5.9578,5.9338,5.9308,5.9099,5.9099,5.9099,5.9099,5.9099,5.9099,5.9099,5.9099,5.9099,5.9099,5.9099,5.9099,5.9099,5.9099,5.9099,5.871,5.8291,5.7902,5.7543,5.7034,5.6466,5.5987,5.5748,5.5568,5.5418,5.5299,5.5209,5.5209,5.5209,5.5179,5.5179,5.5119,5.494,5.4371,5.3533,5.2785,5.2157,5.1708,5.1319,5.1229,5.1229,7.0919,7.0919,7.0919,7.0889,7.0649,6.9423,6.8226,6.7059,6.6999,6.6999,6.6999,6.6999,6.6999,6.6999,6.6999,6.6999,6.6999,6.6999,6.664,6.6101,6.5533,6.4814,6.4156,6.3528,6.3258,6.3166,6.3137,6.3137,6.3137,6.3137,6.3137,6.3137,6.3137,6.3137,6.3137,6.3137,6.3137,6.3137,6.3137,6.3137,6.3137,6.3137,6.3137,6.3137,6.3137,6.3137,6.3137,6.3137,6.3137,6.3137,6.3137,6.3137,6.3137,6.3137,6.3137,6.3137,6.3137,6.3137,6.3137,6.3137,6.3137,6.3137,6.3137,6.3137,6.3137,6.3137,6.281,6.245,6.2002,6.1194,6.0416,6.0027,5.9697,5.9458,5.9159,5.9099,5.9099,5.9099,5.9099,5.9099,5.9099,5.9099,5.9099,5.9099,5.9099,5.9099,5.9099,5.9099,5.9099,5.9099,5.871,5.8351,5.8022,5.7752,5.7214,5.6615,5.6107,5.5897,5.5598,5.5448,5.5329,5.5209,5.5209,5.5209,5.5209,5.5119,5.5029,5.461,5.3982,5.3264,5.2576,5.1828,5.1349,5.1259,5.1229,7.0919,7.0919,7.0919,7.0649,7.0081,6.8854,6.7747,6.7059,6.6999,6.6999,6.6999,6.6999,6.6999,6.6999,6.6999,6.6999,6.6999,6.6969,6.6909,6.646,6.5922,6.5353,6.4695,6.4036,6.3558,6.3228,6.3109,6.3137,6.3137,6.3137,6.3137,6.3137,6.3137,6.3137,6.3137,6.3137,6.3137,6.3137,6.3137,6.3137,6.3137,6.3137,6.3137,6.3137,6.3137,6.3137,6.3137,6.3137,6.3137,6.3137,6.3137,6.3137,6.3137,6.3137,6.3137,6.3137,6.3137,6.3137,6.3137,6.3137,6.3137,6.3137,6.3137,6.3137,6.3137,6.3107,6.2959,6.269,6.2361,6.1642,6.0954,6.0505,5.9997,5.9518,5.9249,5.9099,5.9099,5.9099,5.9099,5.9099,5.9099,5.9099,5.9099,5.9099,5.9099,5.9099,5.9099,5.9099,5.9099,5.9099,5.9039,5.871,5.8471,5.8171,5.7812,5.7274,5.6705,5.6278,5.5927,5.5598,5.5299,5.5209,5.5209,5.5209,5.5209,5.5209,5.5179,5.47,5.4251,5.3713,5.3025,5.2157,5.1468,5.1349,5.1229,7.0919,7.0919,7.0919,7.041,6.9482,6.8435,6.7597,6.7059,6.6999,6.6999,6.6999,6.6999,6.6999,6.6999,6.6999,6.6999,6.6999,6.6999,6.6939,6.6789,6.634,6.5862,6.5233,6.4515,6.3857,6.3468,6.3199,6.3137,6.3137,6.3137,6.3137,6.3137,6.3137,6.3137,6.3137,6.3137,6.3137,6.3137,6.3137,6.3137,6.3137,6.3137,6.3137,6.3137,6.3137,6.3137,6.3137,6.3137,6.3137,6.3137,6.3137,6.3137,6.3137,6.3137,6.3137,6.3137,6.3137,6.3137,6.3137,6.3137,6.3137,6.3137,6.3137,6.3137,6.3137,6.3107,6.3107,6.2987,6.263,6.2211,6.1553,6.0894,6.0236,5.9608,5.9368,5.9129,5.9099,5.9099,5.9099,5.9099,5.9099,5.9099,5.9099,5.9099,5.9099,5.9099,5.9099,5.9099,5.9099,5.9099,5.9099,5.8949,5.877,5.856,5.8231,5.7902,5.7334,5.6765,5.6278,5.5867,5.5448,5.5209,5.5209,5.5209,5.5209,5.5209,5.5179,5.497,5.4551,5.4012,5.3473,5.2636,5.1887,5.1409,5.1319,7.0919,7.0889,7.0799,6.9991,6.8914,6.8136,6.7508,6.7029,6.6999,6.6999,6.6999,6.6999,6.6999,6.6999,6.6999,6.6999,6.6999,6.6999,6.6999,6.6969,6.652,6.6101,6.5592,6.4844,6.4306,6.3887,6.3528,6.3258,6.3166,6.3137,6.3137,6.3137,6.3137,6.3137,6.3137,6.3137,6.3137,6.3137,6.3137,6.3137,6.3137,6.3137,6.3137,6.3137,6.3137,6.3137,6.3137,6.3137,6.3137,6.3137,6.3137,6.3137,6.3137,6.3137,6.3137,6.3137,6.3137,6.3137,6.3137,6.3137,6.3137,6.3137,6.3137,6.3137,6.3137,6.3137,6.3137,6.3137,6.281,6.248,6.1882,6.1433,6.0864,6.0116,5.9638,5.9338,5.9129,5.9129,5.9099,5.9099,5.9099,5.9099,5.9099,5.9099,5.9099,5.9099,5.9099,5.9099,5.9099,5.9099,5.9099,5.9099,5.8979,5.883,5.877,5.8411,5.7932,5.7363,5.6735,5.6137,5.5718,5.5418,5.5209,5.5209,5.5209,5.5209,5.5149,5.4999,5.482,5.4461,5.3862,5.3114,5.2456,5.1798,5.1409,7.0919,7.0799,6.9842,6.8974,6.8166,6.7508,6.7148,6.6999,6.6999,6.6999,6.6999,6.6999,6.6999,6.6999,6.6999,6.6999,6.6999,6.6999,6.6999,6.6999,6.6729,6.643,6.6101,6.5562,6.4934,6.4216,6.3767,6.3498,6.3169,6.3137,6.3137,6.3137,6.3137,6.3137,6.3137,6.3137,6.3137,6.3137,6.3137,6.3137,6.3137,6.3137,6.3137,6.3137,6.3137,6.3137,6.3137,6.3137,6.3137,6.3137,6.3137,6.3137,6.3137,6.3137,6.3137,6.3137,6.3137,6.3137,6.3137,6.3137,6.3137,6.3137,6.3137,6.3137,6.3137,6.3137,6.3137,6.3137,6.3017,6.26,6.2271,6.1912,6.1463,6.0715,5.9967,5.9608,5.9219,5.9159,5.9129,5.9099,5.9099,5.9099,5.9099,5.9099,5.9099,5.9099,5.9099,5.9099,5.9099,5.9099,5.9099,5.9099,5.9099,5.9039,5.9039,5.886,5.8351,5.7872,5.7304,5.6675,5.6017,5.5538,5.5209,5.5209,5.5209,5.5209,5.5209,5.5179,5.497,5.473,5.4251,5.3533,5.2935,5.2306,5.1798,7.0919,7.0739,6.9542,6.8615,6.7926,6.7268,6.6999,6.6999,6.6999,6.6999,6.6999,6.6999,6.6999,6.6999,6.6999,6.6999,6.6999,6.6999,6.6999,6.6999,6.6969,6.6789,6.649,6.6161,6.5682,6.4934,6.4186,6.3707,6.3228,6.3137,6.3137,6.3137,6.3137,6.3137,6.3137,6.3137,6.3137,6.3137,6.3137,6.3137,6.3137,6.3137,6.3137,6.3137,6.3137,6.3137,6.3137,6.3137,6.3137,6.3137,6.3137,6.3137,6.3137,6.3137,6.3137,6.3137,6.3137,6.3137,6.3137,6.3137,6.3137,6.3137,6.3137,6.3137,6.3137,6.3137,6.3137,6.3137,6.3137,6.278,6.26,6.2271,6.1942,6.1343,6.0745,6.0296,5.9757,5.9338,5.9249,5.9099,5.9099,5.9099,5.9099,5.9099,5.9099,5.9099,5.9099,5.9099,5.9099,5.9099,5.9099,5.9099,5.9099,5.9099,5.9069,5.8979,5.871,5.8261,5.7782,5.7034,5.6286,5.5628,5.5209,5.5209,5.5209,5.5209,5.5209,5.5209,5.5209,5.5029,5.4521,5.3952,5.3354,5.2695,5.2037,7.0799,7.05,6.9453,6.8555,6.7837,6.7238,6.6999,6.6999,6.6999,6.6999,6.6999,6.6999,6.6999,6.6999,6.6999,6.6999,6.6999,6.6999,6.6999,6.6999,6.6999,6.6909,6.6729,6.643,6.6071,6.5443,6.4605,6.3917,6.3318,6.3256,6.3137,6.3137,6.3137,6.3137,6.3137,6.3137,6.3137,6.3137,6.3137,6.3137,6.3137,6.3137,6.3137,6.3137,6.3137,6.3137,6.3137,6.3137,6.3137,6.3137,6.3137,6.3137,6.3137,6.3137,6.3137,6.3137,6.3137,6.3137,6.3137,6.3137,6.3137,6.3137,6.3137,6.3137,6.3137,6.3137,6.3137,6.3137,6.3137,6.3077,6.2839,6.266,6.2331,6.1912,6.1373,6.0924,6.0296,5.9668,5.9458,5.9279,5.9219,5.9219,5.9129,5.9129,5.9129,5.9129,5.9099,5.9099,5.9099,5.9099,5.9099,5.9099,5.9099,5.9099,5.9099,5.9039,5.889,5.859,5.8082,5.7304,5.6526,5.5748,5.5239,5.5209,5.5209,5.5209,5.5209,5.5209,5.5209,5.5209,5.491,5.4341,5.3414,5.2755,5.2097,7.029,6.9363,6.9093,6.8315,6.7268,6.7029,6.6999,6.6999,6.6999,6.6999,6.6999,6.6999,6.6999,6.6999,6.6999,6.6999,6.6999,6.6999,6.6999,6.6999,6.6999,6.6999,6.6939,6.6729,6.646,6.5742,6.4874,6.4096,6.3617,6.3288,6.3137,6.3137,6.3137,6.3137,6.3137,6.3137,6.3137,6.3137,6.3137,6.3137,6.3137,6.3137,6.3137,6.3137,6.3137,6.3137,6.3137,6.3137,6.3137,6.3137,6.3137,6.3137,6.3137,6.3137,6.3137,6.3137,6.3137,6.3137,6.3137,6.3137,6.3137,6.3137,6.3137,6.3137,6.3137,6.3137,6.3137,6.3137,6.3137,6.3137,6.2959,6.2959,6.272,6.2151,6.1613,6.1313,6.0864,6.0356,5.9967,5.9757,5.9578,5.9458,5.9249,5.9219,5.9189,5.9159,5.9099,5.9099,5.9099,5.9099,5.9099,5.9099,5.9099,5.9099,5.9099,5.9099,5.8979,5.874,5.8351,5.7543,5.6675,5.5718,5.5329,5.5239,5.5209,5.5209,5.5209,5.5209,5.5209,5.5179,5.5179,5.473,5.3743,5.2935,5.2366]}]]